[[{"header":{"parameterUnit":"m.s-1","parameterCategory":1,"la1":30.6,"la2":28.766,"lo1":-90.7593,"lo2":-88.6598,"dy":0.0162,"dx":0.0183,"nx":116,"ny":114,"refTime":"2023-06-15T00:00:00:Z","depth":0,"parameterNumber":2,"parameterNumberName":"U-component_of_WINDS"},"data":[0.0,0.0,0.0,0.0,0.0,0.0,0.0,0.0,0.0,0.0,0.0,0.0,0.0,0.0,0.0,0.0,0.0,0.0,0.0,0.0,0.0,0.0,0.0,0.0,0.0,0.0,0.0,0.0,0.0,0.0,0.0,0.0,0.0,0.0,0.0,0.0,0.0,0.0,0.0,0.0,0.0,0.0,0.0,0.0,0.0,0.0,0.0,0.0,0.0,0.0,0.0,0.0,0.0,0.0,0.0,0.0,0.0,0.0,0.0,0.0,0.0,0.0,0.0,0.0,0.0,0.0,0.0,0.0,0.0,0.0,0.0,0.0,0.0,0.0,0.0,0.0,0.0,0.0,0.0,0.0,0.0,0.0,0.0,0.0,0.0,0.0,0.0,0.0,0.0,0.0,0.0,0.0,0.0,0.0,0.0,0.0,0.0,0.0,0.0,0.0,0.0,0.0,0.0,0.0,0.0,0.0,0.0,0.0,0.0,0.0,0.0,0.0,0.0,0.0,0.0,0.0,0.0,0.0,0.0,0.0,0.0,0.0,0.0,0.0,0.0,0.0,0.0,0.0,0.0,0.0,0.0,0.0,0.0,0.0,0.0,0.0,0.0,0.0,0.0,0.0,0.0,0.0,0.0,0.0,0.0,0.0,0.0,0.0,0.0,0.0,0.0,0.0,0.0,0.0,0.0,0.0,0.0,0.0,0.0,0.0,0.0,0.0,0.0,0.0,0.0,0.0,0.0,0.0,0.0,0.0,0.0,0.0,0.0,0.0,0.0,0.0,0.0,0.0,0.0,0.0,0.0,0.0,0.0,0.0,0.0,0.0,0.0,0.0,0.0,0.0,0.0,0.0,0.0,0.0,0.0,0.0,0.0,0.0,0.0,0.0,0.0,0.0,0.0,0.0,0.0,0.0,0.0,0.0,0.0,0.0,0.0,0.0,0.0,0.0,0.0,0.0,0.0,0.0,0.0,0.0,0.0,0.0,0.0,0.0,0.0,0.0,0.0,0.0,0.0,0.0,0.0,0.0,0.0,0.0,0.0,0.0,0.0,0.0,0.0,0.0,0.0,0.0,0.0,0.0,0.0,0.0,0.0,0.0,0.0,0.0,0.0,0.0,0.0,0.0,0.0,0.0,0.0,0.0,0.0,0.0,0.0,0.0,0.0,0.0,0.0,0.0,0.0,0.0,0.0,0.0,0.0,0.0,0.0,0.0,0.0,0.0,0.0,0.0,0.0,0.0,0.0,0.0,0.0,0.0,0.0,0.0,0.0,0.0,0.0,0.0,0.0,0.0,0.0,0.0,0.0,0.0,0.0,0.0,0.0,0.0,0.0,0.0,0.0,0.0,0.0,0.0,0.0,0.0,0.0,0.0,0.0,0.0,0.0,0.0,0.0,0.0,0.0,0.0,0.0,0.0,0.0,0.0,0.0,0.0,0.0,0.0,0.0,0.0,0.0,0.0,0.0,0.0,0.0,0.0,0.0,0.0,0.0,0.0,0.0,0.0,0.0,0.0,0.0,0.0,0.0,0.0,0.0,0.0,0.0,0.0,0.0,0.0,0.0,0.0,0.0,0.0,0.0,0.0,0.0,0.0,0.0,0.0,0.0,0.0,0.0,0.0,0.0,0.0,0.0,0.0,0.0,0.0,0.0,0.0,0.0,0.0,0.0,0.0,0.0,0.0,0.0,0.0,0.0,0.0,0.0,0.0,0.0,0.0,0.0,0.0,0.0,0.0,0.0,0.0,0.0,0.0,0.0,0.0,0.0,0.0,0.0,0.0,0.0,0.0,0.0,0.0,0.0,0.0,0.0,0.0,0.0,0.0,0.0,0.0,0.0,0.0,0.0,0.0,0.0,0.0,0.0,0.0,0.0,0.0,0.0,0.0,0.0,0.0,0.0,0.0,0.0,0.0,0.0,0.0,0.0,0.0,0.0,0.0,0.0,0.0,0.0,0.0,0.0,0.0,0.0,0.0,0.0,0.0,0.0,0.0,0.0,0.0,0.0,0.0,0.0,0.0,0.0,0.0,0.0,0.0,0.0,0.0,0.0,0.0,0.0,0.0,0.0,0.0,0.0,0.0,0.0,0.0,0.0,0.0,0.0,0.0,0.0,0.0,0.0,0.0,0.0,0.0,0.0,0.0,0.0,0.0,0.0,0.0,0.0,0.0,0.0,0.0,0.0,0.0,0.0,0.0,0.0,0.0,0.0,0.0,0.0,0.0,0.0,0.0,0.0,0.0,0.0,0.0,0.0,0.0,0.0,0.0,0.0,0.0,0.0,0.0,0.0,0.0,0.0,0.0,0.0,0.0,0.0,0.0,0.0,0.0,0.0,0.0,0.0,0.0,0.0,0.0,0.0,0.0,0.0,0.0,0.0,0.0,0.0,0.0,0.0,0.0,0.0,0.0,0.0,0.0,0.0,0.0,0.0,0.0,0.0,0.0,0.0,0.0,0.0,0.0,0.0,0.0,0.0,0.0,0.0,0.0,0.0,0.0,0.0,0.0,0.0,0.0,0.0,0.0,0.0,0.0,0.0,0.0,0.0,0.0,0.0,0.0,0.0,0.0,0.0,0.0,0.0,0.0,0.0,0.0,0.0,0.0,0.0,0.0,0.0,0.0,0.0,0.0,0.0,0.0,0.0,0.0,0.0,0.0,0.0,0.0,0.0,0.0,0.0,0.0,0.0,0.0,0.0,0.0,0.0,0.0,0.0,0.0,0.0,0.0,0.0,0.0,0.0,0.0,0.0,0.0,0.0,0.0,0.0,0.0,0.0,0.0,0.0,0.0,0.0,0.0,0.0,0.0,0.0,0.0,0.0,0.0,0.0,0.0,0.0,0.0,0.0,0.0,0.0,0.0,0.0,0.0,0.0,0.0,0.0,0.0,0.0,0.0,0.0,0.0,0.0,0.0,0.0,0.0,0.0,0.0,0.0,0.0,0.0,0.0,0.0,0.0,0.0,0.0,0.0,0.0,0.0,0.0,0.0,0.0,0.0,0.0,0.0,0.0,0.0,0.0,0.0,0.0,0.0,0.0,0.0,0.0,0.0,0.0,0.0,0.0,0.0,0.0,0.0,0.0,0.0,0.0,0.0,0.0,0.0,0.0,0.0,0.0,0.0,0.0,0.0,0.0,0.0,0.0,0.0,0.0,0.0,0.0,0.0,0.0,0.0,0.0,0.0,0.0,0.0,0.0,0.0,0.0,0.0,0.0,0.0,0.0,0.0,0.0,0.0,0.0,0.0,0.0,0.0,0.0,0.0,0.0,0.0,0.0,0.0,0.0,0.0,0.0,0.0,0.0,0.0,0.0,0.0,0.0,0.0,0.0,0.0,0.0,0.0,0.0,0.0,0.0,0.0,0.0,0.0,0.0,0.0,0.0,0.0,0.0,0.0,0.0,0.0,0.0,0.0,0.0,0.0,0.0,0.0,0.0,0.0,0.0,0.0,0.0,0.0,0.0,0.0,0.0,0.0,0.0,0.0,0.0,0.0,0.0,0.0,0.0,0.0,0.0,0.0,0.0,0.0,0.0,0.0,0.0,0.0,0.0,0.0,0.0,0.0,0.0,0.0,0.0,0.0,0.0,0.0,0.0,0.0,0.0,0.0,0.0,0.0,0.0,0.0,0.0,0.0,0.0,0.0,0.0,0.0,0.0,0.0,0.0,0.0,0.0,0.0,0.0,0.0,0.0,0.0,0.0,0.0,0.0,0.0,0.0,0.0,0.0,0.0,0.0,0.0,0.0,0.0,0.0,0.0,0.0,0.0,0.0,0.0,0.0,0.0,0.0,0.0,0.0,0.0,0.0,0.0,0.0,0.0,0.0,0.0,0.0,0.0,0.0,0.0,0.0,0.0,0.0,0.0,0.0,0.0,0.0,0.0,0.0,0.0,0.0,0.0,0.0,0.0,0.0,0.0,0.0,0.0,0.0,0.0,0.0,0.0,0.0,0.0,0.0,0.0,0.0,0.0,0.0,0.0,0.0,0.0,0.0,0.0,0.0,0.0,0.0,0.0,0.0,0.0,0.0,0.0,0.0,0.0,0.0,0.0,0.0,0.0,0.0,0.0,0.0,0.0,0.0,0.0,0.0,0.0,0.0,0.0,0.0,0.0,0.0,0.0,0.0,0.0,0.0,0.0,0.0,0.0,0.0,0.0,0.0,0.0,0.0,0.0,0.0,0.0,0.0,0.0,0.0,0.0,0.0,0.0,0.0,0.0,0.0,0.0,0.0,0.0,0.0,0.0,0.0,0.0,0.0,0.0,0.0,0.0,0.0,0.0,0.0,0.0,0.0,0.0,0.0,0.0,0.0,0.0,0.0,0.0,0.0,0.0,0.0,0.0,0.0,0.0,0.0,0.0,0.0,0.0,0.0,0.0,0.0,0.0,0.0,0.0,0.0,0.0,0.0,0.0,0.0,0.0,0.0,0.0,0.0,0.0,0.0,0.0,0.0,0.0,0.0,0.0,0.0,0.0,0.0,0.0,0.0,0.0,0.0,0.0,0.0,0.0,0.0,0.0,0.0,0.0,0.0,0.0,0.0,0.0,0.0,0.0,0.0,0.0,0.0,0.0,0.0,0.0,0.0,0.0,0.0,0.0,0.0,0.0,0.0,0.0,0.0,0.0,0.0,0.0,0.0,0.0,0.0,0.0,0.0,0.0,0.0,0.0,0.0,0.0,0.0,0.0,0.0,0.0,0.0,0.0,0.0,0.0,0.0,0.0,0.0,0.0,0.0,0.0,0.0,0.0,0.0,0.0,0.0,0.0,0.0,0.0,0.0,0.0,0.0,0.0,0.0,0.0,0.0,0.0,0.0,0.0,0.0,0.0,0.0,0.0,0.0,0.0,0.0,0.0,0.0,0.0,0.0,0.0,0.0,0.0,0.0,0.0,0.0,0.0,0.0,0.0,0.0,0.0,0.0,0.0,0.0,0.0,0.0,0.0,0.0,0.0,0.0,0.0,0.0,0.0,0.0,0.0,0.0,0.0,0.0,0.0,0.0,0.0,0.0,0.0,0.0,0.0,0.0,0.0,0.0,0.0,0.0,0.0,0.0,0.0,0.0,0.0,0.0,0.0,0.0,0.0,0.0,0.0,0.0,0.0,0.0,0.0,0.0,0.0,0.0,0.0,0.0,0.0,0.0,0.0,0.0,0.0,0.0,0.0,0.0,0.0,0.0,0.0,0.0,0.0,0.0,0.0,0.0,0.0,0.0,0.0,0.0,0.0,0.0,0.0,0.0,0.0,0.0,0.0,0.0,0.0,0.0,0.0,0.0,0.0,0.0,0.0,0.0,0.0,0.0,0.0,0.0,0.0,0.0,0.0,0.0,0.0,0.0,0.0,0.0,0.0,0.0,0.0,0.0,0.0,0.0,0.0,0.0,0.0,0.0,0.0,0.0,0.0,0.0,0.0,0.0,0.0,0.0,0.0,0.0,0.0,0.0,0.0,0.0,0.0,0.0,0.0,0.0,0.0,0.0,0.0,0.0,0.0,0.0,0.0,0.0,0.0,0.0,0.0,0.0,0.0,0.0,0.0,0.0,0.0,0.0,0.0,0.0,0.0,0.0,0.0,0.0,0.0,0.0,0.0,0.0,0.0,0.0,0.0,0.0,0.0,0.0,0.0,0.0,0.0,0.0,0.0,0.0,0.0,0.0,0.0,0.0,0.0,0.0,0.0,0.0,0.0,0.0,0.0,0.0,0.0,0.0,0.0,0.0,0.0,0.0,0.0,0.0,0.0,0.0,0.0,0.0,0.0,0.0,0.0,0.0,0.0,0.0,0.0,0.0,0.0,0.0,0.0,0.0,0.0,0.0,0.0,0.0,0.0,0.0,0.0,0.0,0.0,0.0,0.0,0.0,0.0,0.0,0.0,0.0,0.0,0.0,0.0,0.0,0.0,0.0,0.0,0.0,0.0,0.0,0.0,0.0,0.0,0.0,0.0,0.0,0.0,0.0,0.0,0.0,0.0,0.0,0.0,0.0,0.0,0.0,0.0,0.0,0.0,0.0,0.0,0.0,0.0,0.0,0.0,0.0,0.0,0.0,0.0,0.0,0.0,0.0,0.0,0.0,0.0,0.0,0.0,0.0,0.0,0.0,0.0,0.0,-1.3551,-1.3229,0.0,0.0,0.0,0.0,0.0,0.0,0.0,0.0,0.0,0.0,0.0,0.0,0.0,0.0,0.0,0.0,0.0,0.0,0.0,0.0,0.0,0.0,0.0,0.0,0.0,0.0,0.0,0.0,0.0,0.0,0.0,0.0,0.0,0.0,0.0,0.0,0.0,0.0,0.0,0.0,0.0,0.0,0.0,0.0,0.0,0.0,0.0,0.0,0.0,0.0,0.0,0.0,0.0,0.0,0.0,0.0,0.0,0.0,0.0,0.0,0.0,0.0,0.0,0.0,0.0,0.0,0.0,0.0,0.0,0.0,0.0,0.0,0.0,0.0,0.0,0.0,0.0,0.0,0.0,0.0,0.0,0.0,0.0,0.0,0.0,0.0,0.0,0.0,0.0,0.0,0.0,0.0,0.0,0.0,0.0,0.0,0.0,0.0,0.0,0.0,0.0,0.0,0.0,0.0,0.0,0.0,0.0,0.0,0.0,0.0,0.0,0.0,0.0,0.0,-1.4363,-1.3891,0.0,0.0,0.0,0.0,0.0,0.0,0.0,0.0,0.0,0.0,0.0,0.0,0.0,0.0,0.0,0.0,0.0,0.0,0.0,0.0,0.0,0.0,0.0,0.0,0.0,0.0,0.0,0.0,0.0,0.0,0.0,0.0,0.0,0.0,0.0,0.0,0.0,0.0,0.0,0.0,0.0,0.0,0.0,0.0,0.0,0.0,0.0,0.0,0.0,0.0,0.0,0.0,0.0,0.0,0.0,0.0,0.0,0.0,0.0,0.0,0.0,0.0,0.0,0.0,0.0,0.0,0.0,0.0,0.0,0.0,0.0,0.0,0.0,0.0,0.0,0.0,0.0,0.0,0.0,0.0,0.0,0.0,0.0,0.0,0.0,0.0,0.0,0.0,0.0,0.0,0.0,0.0,0.0,0.0,0.0,0.0,0.0,0.0,0.0,0.0,0.0,0.0,0.0,0.0,0.0,0.0,0.0,0.0,-1.5353,-1.5544,-1.5888,-1.5888,-1.5932,-1.6146,-1.5267,-1.4783,-1.4544,-1.4316,0.0,0.0,0.0,0.0,0.0,0.0,0.0,0.0,0.0,0.0,0.0,0.0,0.0,0.0,0.0,0.0,0.0,0.0,0.0,0.0,0.0,0.0,0.0,0.0,0.0,0.0,0.0,0.0,0.0,0.0,0.0,0.0,0.0,0.0,0.0,0.0,0.0,0.0,0.0,0.0,-2.1801,-2.1898,0.0,0.0,0.0,0.0,0.0,0.0,0.0,0.0,0.0,0.0,0.0,0.0,0.0,0.0,0.0,0.0,0.0,0.0,0.0,0.0,0.0,0.0,0.0,0.0,0.0,0.0,0.0,0.0,0.0,0.0,0.0,0.0,0.0,0.0,0.0,0.0,0.0,0.0,0.0,0.0,0.0,0.0,0.0,0.0,-1.3719,-1.3512,0.0,0.0,0.0,0.0,0.0,0.0,0.0,0.0,0.0,0.0,0.0,0.0,0.0,-1.5326,-1.6062,-1.5786,-1.5931,-1.6575,-1.6382,-1.6515,-1.6782,-1.6458,-1.6484,-1.6789,-1.6407,0.0,-1.5263,-1.5019,0.0,0.0,0.0,0.0,0.0,0.0,0.0,0.0,0.0,0.0,0.0,0.0,0.0,0.0,0.0,0.0,0.0,0.0,0.0,0.0,0.0,0.0,0.0,0.0,0.0,0.0,0.0,0.0,0.0,0.0,0.0,0.0,0.0,0.0,0.0,0.0,0.0,0.0,0.0,0.0,0.0,0.0,-2.2838,-2.203,-2.1025,-2.0048,0.0,0.0,0.0,0.0,0.0,0.0,0.0,0.0,0.0,0.0,0.0,0.0,0.0,0.0,0.0,0.0,0.0,0.0,0.0,0.0,0.0,0.0,0.0,0.0,0.0,0.0,0.0,0.0,0.0,0.0,0.0,0.0,0.0,0.0,0.0,0.0,0.0,0.0,0.0,-1.3979,-1.4601,-1.4707,-1.4877,-1.4994,0.0,0.0,0.0,0.0,0.0,0.0,0.0,0.0,0.0,-1.6033,-1.5918,-1.622,-1.6829,-1.6784,-1.6887,-1.7212,-1.7084,-1.7194,-1.7447,-1.7195,-1.7198,-1.7504,-1.7243,-1.7009,-1.665,-1.5982,-1.5472,-1.5131,0.0,0.0,0.0,0.0,-1.3705,-1.3625,0.0,0.0,0.0,0.0,0.0,0.0,0.0,0.0,0.0,0.0,0.0,0.0,0.0,0.0,0.0,-2.0152,0.0,0.0,0.0,0.0,0.0,0.0,0.0,0.0,0.0,0.0,0.0,0.0,0.0,0.0,0.0,0.0,0.0,0.0,0.0,-2.3525,-2.1992,-2.1237,-2.0798,0.0,0.0,0.0,0.0,0.0,0.0,0.0,0.0,0.0,0.0,0.0,0.0,0.0,0.0,0.0,0.0,0.0,0.0,0.0,0.0,0.0,0.0,0.0,0.0,0.0,0.0,0.0,0.0,0.0,0.0,0.0,0.0,0.0,0.0,0.0,0.0,0.0,0.0,-1.4894,-1.5396,-1.5736,-1.5648,-1.5635,0.0,0.0,0.0,0.0,0.0,0.0,-1.6491,-1.6571,-1.6793,-1.7157,-1.6941,-1.7133,-1.7621,-1.7637,-1.7768,-1.7866,-1.7783,-1.7908,-1.8157,-1.7895,-1.7931,-1.815,-1.7968,-1.7786,-1.772,-1.672,-1.6074,-1.5618,-1.5269,-1.5049,-1.4808,-1.4651,-1.4487,-1.4394,0.0,0.0,0.0,0.0,0.0,0.0,0.0,0.0,0.0,0.0,0.0,0.0,0.0,0.0,-2.0182,-2.0722,-2.0783,-2.1016,0.0,0.0,0.0,0.0,0.0,0.0,0.0,0.0,0.0,0.0,0.0,0.0,0.0,0.0,0.0,0.0,0.0,0.0,0.0,-2.292,-2.2242,-2.1649,0.0,0.0,0.0,0.0,0.0,0.0,0.0,0.0,0.0,0.0,0.0,0.0,0.0,0.0,0.0,0.0,0.0,0.0,0.0,0.0,0.0,0.0,0.0,0.0,0.0,0.0,0.0,0.0,0.0,0.0,0.0,0.0,0.0,0.0,0.0,0.0,0.0,0.0,0.0,-1.6258,-1.6792,0.0,0.0,0.0,0.0,-1.7295,-1.7587,-1.7685,-1.7742,-1.8022,-1.8172,-1.8162,-1.7937,-1.8038,-1.8491,-1.8329,-1.8482,-1.8847,-1.8863,-1.8874,-1.9025,-1.8739,-1.8648,-1.8663,-1.8353,-1.8163,-1.7824,-1.7165,-1.6714,-1.6428,-1.5881,-1.5527,-1.528,-1.5013,-1.4821,-1.4552,0.0,0.0,0.0,0.0,0.0,0.0,0.0,0.0,0.0,0.0,0.0,0.0,0.0,-1.9869,-2.0572,-2.0715,-2.1042,-2.1347,-2.1545,0.0,0.0,0.0,0.0,0.0,0.0,0.0,0.0,0.0,0.0,0.0,0.0,0.0,0.0,0.0,0.0,0.0,0.0,0.0,-2.2896,-2.26,-2.1753,-2.1015,0.0,0.0,0.0,0.0,0.0,0.0,0.0,0.0,0.0,0.0,0.0,0.0,0.0,0.0,0.0,0.0,0.0,0.0,0.0,0.0,0.0,0.0,0.0,0.0,0.0,0.0,0.0,0.0,0.0,0.0,0.0,0.0,0.0,0.0,0.0,0.0,0.0,-1.7321,-1.7687,0.0,-1.8288,-1.8276,-1.8322,-1.8411,-1.8574,-1.8735,-1.8802,-1.8905,-1.9132,-1.9389,-1.915,-1.9204,-1.9399,-1.9217,-1.9145,-1.9291,-1.8918,-1.8897,-1.9122,-1.9137,-1.9155,-1.9368,-1.9259,-1.924,-1.9105,-1.8254,-1.7566,-1.6836,-1.6642,-1.6477,-1.6182,-1.5899,-1.5803,-1.5609,0.0,0.0,0.0,0.0,0.0,0.0,0.0,0.0,0.0,0.0,0.0,-1.8546,-1.9075,-2.0107,-2.082,-2.0944,-2.1515,-2.1895,-2.2117,0.0,0.0,0.0,0.0,0.0,0.0,0.0,0.0,0.0,0.0,0.0,0.0,0.0,0.0,0.0,0.0,0.0,0.0,0.0,0.0,-2.3581,-2.2977,-2.2141,-2.13,0.0,0.0,0.0,0.0,0.0,0.0,0.0,0.0,0.0,0.0,0.0,0.0,0.0,0.0,0.0,0.0,0.0,0.0,0.0,0.0,0.0,0.0,0.0,0.0,0.0,0.0,0.0,0.0,0.0,0.0,0.0,0.0,0.0,0.0,-1.7666,-1.8301,-1.8443,-1.8797,-1.9137,-1.9366,-1.9524,-1.9569,-1.9497,-1.9747,-1.9904,-1.9912,-1.9906,-1.9962,-2.0272,-2.0004,-1.9886,-2.0043,-1.9873,-1.9891,-1.9899,-1.9517,-1.9383,-1.9583,-1.9604,-1.9725,-1.983,-1.983,-1.9697,-1.9463,-1.8925,-1.827,-1.7495,-1.7293,-1.6901,-1.6513,-1.6319,-1.6218,-1.601,0.0,0.0,0.0,0.0,0.0,0.0,0.0,0.0,0.0,0.0,-1.8498,-1.9041,-1.9737,-2.0355,-2.0914,-2.1461,-2.2129,-2.274,-2.3275,-2.3171,0.0,0.0,0.0,0.0,0.0,0.0,0.0,0.0,0.0,0.0,0.0,0.0,0.0,0.0,0.0,0.0,0.0,0.0,0.0,0.0,-2.4429,-2.3546,-2.2252,0.0,0.0,0.0,0.0,0.0,0.0,0.0,0.0,0.0,0.0,0.0,0.0,0.0,0.0,0.0,0.0,0.0,0.0,0.0,0.0,0.0,0.0,0.0,0.0,0.0,0.0,0.0,0.0,0.0,0.0,0.0,0.0,0.0,-1.8221,-1.8992,-1.9566,-1.963,-2.027,-2.0542,-2.0316,-2.0516,-2.0631,-2.0474,-2.0911,-2.1171,-2.0934,-2.0974,-2.0983,-2.0735,-2.0435,-2.0303,-2.044,-2.0484,-2.05,-2.0605,-2.061,-2.0441,-2.0237,-2.0245,-2.004,-1.9828,-1.9835,-1.9505,-1.894,-1.8933,-1.8719,-1.8417,-1.7535,-1.6919,-1.6377,-1.6371,-1.596,-1.5549,0.0,0.0,0.0,0.0,0.0,0.0,0.0,0.0,0.0,0.0,-1.8416,-1.9006,-1.9609,-2.0623,-2.1342,-2.1414,-2.2348,-2.2981,-2.3157,0.0,0.0,0.0,0.0,0.0,0.0,0.0,0.0,0.0,0.0,0.0,0.0,0.0,0.0,0.0,0.0,0.0,0.0,0.0,0.0,0.0,-2.5374,-2.4455,-2.3399,0.0,0.0,0.0,0.0,0.0,0.0,0.0,0.0,0.0,0.0,0.0,0.0,0.0,0.0,0.0,0.0,0.0,0.0,0.0,0.0,0.0,0.0,0.0,0.0,0.0,0.0,0.0,0.0,0.0,0.0,0.0,-1.966,-1.9861,-1.9239,-1.9668,-2.0178,-2.0695,-2.0996,-2.1284,-2.1692,-2.159,-2.157,-2.1671,-2.1705,-2.1787,-2.2154,-2.1778,-2.1769,-2.2196,-2.1804,-2.1433,-2.1204,-2.0986,-2.0864,-2.0632,-2.0404,-2.023,-2.0245,-2.0479,-2.0373,-2.0172,-2.0161,-1.9911,-1.9549,-1.9111,-1.8917,-1.8758,-1.8303,-1.7846,-1.7557,-1.7347,-1.6913,-1.6369,0.0,0.0,0.0,0.0,0.0,0.0,0.0,0.0,0.0,0.0,-1.859,-1.9271,-1.9581,-2.0748,-2.1454,-2.1307,-2.2395,-2.3082,-2.3037,0.0,0.0,0.0,0.0,0.0,0.0,0.0,0.0,0.0,0.0,0.0,0.0,0.0,0.0,0.0,0.0,0.0,0.0,0.0,0.0,0.0,0.0,-2.5333,-2.4346,-2.4101,-2.3374,-2.238,-2.1922,-2.1513,-2.108,-2.0004,0.0,0.0,0.0,0.0,0.0,0.0,0.0,0.0,0.0,0.0,0.0,0.0,0.0,0.0,0.0,0.0,0.0,0.0,0.0,0.0,0.0,0.0,0.0,0.0,-2.0867,-2.1233,-2.1095,-2.1176,-2.148,-2.1902,-2.2092,-2.2325,-2.2777,-2.2609,-2.2592,-2.2877,-2.2766,-2.2745,-2.2989,-2.249,-2.2369,-2.279,-2.2272,-2.185,-2.1518,-2.1347,-2.1088,-2.0758,-2.0685,-2.0647,-2.0647,-2.0837,-2.0699,-2.0253,-2.0315,-2.0046,-1.9577,-1.9293,-1.9112,-1.9072,0.0,0.0,0.0,0.0,-1.7036,-1.67,0.0,0.0,0.0,0.0,0.0,0.0,0.0,0.0,0.0,0.0,0.0,-1.9654,-1.9574,-2.0635,-2.1325,-2.1211,-2.2279,-2.2994,0.0,0.0,0.0,0.0,0.0,0.0,0.0,0.0,0.0,0.0,0.0,0.0,0.0,0.0,0.0,0.0,0.0,0.0,0.0,0.0,0.0,0.0,0.0,-2.6139,-2.5025,-2.4908,-2.4364,-2.3628,-2.2835,-2.2237,-2.168,-2.0771,0.0,0.0,0.0,0.0,0.0,0.0,0.0,0.0,0.0,0.0,0.0,0.0,0.0,0.0,0.0,0.0,0.0,0.0,0.0,0.0,0.0,0.0,0.0,0.0,-2.1806,-2.2422,-2.333,-2.3181,-2.3038,-2.3218,-2.3336,-2.3453,-2.3703,-2.3583,-2.3538,-2.3976,-2.38,-2.3691,-2.3725,-2.3185,0.0,0.0,0.0,-2.1968,-2.1527,-2.1616,-2.1435,-2.1108,-2.1178,-2.1211,-2.1211,-2.1211,-2.0859,-2.027,-2.027,-1.9931,-1.9366,-1.9366,-1.9366,-1.9319,-1.8791,-1.8138,-1.7578,-1.7016,-1.6791,-1.6791,0.0,0.0,0.0,0.0,0.0,0.0,0.0,0.0,0.0,-1.7747,-1.8812,-1.9574,-1.9465,-2.0029,-2.0611,-2.1,-2.1771,-2.2614,0.0,0.0,0.0,0.0,0.0,0.0,0.0,0.0,0.0,0.0,0.0,0.0,0.0,0.0,0.0,0.0,0.0,0.0,0.0,0.0,0.0,0.0,0.0,0.0,-2.5448,-2.5261,-2.4661,-2.3908,-2.3745,-2.3441,-2.2953,-2.1937,-2.1419,-2.102,-2.0157,0.0,0.0,0.0,0.0,0.0,0.0,0.0,0.0,0.0,0.0,0.0,0.0,0.0,0.0,0.0,0.0,0.0,0.0,0.0,0.0,-2.2944,-2.326,-2.3848,-2.5068,-2.4842,-2.4477,-2.4562,-2.4259,-2.4306,-2.495,-2.4562,-2.4313,-2.4393,-2.3956,-2.3819,-2.411,-2.357,-2.3384,-2.3698,-2.3142,-2.2584,-2.2022,-2.1986,-2.1677,-2.1229,-2.1174,0.0,-2.1211,-2.1211,-2.0859,-2.027,-2.027,-1.9931,-1.9366,-1.9366,-1.9366,-1.9352,-1.8995,-1.8603,-1.8147,-1.7921,-1.7573,-1.7334,0.0,0.0,0.0,0.0,0.0,0.0,0.0,0.0,0.0,0.0,-1.851,-1.9182,-1.9384,-1.9874,-2.0425,-2.0944,-2.1874,0.0,0.0,0.0,0.0,0.0,0.0,0.0,0.0,0.0,0.0,0.0,0.0,0.0,0.0,0.0,0.0,0.0,0.0,0.0,0.0,0.0,0.0,0.0,0.0,0.0,-2.6164,-2.6037,-2.5485,-2.4779,-2.4309,-2.401,-2.3756,-2.2763,-2.2133,-2.1713,-2.1077,-2.0385,-1.9791,0.0,0.0,0.0,0.0,0.0,0.0,0.0,0.0,0.0,0.0,0.0,0.0,0.0,0.0,-2.1597,0.0,0.0,-2.3313,-2.3712,-2.4382,-2.499,-2.5644,-2.5599,-2.5557,-2.5557,-2.5061,-2.5005,-2.561,-2.5128,-2.489,-2.5085,-2.4572,-2.4342,-2.4513,-2.3971,-2.3723,-2.3913,-2.3352,-2.2788,-2.2343,-2.223,-2.1888,-2.1439,-2.1325,-2.1211,-2.1218,-2.1379,-2.1213,-2.0741,-2.0779,-2.0413,-1.98,-1.9542,-1.9366,-1.9366,-1.9243,-1.9004,-1.8648,-1.82,-1.7849,-1.7726,0.0,0.0,0.0,0.0,0.0,0.0,0.0,0.0,0.0,0.0,0.0,-1.8776,-1.9354,-1.9757,-2.0254,0.0,0.0,0.0,0.0,0.0,0.0,0.0,0.0,0.0,0.0,0.0,0.0,0.0,0.0,0.0,0.0,0.0,0.0,0.0,0.0,0.0,0.0,0.0,0.0,0.0,0.0,0.0,-2.6857,-2.6797,-2.6237,-2.5475,-2.4704,-2.4422,-2.4269,-2.3384,-2.275,-2.2391,-2.1984,-2.1316,-2.0534,-2.0284,-1.9861,0.0,0.0,0.0,0.0,0.0,0.0,0.0,0.0,0.0,-2.1261,-2.1559,-2.2387,-2.3062,-2.3176,-2.3786,-2.4385,-2.4465,-2.5281,-2.6016,-2.6103,-2.6193,-2.6333,-2.6409,-2.5936,-2.5637,-2.6041,-2.5541,-2.5351,-2.5661,-2.5145,-2.4821,-2.4821,-2.4256,-2.3921,-2.3921,-2.3352,-2.2901,-2.257,-2.2291,-2.2101,-2.1765,-2.1487,-2.1401,-2.1408,-2.1672,-2.1664,-2.1303,-2.1202,-2.0934,-2.0335,-1.9861,-1.965,-1.9539,-1.9539,-1.9409,-1.9037,-1.8466,-1.8083,-1.7972,0.0,0.0,0.0,0.0,0.0,0.0,0.0,0.0,0.0,0.0,0.0,0.0,0.0,0.0,0.0,0.0,0.0,0.0,0.0,0.0,0.0,0.0,0.0,0.0,0.0,0.0,0.0,0.0,0.0,0.0,0.0,0.0,0.0,0.0,0.0,0.0,0.0,0.0,0.0,0.0,0.0,0.0,-2.7385,-2.7188,-2.6408,-2.5312,-2.5122,-2.4898,-2.4625,-2.3851,-2.3444,-2.3121,-2.2214,-2.1878,-2.1789,-2.1375,0.0,-2.1265,-2.1265,-2.1265,-2.1385,-2.1865,-2.1722,-2.169,0.0,0.0,-2.3018,-2.3474,-2.4291,-2.4856,-2.4733,-2.5523,-2.6119,-2.5873,-2.6468,-2.7002,-2.7393,-2.7007,-2.6882,-2.7242,-2.6435,-2.6059,-2.6481,-2.5963,-2.5634,-2.5679,-2.5145,-2.4821,-2.4821,-2.4256,-2.3921,-2.3921,-2.3352,-2.2901,-2.257,-2.2529,-2.2326,-2.2101,-2.2053,-2.2074,-2.2074,-2.2111,-2.1998,-2.1618,-2.1293,-2.0932,-2.0657,-2.0623,-2.0375,-2.0134,-2.0134,-2.0134,-1.9947,-1.907,-1.8428,-1.7972,0.0,0.0,0.0,0.0,0.0,0.0,0.0,0.0,0.0,0.0,0.0,0.0,0.0,0.0,0.0,0.0,0.0,0.0,0.0,0.0,0.0,0.0,0.0,0.0,0.0,0.0,0.0,0.0,0.0,0.0,0.0,0.0,0.0,0.0,0.0,0.0,0.0,0.0,0.0,0.0,0.0,0.0,-2.7434,-2.6919,-2.6118,-2.5241,-2.5052,-2.4861,0.0,0.0,-2.3743,-2.3303,-2.288,-2.2468,-2.208,-2.1879,-2.1705,0.0,-2.1931,-2.2215,-2.2531,0.0,-2.3252,-2.3445,-2.3849,-2.4189,-2.4436,-2.4633,-2.5171,-2.5692,-2.6054,-2.6324,-2.656,-2.6775,-2.7186,-2.7461,-2.7637,-2.7554,-2.7447,-2.7413,-2.6948,-2.6596,-2.6573,-2.6245,-2.5907,-2.5679,-2.5238,-2.4915,-2.4821,-2.4376,-2.4244,-2.4226,-2.378,-2.3534,-2.3502,-2.3302,-2.3012,-2.2659,-2.2572,-2.2408,-2.2191,-2.2359,-2.2413,-2.2205,-2.1904,-2.1582,-2.1331,-2.1029,-2.0832,-2.047,-2.047,-2.0348,-2.0079,-1.9601,-1.9276,-1.9043,0.0,0.0,0.0,0.0,0.0,0.0,0.0,0.0,0.0,0.0,0.0,0.0,0.0,0.0,0.0,0.0,0.0,0.0,0.0,0.0,0.0,0.0,0.0,0.0,0.0,0.0,0.0,0.0,0.0,0.0,0.0,0.0,0.0,0.0,0.0,0.0,0.0,0.0,0.0,0.0,0.0,0.0,-2.7213,-2.6542,-2.5924,-2.5241,-2.4921,-2.4696,0.0,0.0,-2.3741,-2.3349,-2.3282,-2.2888,-2.2495,-2.236,-2.2247,-2.2291,-2.2783,-2.3252,0.0,-2.4203,-2.4632,-2.4945,-2.5083,-2.5385,-2.5606,-2.5606,-2.6051,-2.6558,-2.7047,-2.7181,-2.7261,-2.7682,-2.786,-2.7947,-2.7842,-2.7883,-2.7853,-2.7539,-2.7206,-2.689,-2.6682,-2.6354,-2.6017,-2.5688,-2.534,-2.5128,-2.4821,-2.458,-2.4532,-2.4572,-2.4335,-2.4158,-2.429,-2.3905,-2.3596,-2.3357,-2.3217,-2.2909,-2.2568,-2.2659,-2.2762,-2.2724,-2.2493,-2.2276,-2.1885,-2.1659,-2.1446,-2.108,-2.108,-2.0835,-2.0597,-2.0358,-2.0143,-1.9761,0.0,0.0,0.0,0.0,0.0,0.0,0.0,0.0,0.0,0.0,0.0,0.0,0.0,0.0,0.0,0.0,0.0,0.0,0.0,0.0,0.0,0.0,0.0,0.0,0.0,0.0,0.0,0.0,0.0,0.0,0.0,0.0,0.0,0.0,0.0,0.0,0.0,0.0,0.0,0.0,0.0,0.0,-2.6662,-2.6263,-2.5769,-2.5241,-2.4921,0.0,0.0,0.0,-2.3383,-2.3292,-2.2857,-2.3081,0.0,-2.2916,-2.3231,-2.3777,-2.429,0.0,-2.5229,-2.571,-2.5861,-2.5987,-2.6445,-2.6561,-2.6527,-2.6527,-2.7241,-2.7872,-2.7903,-2.8348,-2.8757,-2.8458,-2.8525,-2.8601,-2.8271,-2.8057,-2.7853,-2.7853,-2.7314,-2.6989,-2.6989,-2.6455,-2.6017,-2.5688,-2.534,-2.5128,-2.4821,-2.4808,-2.4889,-2.4897,-2.468,-2.4643,-2.4533,-2.4269,-2.4073,-2.4081,-2.4048,-2.3829,-2.3581,-2.3216,-2.3098,-2.3106,-2.3098,-2.2849,-2.2591,-2.2584,-2.2327,-2.2083,-2.2083,-2.1832,-2.158,-2.158,-2.0852,-1.9761,0.0,0.0,0.0,0.0,0.0,0.0,0.0,0.0,0.0,0.0,0.0,0.0,0.0,0.0,0.0,0.0,0.0,0.0,0.0,0.0,0.0,0.0,0.0,0.0,0.0,0.0,0.0,0.0,0.0,0.0,0.0,0.0,0.0,0.0,0.0,0.0,0.0,0.0,0.0,0.0,0.0,0.0,-2.6564,-2.5465,-2.4939,-2.4677,0.0,0.0,0.0,0.0,0.0,0.0,-2.3236,-2.3353,-2.3553,-2.3422,-2.3788,-2.441,-2.5207,0.0,-2.5841,-2.6638,-2.6931,-2.7061,-2.7051,-2.7167,-2.7212,-2.7118,-2.7272,-2.7572,-2.7872,-2.8143,-2.8452,-2.8438,-2.865,-2.8631,-2.8291,-2.8184,-2.8067,-2.796,-2.753,-2.7206,-2.6989,-2.6682,-2.6354,-2.6017,-2.5679,-2.5462,-2.5509,-2.53,-2.5371,-2.5637,-2.5299,-2.5242,-2.5246,-2.4873,-2.4684,-2.4439,-2.4178,-2.3984,-2.386,-2.3611,-2.3487,-2.3355,-2.323,-2.2988,-2.2988,-2.2988,-2.2738,-2.2487,-2.2487,-2.2237,-2.1985,-2.1985,-2.1484,-2.094,0.0,0.0,0.0,0.0,0.0,0.0,0.0,0.0,0.0,0.0,0.0,0.0,0.0,0.0,0.0,0.0,0.0,0.0,0.0,0.0,0.0,0.0,0.0,0.0,0.0,0.0,0.0,0.0,0.0,0.0,0.0,0.0,0.0,0.0,0.0,0.0,0.0,0.0,0.0,0.0,0.0,0.0,-2.5706,-2.4655,-2.4254,0.0,0.0,0.0,0.0,0.0,0.0,-2.3167,-2.3167,-2.3478,-2.3888,-2.3985,-2.4544,-2.5164,-2.595,-2.6409,-2.6813,-2.7424,-2.7757,-2.7931,-2.7757,-2.7609,-2.7536,-2.7441,-2.7482,-2.7583,-2.7872,-2.8109,-2.838,-2.8624,-2.8625,-2.8549,-2.8495,-2.8398,-2.8291,-2.8067,-2.7745,-2.7422,-2.7206,-2.6899,-2.6573,-2.6127,-2.6033,-2.5998,-2.5804,-2.5855,-2.6003,-2.6135,-2.603,-2.5852,-2.5725,-2.548,-2.5111,-2.4734,-2.4479,-2.4232,-2.4232,-2.3984,-2.3736,-2.3736,-2.3611,-2.3487,-2.3487,-2.3362,-2.3106,-2.2981,-2.2863,-2.2606,-2.2237,-2.2237,-2.2111,-2.1734,0.0,0.0,0.0,0.0,0.0,0.0,0.0,0.0,0.0,0.0,0.0,0.0,0.0,0.0,0.0,0.0,0.0,0.0,0.0,0.0,0.0,0.0,0.0,0.0,0.0,0.0,0.0,0.0,0.0,0.0,0.0,0.0,0.0,0.0,0.0,0.0,0.0,0.0,0.0,0.0,0.0,0.0,-2.4235,-2.3869,0.0,0.0,0.0,0.0,0.0,0.0,0.0,0.0,-2.2765,-2.3523,-2.4401,-2.4659,-2.5337,-2.6048,-2.6562,-2.7359,-2.8047,-2.8069,-2.8234,-2.8395,-2.8395,-2.8019,-2.7631,-2.7631,-2.7785,-2.7883,0.0,0.0,-2.8631,-2.8778,-2.8664,-2.8525,-2.8638,-2.8495,-2.8291,0.0,0.0,0.0,0.0,-2.7206,-2.6781,-2.6154,-2.6496,-2.6498,-2.5987,-2.658,-2.6863,-2.6516,-2.6627,-2.6449,-2.6075,-2.5725,-2.548,-2.5111,-2.4734,-2.461,-2.461,-2.4232,-2.4108,-2.4108,-2.4108,-2.4108,-2.4108,-2.3736,-2.3611,-2.3604,-2.3238,-2.2988,-2.2606,-2.2613,-2.2355,-2.2111,0.0,0.0,0.0,0.0,0.0,0.0,0.0,0.0,0.0,0.0,0.0,0.0,0.0,0.0,0.0,0.0,0.0,0.0,0.0,0.0,0.0,0.0,0.0,0.0,0.0,0.0,0.0,0.0,0.0,0.0,0.0,0.0,0.0,0.0,0.0,0.0,0.0,0.0,0.0,0.0,0.0,0.0,-2.4251,0.0,0.0,0.0,0.0,0.0,0.0,0.0,0.0,0.0,0.0,-2.4589,-2.5216,-2.568,-2.619,-2.6766,-2.7446,-2.7861,-2.8123,-2.8484,-2.8669,-2.8675,-2.8488,-2.8102,-2.7809,-2.7631,-2.7535,-2.7427,0.0,0.0,0.0,-2.788,-2.8259,0.0,-2.8232,-2.8202,0.0,-2.8291,0.0,-2.7745,-2.7431,-2.7206,-2.7011,-2.6884,-2.677,-2.6852,-2.7338,-2.7103,-2.7103,-2.7245,-2.6875,-2.6571,-2.6449,-2.5847,-2.561,-2.548,-2.5111,-2.498,-2.4988,-2.461,-2.4487,-2.4487,-2.4232,-2.4108,-2.4108,-2.3984,-2.3984,-2.3984,-2.3611,-2.3355,-2.3355,-2.3106,-2.2738,-2.2487,0.0,0.0,0.0,0.0,0.0,0.0,0.0,0.0,0.0,0.0,0.0,0.0,0.0,0.0,0.0,0.0,0.0,0.0,0.0,0.0,0.0,0.0,0.0,0.0,0.0,0.0,0.0,0.0,0.0,0.0,0.0,0.0,0.0,0.0,0.0,0.0,0.0,0.0,0.0,0.0,0.0,0.0,0.0,0.0,0.0,0.0,0.0,0.0,0.0,0.0,0.0,-2.2937,-2.4379,-2.5062,-2.5509,-2.6177,0.0,-2.7348,-2.7839,-2.8189,-2.8418,-2.8691,-2.8757,-2.8757,-2.8571,-2.8222,-2.7782,-2.7503,-2.7159,0.0,-2.6744,-2.6858,0.0,0.0,0.0,0.0,-2.8201,-2.8177,-2.8192,0.0,-2.8184,0.0,-2.7638,-2.7474,-2.7537,-2.7632,-2.7313,-2.735,-2.7867,-2.7603,-2.7432,-2.7513,-2.7056,-2.67,-2.6571,-2.6083,-2.5725,-2.561,-2.5365,-2.5234,-2.5111,-2.4865,-2.4857,-2.4857,-2.461,-2.4487,-2.4487,-2.4363,-2.4355,-2.4239,-2.3984,-2.386,-2.386,-2.3611,-2.3362,-2.2981,0.0,0.0,0.0,0.0,0.0,0.0,0.0,0.0,0.0,0.0,0.0,0.0,0.0,0.0,0.0,0.0,0.0,0.0,0.0,0.0,0.0,0.0,0.0,0.0,0.0,0.0,0.0,0.0,0.0,0.0,0.0,0.0,0.0,0.0,0.0,0.0,0.0,0.0,0.0,0.0,0.0,0.0,0.0,0.0,0.0,0.0,0.0,0.0,0.0,0.0,-2.2731,-2.3041,-2.4545,-2.5276,-2.5791,-2.6521,-2.7231,-2.7889,-2.8094,-2.844,-2.8757,-2.8757,-2.8757,-2.8735,-2.868,-2.8158,-2.7651,-2.7302,0.0,-2.6145,-2.5976,-2.5875,-2.6144,-2.6941,0.0,-2.7094,-2.8055,-2.8068,-2.8003,-2.8164,-2.8262,-2.8184,-2.796,-2.801,-2.8106,-2.8191,-2.8048,-2.7906,-2.8074,-2.8072,-2.7891,-2.7521,-2.7185,-2.6952,-2.67,-2.6327,-2.5961,-2.5725,-2.5725,-2.548,-2.5111,-2.5111,-2.5111,-2.5111,-2.5111,-2.5111,-2.5111,-2.4734,-2.461,-2.461,-2.4355,-2.4108,-2.4108,-2.4108,-2.386,-2.3611,0.0,0.0,0.0,0.0,0.0,0.0,0.0,0.0,0.0,0.0,-1.9697,-1.9596,0.0,0.0,0.0,0.0,0.0,0.0,0.0,0.0,0.0,0.0,0.0,0.0,0.0,0.0,0.0,0.0,0.0,0.0,0.0,0.0,0.0,0.0,0.0,0.0,0.0,0.0,0.0,0.0,0.0,0.0,0.0,0.0,0.0,0.0,0.0,0.0,0.0,0.0,-2.296,-2.358,-2.5096,-2.613,-2.6999,-2.7588,-2.8098,-2.8567,-2.869,-2.8691,-2.8757,-2.8757,-2.8757,-2.8648,-2.8254,-2.792,0.0,0.0,-2.6478,-2.6145,-2.5976,-2.5875,-2.5927,-2.6092,0.0,0.0,0.0,-2.7491,-2.7999,0.0,-2.8086,-2.8184,-2.796,-2.801,-2.8106,-2.8191,-2.821,-2.8462,-2.8737,-2.86,-2.8148,-2.7521,-2.7185,-2.7073,-2.7073,-2.67,-2.6449,-2.6457,-2.6205,-2.5839,-2.548,-2.548,-2.5357,-2.5111,-2.5111,-2.5111,-2.5111,-2.4988,-2.498,-2.4988,-2.461,-2.4479,-2.4487,-2.4232,-2.4108,-2.3984,0.0,0.0,0.0,0.0,0.0,0.0,0.0,-1.9694,-1.9934,-2.007,-1.9975,-1.9884,-1.9762,-1.9669,-1.9538,0.0,0.0,0.0,0.0,0.0,0.0,0.0,0.0,0.0,0.0,0.0,-1.9732,-2.0125,0.0,0.0,0.0,-2.1619,-2.1903,0.0,0.0,0.0,0.0,0.0,0.0,0.0,0.0,0.0,0.0,0.0,0.0,0.0,0.0,0.0,0.0,0.0,-2.3018,-2.3635,-2.5233,-2.6048,-2.6657,-2.7689,-2.812,-2.8377,-2.8745,-2.8757,-2.8757,-2.8757,-2.8571,-2.8331,-2.8091,0.0,0.0,0.0,-2.5412,-2.4904,-2.4563,0.0,0.0,0.0,0.0,0.0,0.0,0.0,0.0,-2.7741,-2.8037,-2.8291,-2.8077,-2.8439,-2.8566,-2.8437,-2.8807,-2.9018,-2.8975,-2.8507,-2.802,-2.7521,-2.7185,-2.7073,-2.7073,-2.6943,-2.6822,-2.6571,-2.6449,-2.6197,-2.5839,-2.5839,-2.5717,-2.5594,-2.5594,-2.5594,-2.5594,-2.5594,-2.5472,-2.5357,-2.5234,-2.498,-2.4857,-2.4734,-2.4487,-2.4363,0.0,0.0,0.0,0.0,0.0,0.0,0.0,-2.01,-2.0339,-2.0185,-2.008,-1.999,-1.9848,-1.9705,-1.9574,0.0,0.0,0.0,0.0,0.0,0.0,0.0,0.0,0.0,0.0,0.0,0.0,-1.9587,-2.0112,0.0,0.0,0.0,0.0,0.0,-2.1238,-2.1314,0.0,0.0,0.0,0.0,0.0,-2.0631,0.0,0.0,0.0,0.0,0.0,0.0,0.0,0.0,-2.2857,-2.3523,-2.4946,-2.5681,-2.6291,-2.7487,-2.7953,-2.8188,-2.858,-2.8604,-2.8604,-2.8604,-2.8244,-2.7839,-2.7632,-2.6704,0.0,0.0,-2.4339,-2.3668,-2.3265,0.0,-2.3877,0.0,-2.5068,0.0,0.0,0.0,0.0,0.0,-2.79,0.0,-2.8281,-2.8742,-2.8907,-2.8681,-2.91,-2.9331,-2.8984,-2.8379,-2.79,-2.7642,-2.7297,-2.7194,-2.7073,-2.7073,-2.6952,-2.67,-2.67,-2.6571,-2.6197,-2.6197,-2.6197,-2.6075,-2.6075,-2.6075,-2.6075,-2.6075,-2.5953,-2.5725,-2.5725,-2.5602,-2.5349,-2.5234,-2.498,-2.4857,0.0,0.0,0.0,0.0,0.0,0.0,0.0,-2.0395,-2.0388,-2.0304,-2.015,-2.0045,-1.999,-1.9812,-1.9654,0.0,0.0,0.0,0.0,0.0,0.0,0.0,0.0,0.0,0.0,0.0,0.0,-1.8973,-1.9513,0.0,0.0,0.0,0.0,0.0,0.0,-2.0602,-2.0335,0.0,0.0,0.0,0.0,0.0,0.0,0.0,0.0,0.0,0.0,0.0,0.0,0.0,0.0,-2.2937,-2.4005,-2.5601,-2.7138,-2.7273,0.0,0.0,-2.817,-2.8102,-2.8102,-2.8102,-2.7741,-2.7151,-2.6299,0.0,0.0,-2.4207,-2.3881,-2.3668,-2.3265,-2.3225,-2.3401,0.0,0.0,-2.481,0.0,0.0,0.0,0.0,0.0,0.0,-2.8252,-2.8742,-2.8907,-2.8681,-2.8876,-2.8984,-2.8984,-2.8636,-2.8268,-2.8011,-2.7642,-2.7297,-2.7073,-2.7073,-2.7073,-2.7073,-2.7073,-2.6822,-2.6571,-2.6571,-2.6441,-2.6075,-2.6075,-2.6075,-2.6075,-2.6075,-2.6075,-2.6075,-2.6075,-2.6075,-2.5953,-2.5725,-2.5488,-2.548,0.0,0.0,0.0,0.0,0.0,0.0,-2.0387,-2.0475,-2.0441,-2.0304,-2.0185,-2.008,-2.0005,-1.9848,-1.9741,-1.9611,0.0,0.0,0.0,0.0,0.0,0.0,0.0,0.0,0.0,0.0,-1.8452,-1.9017,-1.9475,0.0,0.0,0.0,0.0,0.0,0.0,-2.0448,-2.0182,-2.0131,0.0,0.0,0.0,0.0,0.0,0.0,0.0,0.0,0.0,0.0,0.0,0.0,0.0,0.0,-2.3775,-2.4751,0.0,0.0,-2.7334,-2.7863,-2.7612,-2.7599,-2.7599,-2.7599,-2.7031,-2.6365,-2.5994,0.0,-2.4083,-2.3182,-2.2666,-2.2237,-2.2018,-2.217,-2.2511,-2.2977,0.0,0.0,-2.5043,0.0,0.0,-2.729,-2.7599,0.0,-2.8252,-2.8962,-2.9447,-2.9392,-2.9155,-2.8984,-2.8984,-2.8636,-2.8397,-2.802,-2.7642,-2.7409,-2.7073,-2.7073,-2.7073,-2.7073,-2.7073,-2.7073,-2.6943,-2.6943,-2.6822,-2.67,-2.67,-2.67,-2.67,-2.67,-2.6571,-2.6449,-2.6449,-2.6319,-2.6075,-2.5961,-2.5961,-2.5839,0.0,0.0,0.0,0.0,0.0,-1.9972,-2.0434,-2.0494,-2.046,-2.0304,-2.022,-2.0115,-2.0005,-1.9919,-1.9812,-1.9632,-1.9487,0.0,0.0,0.0,0.0,0.0,0.0,0.0,0.0,0.0,-1.8713,-1.91,-1.9683,-2.0116,0.0,0.0,-2.0898,-2.0762,0.0,0.0,0.0,0.0,0.0,0.0,0.0,0.0,0.0,0.0,0.0,0.0,0.0,0.0,0.0,0.0,0.0,0.0,0.0,0.0,0.0,0.0,-2.6461,-2.6892,-2.6856,-2.6791,-2.6715,-2.6856,-2.6179,-2.5448,0.0,0.0,-2.2993,-2.2211,-2.1597,-2.1125,-2.0907,-2.129,-2.1756,0.0,0.0,-2.431,-2.4757,0.0,0.0,0.0,0.0,-2.7695,-2.8242,-2.8962,-2.9478,-2.9865,-2.934,-2.8984,-2.8984,-2.8746,-2.8388,-2.802,-2.7771,-2.7418,-2.7073,-2.7073,-2.7073,-2.7073,-2.7073,-2.7073,-2.7073,-2.7073,-2.7073,-2.7073,-2.7073,-2.7073,-2.7073,-2.7073,-2.6952,-2.67,-2.67,-2.6571,-2.6327,-2.6319,-2.6197,-2.6197,0.0,0.0,0.0,0.0,0.0,0.0,-2.0434,-2.0494,-2.046,-2.0304,-2.0304,-2.0235,-2.0041,-2.0005,-1.9919,-1.9726,-1.9523,0.0,0.0,0.0,0.0,0.0,0.0,0.0,0.0,0.0,-1.9225,-1.91,-2.0168,-2.0588,-2.0422,-2.0828,-2.0961,-2.0888,0.0,0.0,0.0,0.0,0.0,0.0,0.0,0.0,0.0,0.0,0.0,0.0,0.0,0.0,0.0,0.0,0.0,0.0,0.0,0.0,0.0,0.0,-2.5452,-2.5864,-2.587,-2.5568,-2.5306,-2.5797,-2.5207,-2.4298,0.0,0.0,-2.2424,-2.1587,-2.1041,-2.0644,-2.0431,-2.0803,-2.1269,-2.1735,-2.2594,0.0,-2.4666,-2.4977,0.0,0.0,0.0,-2.7353,-2.8213,-2.8521,-2.8917,-2.9865,-2.934,-2.8984,-2.8984,-2.8984,-2.8746,-2.802,-2.802,-2.7668,-2.7073,-2.7073,-2.7073,-2.7073,-2.7073,-2.7073,-2.7073,-2.7073,-2.7073,-2.7073,-2.7073,-2.7073,-2.7073,-2.7073,-2.7073,-2.7073,-2.7073,-2.7073,-2.7073,-2.67,-2.6571,-2.6571,0.0,0.0,0.0,0.0,0.0,0.0,0.0,-2.0494,-2.046,-2.0304,-2.0304,-2.0235,-2.0041,-2.0005,-1.9919,-1.9726,-1.9523,0.0,0.0,0.0,0.0,0.0,0.0,0.0,0.0,0.0,-1.9433,-1.9722,-2.0374,-2.0792,-2.0973,-2.0953,-2.0961,-2.0888,-2.0762,-2.0498,0.0,0.0,0.0,0.0,0.0,0.0,-1.9328,0.0,0.0,0.0,0.0,0.0,0.0,0.0,0.0,0.0,0.0,0.0,0.0,0.0,0.0,0.0,-2.4883,-2.4825,-2.4738,-2.4902,-2.4124,-2.3297,-2.3059,0.0,-2.1153,-2.0628,-2.0278,-2.0045,-1.9965,-2.0338,-2.0793,-2.1259,-2.2377,0.0,0.0,0.0,0.0,-2.7181,-2.7727,-2.8116,-2.8752,-2.8754,-2.8917,-2.962,-2.9213,-2.8984,-2.8984,-2.8984,-2.8737,-2.802,-2.802,-2.7668,-2.7073,-2.7073,-2.7073,-2.7073,-2.7073,-2.7073,-2.7073,-2.7073,-2.7073,-2.7073,-2.7073,-2.7073,-2.7073,-2.7073,-2.7073,-2.7073,-2.7073,-2.7073,-2.7073,-2.6952,-2.6943,-2.6943,0.0,0.0,0.0,0.0,0.0,0.0,0.0,-2.0494,-2.046,-2.0304,-2.0304,-2.0235,-2.0041,-2.0005,-1.9919,-1.9726,-1.9523,0.0,0.0,0.0,0.0,0.0,0.0,0.0,0.0,-1.9473,-1.9921,-2.0343,-2.0859,-2.1152,-2.1277,-2.1082,-2.0997,-2.0924,-2.0762,-2.0549,0.0,0.0,0.0,0.0,0.0,0.0,-1.9473,0.0,0.0,0.0,0.0,0.0,0.0,0.0,0.0,0.0,0.0,0.0,0.0,0.0,-2.236,0.0,0.0,-2.3536,-2.3438,-2.3525,-2.2917,0.0,0.0,0.0,-2.0369,-2.0017,-1.976,-1.9619,-1.9796,-2.012,-2.0576,-2.1041,-2.2195,0.0,0.0,0.0,0.0,-2.709,-2.7868,-2.8524,-2.9045,-2.8794,-2.8803,-2.9502,-2.9213,-2.8984,-2.8984,-2.8865,-2.8507,-2.802,-2.802,-2.7668,-2.7073,-2.7073,-2.7073,-2.7073,-2.7073,-2.7073,-2.7073,-2.7073,-2.7073,-2.7073,-2.7073,-2.7073,0.0,-2.7073,-2.7073,-2.7073,-2.7073,-2.7073,-2.7073,-2.7073,-2.7073,-2.7073,0.0,0.0,0.0,0.0,0.0,0.0,0.0,-2.0494,-2.046,-2.0304,-2.0304,-2.0235,-2.0041,-2.0005,-1.9919,-1.9726,0.0,0.0,0.0,0.0,0.0,0.0,0.0,0.0,-1.9579,-2.0147,-2.0592,-2.0896,-2.1545,-2.1719,-2.1477,-2.1238,-2.1116,-2.1116,-2.0878,-2.0651,0.0,0.0,0.0,0.0,0.0,0.0,0.0,0.0,0.0,0.0,0.0,0.0,0.0,0.0,0.0,0.0,0.0,0.0,0.0,0.0,0.0,0.0,0.0,0.0,0.0,0.0,0.0,0.0,0.0,0.0,0.0,-1.9785,-1.9375,-1.921,-1.9744,-2.012,-2.0514,-2.1083,0.0,0.0,0.0,-2.4466,0.0,0.0,-2.7773,-2.8515,-2.9045,-2.8794,-2.8794,-2.9384,-2.9213,-2.8984,-2.8984,-2.8636,-2.8397,-2.802,-2.8011,-2.7668,-2.7073,-2.7073,-2.7073,-2.7073,-2.7073,-2.7073,-2.7073,-2.7047,-2.703,-2.703,-2.7004,-2.6996,-2.6996,-2.6996,-2.6996,-2.6996,-2.6996,-2.6996,-2.6996,-2.6996,-2.6996,-2.6996,0.0,0.0,0.0,0.0,0.0,0.0,0.0,0.0,0.0,0.0,-2.0304,-2.0235,-2.0041,-2.0005,-1.9919,0.0,0.0,0.0,0.0,0.0,0.0,0.0,0.0,0.0,-1.9672,-2.0613,-2.1041,-2.0896,-2.1973,-2.2336,-2.2101,-2.2282,-2.2405,-2.2339,-2.1615,-2.1016,0.0,0.0,0.0,0.0,0.0,0.0,0.0,0.0,0.0,0.0,-1.917,-1.9117,0.0,0.0,0.0,0.0,0.0,0.0,0.0,0.0,-1.9935,-2.0269,-2.0213,0.0,-2.1544,-2.1512,-2.0968,-2.0477,0.0,0.0,0.0,0.0,0.0,0.0,0.0,0.0,0.0,0.0,0.0,0.0,-2.3909,0.0,0.0,-2.6963,-2.7554,-2.8189,-2.8718,-2.8455,-2.8564,-2.9039,-2.9094,-2.8865,-2.8636,-2.8517,-2.8268,-2.7642,-2.7642,-2.7409,-2.7073,-2.7073,-2.7073,-2.7073,-2.7073,-2.7073,-2.7064,-2.6765,-2.6628,-2.661,-2.6328,-2.6208,-2.6208,-2.6208,-2.6208,-2.6208,-2.6208,-2.6208,-2.6208,-2.6208,-2.6208,-2.6208,0.0,0.0,0.0,0.0,0.0,0.0,0.0,0.0,0.0,0.0,0.0,0.0,0.0,0.0,0.0,0.0,0.0,0.0,0.0,0.0,0.0,0.0,0.0,-1.9855,-2.0155,-2.091,-2.1447,-2.1724,-2.2373,-2.2693,-2.2739,-2.2855,-2.2858,-2.2738,-2.1878,-2.1238,0.0,0.0,0.0,0.0,-1.9926,0.0,0.0,0.0,0.0,0.0,-1.9223,-1.917,0.0,-1.8946,-1.903,-1.9147,0.0,0.0,0.0,0.0,-1.931,-1.9577,-1.9592,-2.027,-2.0858,-2.0586,-2.0258,-1.9921,0.0,0.0,0.0,0.0,0.0,0.0,0.0,0.0,0.0,0.0,-2.2412,0.0,0.0,0.0,-2.691,-2.6807,-2.7448,-2.808,-2.838,-2.8342,-2.8459,-2.892,-2.8874,-2.8636,-2.8517,-2.8268,-2.7891,-2.7521,-2.7409,-2.7306,-2.7073,-2.7073,-2.7073,-2.7073,-2.6893,-2.6807,-2.679,-2.6414,-2.6234,-2.6225,-2.602,-2.5934,-2.5934,-2.5934,-2.5934,-2.5934,-2.5934,-2.5934,-2.5934,-2.5934,-2.5934,-2.5934,0.0,0.0,0.0,0.0,0.0,0.0,0.0,0.0,0.0,0.0,0.0,0.0,0.0,0.0,0.0,0.0,0.0,0.0,0.0,0.0,0.0,0.0,0.0,-2.0169,-2.0826,-2.132,-2.1965,-2.2705,-2.2884,-2.3104,-2.3324,-2.3272,-2.3111,-2.2884,-2.2101,-2.1576,0.0,0.0,-2.0437,-2.0093,-2.0042,0.0,0.0,0.0,0.0,0.0,0.0,0.0,0.0,-1.9052,-1.8946,-1.8798,-1.8679,0.0,0.0,0.0,0.0,0.0,-1.9465,-1.9775,-1.9987,-1.966,-1.9605,-1.9539,-1.9208,0.0,0.0,0.0,0.0,0.0,0.0,0.0,0.0,0.0,0.0,0.0,-2.5094,-2.623,-2.6929,-2.6679,-2.7381,-2.7834,-2.8061,-2.8078,-2.8316,-2.8838,-2.86,-2.8526,-2.8397,-2.7891,-2.7521,-2.7401,-2.7185,-2.7047,-2.6987,-2.7047,-2.7047,-2.6979,-2.6645,-2.6456,-2.6396,-2.602,-2.5848,-2.5848,-2.5797,-2.5771,-2.5771,-2.5771,-2.5771,-2.5771,-2.5771,-2.5771,-2.5771,-2.5771,-2.5771,-2.5771,0.0,0.0,0.0,0.0,0.0,0.0,0.0,0.0,0.0,0.0,0.0,0.0,0.0,0.0,0.0,0.0,0.0,0.0,0.0,0.0,0.0,-1.9757,-2.0253,-2.0841,-2.1425,-2.2381,-2.2756,-2.2705,-2.3702,-2.4161,-2.3947,-2.4336,-2.4129,-2.3398,-2.3057,-2.2413,-2.1459,-2.1264,-2.0901,-2.041,-2.0093,0.0,0.0,0.0,0.0,0.0,0.0,0.0,0.0,-1.917,-1.9064,-1.8946,-1.8798,0.0,0.0,0.0,0.0,0.0,-1.9086,-1.9443,-1.9668,-1.964,-1.9605,-1.9539,-1.9208,0.0,0.0,0.0,0.0,0.0,0.0,0.0,-2.1154,0.0,0.0,-2.4551,-2.5498,-2.6226,-2.6727,-2.7074,-2.7128,-2.7285,-2.767,-2.7798,-2.8081,-2.8452,-2.8446,-2.8397,-2.814,-2.7771,-2.7409,-2.7194,-2.7073,-2.691,-2.6585,-2.691,-2.691,-2.6576,-2.6516,-2.6319,-2.6011,-2.5634,-2.5455,-2.5437,-2.5129,-2.4992,-2.4992,-2.4992,-2.4992,-2.4992,-2.4992,-2.4992,-2.4992,-2.4992,-2.4992,-2.4992,0.0,0.0,0.0,0.0,0.0,0.0,0.0,0.0,0.0,0.0,0.0,0.0,0.0,0.0,0.0,0.0,0.0,0.0,0.0,0.0,0.0,-2.0335,-2.0582,-2.0955,-2.148,-2.256,-2.3119,-2.3216,-2.4061,-2.4559,-2.4611,-2.4657,-2.4473,-2.4093,-2.348,-2.2766,-2.1969,-2.155,-2.103,-2.0461,0.0,0.0,0.0,0.0,0.0,0.0,0.0,0.0,0.0,0.0,-1.917,-1.9064,-1.8851,0.0,0.0,0.0,0.0,0.0,-1.8955,-1.9144,-1.9324,-1.9684,-1.9671,-1.9613,-1.9599,0.0,0.0,0.0,0.0,0.0,0.0,0.0,-2.2221,-2.324,0.0,-2.4983,-2.5751,-2.6309,-2.6643,-2.675,-2.6952,-2.7157,-2.7364,-2.7455,-2.7618,-2.78,-2.7849,-2.7621,-2.7155,-2.6984,-2.6772,-2.6465,-2.6465,-2.6371,-2.6191,-2.6371,-2.6371,-2.6191,-2.5977,-2.5797,-2.5617,-2.5249,-2.5078,-2.5069,-2.4898,-2.4821,-2.4821,-2.4821,-2.4821,-2.4821,-2.4821,-2.4821,-2.4821,-2.4821,-2.4821,-2.4821,0.0,0.0,0.0,0.0,0.0,0.0,0.0,0.0,0.0,0.0,0.0,0.0,0.0,0.0,0.0,0.0,0.0,0.0,0.0,0.0,-1.959,-2.0737,-2.0726,-2.1012,-2.1603,-2.2738,-2.3412,-2.3592,-2.435,-2.4847,-2.5005,-2.4778,-2.462,-2.4593,-2.3787,-2.3106,-2.2557,-2.1969,-2.1329,-2.0706,0.0,0.0,0.0,0.0,0.0,0.0,0.0,0.0,0.0,0.0,0.0,0.0,0.0,0.0,0.0,-1.8464,-1.8193,-1.8124,-1.8888,-1.9048,-1.9144,-1.9976,-1.9974,-1.9804,-1.996,0.0,0.0,0.0,0.0,0.0,0.0,-2.2267,0.0,-2.4355,-2.4853,-2.5314,-2.5968,-2.6279,-2.6475,-2.6583,-2.6812,-2.6902,-2.7004,-2.7123,-2.7073,-2.7155,-2.7205,-2.6936,-2.6397,-2.6317,-2.6225,-2.5951,-2.5934,-2.5891,-2.5806,-2.5806,-2.5806,-2.5797,-2.5506,-2.5326,-2.5232,-2.4949,-2.4821,-2.4821,-2.4821,-2.4821,-2.4821,-2.4821,-2.4821,-2.4821,-2.4821,-2.4821,-2.4821,-2.4821,-2.4821,-2.4821,0.0,0.0,0.0,0.0,0.0,0.0,0.0,0.0,0.0,0.0,0.0,0.0,0.0,0.0,0.0,0.0,0.0,0.0,0.0,0.0,-1.9604,-2.0683,-2.0698,-2.1212,-2.2285,-2.3449,-2.3909,-2.3592,-2.4845,-2.5272,-2.5005,-2.4835,-2.4734,-2.4607,-2.431,-2.3795,-2.3119,-2.2544,-2.1969,-2.1355,-2.0719,0.0,0.0,0.0,0.0,0.0,0.0,0.0,0.0,0.0,0.0,0.0,0.0,0.0,-1.8614,-1.8614,-1.8356,-1.8246,-1.8888,-1.9097,-1.9393,-2.0522,-2.0536,0.0,-2.0044,-2.0159,0.0,-2.1518,0.0,0.0,0.0,-2.2849,-2.3624,-2.4814,-2.5049,-2.5411,-2.6372,-2.6275,-2.638,-2.6849,-2.6772,-2.6591,-2.6628,-2.6727,-2.6713,-2.6749,-2.6549,-2.6406,-2.638,-2.6067,-2.596,-2.5934,-2.5934,-2.5771,-2.5412,-2.5412,-2.5412,-2.5412,-2.5386,-2.5189,-2.4864,-2.483,-2.4821,-2.4821,-2.4821,-2.4821,-2.4821,-2.4821,-2.4821,-2.4821,-2.4821,-2.4821,-2.4821,-2.4821,-2.4821,-2.4821,0.0,0.0,0.0,0.0,0.0,0.0,0.0,0.0,0.0,0.0,0.0,0.0,0.0,0.0,0.0,0.0,0.0,0.0,0.0,-1.9176,-1.9565,-2.0641,-2.0698,-2.1197,-2.2249,-2.347,-2.3965,-2.3592,-2.4655,-2.5131,-2.5005,-2.4835,-2.4734,-2.462,-2.4421,-2.3918,-2.3197,-2.2988,-2.2361,-2.1498,-2.1121,-2.0772,0.0,0.0,0.0,0.0,0.0,0.0,0.0,0.0,-1.942,0.0,0.0,0.0,-1.8679,-1.8614,-1.8643,-1.8826,-1.9154,-1.9452,-1.9805,-2.082,0.0,0.0,0.0,0.0,-2.1466,-2.2097,-2.238,0.0,0.0,0.0,-2.4512,-2.499,-2.5421,-2.5737,-2.6189,-2.6314,-2.6365,-2.6726,-2.6691,-2.6591,-2.6591,-2.6372,-2.6233,-2.6122,-2.6039,-2.5813,-2.5475,-2.5568,-2.548,-2.5249,-2.5241,-2.5172,-2.5026,-2.5026,-2.5026,-2.5026,-2.5026,-2.4958,-2.4821,-2.4821,-2.4821,-2.4821,-2.4821,-2.4821,-2.4821,-2.4821,-2.4821,-2.4821,-2.4821,-2.4821,-2.4821,-2.4821,-2.4821,-2.4821,0.0,0.0,0.0,0.0,0.0,0.0,0.0,0.0,0.0,0.0,0.0,0.0,0.0,0.0,0.0,0.0,0.0,0.0,-1.9228,-1.9139,-1.9565,-2.0641,-2.0698,-2.1153,-2.2203,-2.3224,-2.3705,-2.3592,-2.4532,-2.5005,-2.5005,-2.4892,-2.4778,-2.4607,-2.4492,-2.4037,-2.3485,-2.3302,-2.2662,-2.1773,-2.1485,-2.1017,0.0,0.0,0.0,0.0,0.0,0.0,0.0,0.0,0.0,0.0,0.0,0.0,0.0,0.0,-1.8838,-1.9137,-1.9329,-1.9772,-2.0325,0.0,0.0,0.0,0.0,0.0,-2.2201,-2.2801,-2.3329,-2.3707,-2.4124,0.0,-2.5117,-2.5254,-2.5585,-2.5901,-2.6134,-2.6237,-2.6444,-2.6536,-2.6591,-2.6591,-2.6591,-2.6245,-2.5907,-2.5679,-2.5602,-2.5311,-2.483,-2.5061,-2.5078,-2.483,-2.4821,-2.4821,-2.4821,-2.4821,-2.4821,-2.4821,-2.4821,-2.4821,-2.4821,-2.4821,-2.4821,-2.4821,-2.4821,-2.4821,-2.4821,-2.4821,-2.4821,-2.4821,-2.4821,-2.4821,-2.4821,-2.4821,-2.4821,-2.4821,0.0,0.0,0.0,0.0,0.0,0.0,0.0,0.0,0.0,0.0,0.0,0.0,0.0,0.0,0.0,0.0,0.0,0.0,-1.9101,-1.9101,-1.9565,-2.0626,-2.0698,-2.1153,-2.2189,-2.2774,-2.3272,-2.3606,-2.4532,-2.5005,-2.5005,-2.5005,-2.4835,-2.462,-2.462,-2.439,-2.4073,-2.3472,-2.2897,-2.2363,-2.1747,-2.112,-2.0461,0.0,0.0,0.0,0.0,0.0,0.0,0.0,0.0,0.0,0.0,0.0,0.0,0.0,-1.8838,-1.9137,-1.934,-2.002,-2.0817,0.0,0.0,0.0,0.0,0.0,-2.277,-2.3701,-2.4257,-2.4606,-2.5006,-2.5068,-2.5215,-2.5664,-2.5788,-2.591,-2.6134,-2.6237,-2.6444,-2.6536,-2.6591,-2.6591,-2.6591,-2.6026,-2.5688,-2.5688,-2.5145,-2.4821,-2.4821,-2.4821,-2.4821,-2.4821,-2.4821,-2.4821,-2.4821,-2.4821,-2.4821,-2.4812,-2.4812,-2.4812,-2.4812,-2.4812,-2.4812,-2.4812,-2.4812,-2.4812,-2.4812,-2.4812,-2.4812,-2.4812,-2.4821,-2.4821,-2.4821,-2.4821,-2.4821,-2.4821,0.0,0.0,0.0,0.0,0.0,0.0,0.0,0.0,0.0,0.0,0.0,0.0,0.0,0.0,0.0,0.0,0.0,0.0,-1.9101,-1.9101,-1.9349,-1.9969,-2.0455,-2.0983,-2.1569,-2.2373,-2.3266,-2.4226,-2.4736,-2.5005,-2.5005,-2.5005,-2.4835,-2.462,-2.462,-2.439,-2.4112,-2.3929,-2.3276,-2.2402,-2.2232,-2.1525,-2.0599,0.0,0.0,0.0,0.0,0.0,0.0,0.0,0.0,0.0,0.0,0.0,0.0,-1.9061,-1.942,-1.9831,-2.0044,-2.0613,0.0,0.0,0.0,0.0,0.0,0.0,0.0,0.0,-2.4916,-2.5325,-2.5114,-2.5322,-2.5586,-2.5713,-2.5848,-2.604,-2.6069,-2.6383,-2.6562,-2.6573,-2.6591,-2.6591,-2.6591,-2.6026,-2.5688,-2.5688,-2.5145,-2.4821,-2.4821,-2.4821,-2.4821,-2.4821,-2.4821,-2.4821,-2.4821,-2.4821,-2.4684,-2.441,-2.441,-2.441,-2.441,-2.441,-2.4264,-2.4008,-2.4008,-2.4016,-2.405,-2.4307,-2.441,-2.4436,-2.471,-2.4821,-2.4821,-2.4821,-2.4821,-2.4821,0.0,0.0,0.0,0.0,0.0,0.0,0.0,0.0,0.0,0.0,0.0,0.0,0.0,0.0,0.0,0.0,0.0,0.0,0.0,-1.9101,-1.9262,-1.9684,-2.0341,-2.1012,-2.1654,-2.2352,-2.3064,-2.3758,-2.4354,-2.4652,-2.4666,-2.4896,-2.4835,-2.462,-2.462,-2.439,-2.4112,-2.4112,-2.3433,-2.2415,-2.2415,-2.1734,-2.0712,0.0,0.0,0.0,0.0,0.0,0.0,0.0,0.0,0.0,0.0,0.0,0.0,-1.9361,-1.9769,-2.017,-2.0456,0.0,0.0,0.0,0.0,0.0,0.0,0.0,0.0,0.0,-2.5553,-2.5694,-2.5579,-2.5643,-2.5742,-2.5742,-2.58,-2.5833,-2.5833,-2.5999,-2.6105,-2.6105,-2.6105,-2.6105,-2.6105,-2.5658,-2.5326,-2.5218,-2.4933,-2.47,-2.459,-2.4735,-2.4821,-2.4821,-2.4667,-2.4581,-2.4581,-2.4436,-2.4239,-2.4008,-2.4016,-2.3939,-2.3794,-2.3939,-2.3879,-2.3665,-2.3665,-2.3682,-2.3717,-2.3931,-2.4016,-2.4042,-2.4436,-2.4581,-2.4607,-2.4761,-2.4821,-2.4821,0.0,0.0,0.0,0.0,0.0,0.0,0.0,0.0,0.0,0.0,0.0,0.0,0.0,0.0,0.0,0.0,0.0,0.0,0.0,0.0,-1.9248,-1.9612,-2.0326,-2.1153,-2.2203,-2.2478,-2.2622,-2.2622,-2.3605,-2.4123,-2.4137,-2.4734,-2.4835,-2.462,-2.462,-2.439,-2.4112,-2.4112,-2.3433,-2.2415,-2.2415,-2.1734,-2.0712,-2.0562,0.0,0.0,0.0,0.0,0.0,0.0,0.0,0.0,0.0,0.0,0.0,-1.9531,-1.9861,-2.0182,0.0,0.0,0.0,0.0,0.0,0.0,0.0,0.0,-2.5444,-2.6043,0.0,-2.5919,-2.6021,-2.5917,-2.5742,-2.5742,-2.558,-2.5547,-2.5538,-2.5507,-2.5476,-2.5372,-2.5372,-2.5372,-2.5372,-2.5145,-2.4823,-2.4508,-2.4517,-2.4503,-2.4179,-2.4521,-2.4718,-2.4718,-2.4367,-2.4179,-2.4179,-2.3836,-2.3648,-2.3614,-2.3639,-2.3443,-2.3074,-2.3443,-2.3597,-2.3562,-2.3562,-2.358,-2.3605,-2.3631,-2.3631,-2.3648,-2.4033,-2.4205,-2.4273,-2.4633,-2.4795,-2.4821,0.0,0.0,0.0,0.0,0.0,0.0,0.0,0.0,0.0,0.0,0.0,0.0,0.0,0.0,0.0,0.0,0.0,0.0,0.0,0.0,-1.8999,-1.8969,-1.9948,-2.0992,-2.2156,-2.2074,-2.1987,-2.1987,-2.34,-2.4123,-2.4137,-2.4734,-2.4835,-2.462,-2.462,-2.439,-2.4112,-2.4112,-2.3459,-2.24,-2.2428,-2.1734,-2.0699,-2.0662,-2.0448,0.0,0.0,0.0,0.0,0.0,0.0,0.0,0.0,-1.9275,-1.9298,-1.9948,-2.0133,-2.0252,0.0,0.0,0.0,0.0,0.0,0.0,0.0,-2.6099,-2.5815,-2.6104,-2.6303,-2.628,-2.6081,-2.5917,-2.5742,-2.5742,-2.5788,-2.5748,-2.5547,-2.5619,-2.5683,-2.5476,-2.5372,-2.5372,-2.5372,-2.5145,-2.4927,-2.4823,-2.4483,-2.421,-2.4104,-2.3969,-2.3913,-2.3913,-2.3828,-2.3785,-2.3785,-2.3708,-2.352,-2.3237,-2.3237,-2.304,-2.2681,-2.3066,-2.3066,-2.2885,-2.2885,-2.2792,-2.2818,-2.3117,-2.3237,-2.3271,-2.3639,-2.3965,-2.4239,-2.4324,-2.4556,-2.4821,0.0,0.0,0.0,0.0,0.0,0.0,0.0,0.0,0.0,0.0,0.0,0.0,0.0,0.0,0.0,0.0,0.0,0.0,0.0,0.0,-1.9046,-1.9162,-1.995,-2.0821,-2.1766,-2.1796,-2.1793,-2.1793,-2.2746,-2.3404,-2.3662,-2.4313,-2.4622,-2.4677,-2.462,-2.4434,-2.4203,-2.4112,-2.3459,-2.2413,-2.2387,-2.1694,-2.0699,-2.0699,-2.0498,-2.0182,-2.0182,0.0,0.0,0.0,0.0,0.0,0.0,0.0,-1.9327,-1.9893,-2.0084,-2.0288,0.0,0.0,0.0,0.0,0.0,0.0,0.0,-2.6178,-2.61,-2.63,-2.6479,-2.6496,-2.6294,-2.6014,-2.5742,-2.5742,-2.5624,-2.5561,-2.5452,-2.5252,-2.5089,-2.4979,-2.4886,-2.4785,-2.4785,-2.4674,-2.447,-2.4359,-2.423,-2.413,-2.3817,-2.3878,-2.3877,-2.3682,-2.3494,-2.34,-2.34,-2.322,-2.3032,-2.2843,-2.2843,-2.274,-2.2653,-2.2749,-2.274,-2.2644,-2.2644,-2.2644,-2.2561,-2.2758,-2.2843,-2.2877,-2.3254,-2.352,-2.3742,-2.4102,-2.4367,-2.4564,0.0,0.0,0.0,0.0,0.0,0.0,0.0,0.0,0.0,0.0,0.0,0.0,0.0,0.0,0.0,0.0,0.0,0.0,0.0,0.0,0.0,-1.9539,-2.0091,-2.0667,-2.1302,-2.163,-2.1793,-2.1793,-2.201,-2.2522,-2.3189,-2.3852,-2.4324,-2.4778,-2.4677,-2.4492,-2.4292,-2.4157,-2.3511,-2.2557,-2.2557,-2.1851,-2.0856,-2.0856,-2.0576,-2.0182,-2.0182,-2.0016,-1.9798,-1.9798,0.0,0.0,0.0,0.0,-1.9332,-1.9691,-1.9984,-2.0229,0.0,0.0,0.0,0.0,0.0,0.0,0.0,-2.6024,-2.6177,-2.6547,-2.6564,-2.6592,-2.6496,-2.612,-2.5732,-2.5732,-2.5538,-2.5333,-2.5342,-2.4932,-2.4637,-2.4529,-2.4341,-2.4251,-2.4152,-2.4152,-2.4152,-2.3854,-2.4052,-2.4038,-2.3528,-2.3825,-2.3791,-2.3608,-2.3186,-2.3014,-2.3014,-2.2706,-2.2644,-2.2644,-2.2644,-2.2644,-2.2644,-2.2644,-2.2644,-2.2644,-2.2644,-2.2644,-2.2644,-2.2644,-2.2644,-2.2679,-2.2895,-2.3057,-2.3186,-2.3811,-2.4119,-2.4282,0.0,0.0,0.0,0.0,0.0,0.0,0.0,0.0,0.0,0.0,0.0,0.0,0.0,0.0,0.0,0.0,0.0,0.0,0.0,0.0,0.0,-1.9402,-2.0049,-2.0667,-2.1302,-2.163,-2.1793,-2.1793,-2.1588,-2.2129,0.0,0.0,-2.4324,-2.4778,-2.4677,-2.4492,-2.4292,-2.4157,-2.3733,-2.3106,-2.3106,-2.2426,-2.1394,-2.1394,-2.0926,-2.0182,-2.0182,-2.0016,-1.9798,-1.9798,-1.9798,0.0,0.0,0.0,-1.9426,-1.9734,-2.0029,-2.038,0.0,0.0,0.0,0.0,0.0,0.0,0.0,0.0,-2.5899,-2.6484,-2.6763,-2.6805,-2.6496,-2.6294,-2.6014,-2.5732,-2.5645,-2.5538,-2.5333,-2.5235,-2.503,-2.4529,-2.444,-2.444,-2.4251,-2.4152,-2.4152,-2.4152,-2.3999,-2.3836,-2.3727,-2.3379,-2.3103,-2.3103,-2.2857,-2.2621,-2.2621,-2.2569,-2.2644,-2.2644,-2.2644,-2.2644,-2.2644,-2.2644,-2.2644,-2.2644,-2.2644,-2.2644,-2.2644,-2.2644,-2.2644,-2.2552,-2.2603,-2.2826,-2.3126,-2.3228,-2.3674,-2.4239,0.0,0.0,0.0,0.0,0.0,0.0,0.0,0.0,0.0,0.0,0.0,0.0,0.0,0.0,0.0,0.0,0.0,0.0,0.0,0.0,0.0,-1.9362,-2.0049,-2.0667,-2.1302,-2.163,-2.1793,-2.1793,-2.1847,0.0,0.0,-2.3852,-2.438,-2.4892,-2.4677,-2.4549,-2.4434,-2.4216,-2.3772,-2.321,-2.321,-2.2727,-2.2008,-2.1995,-2.1666,-2.1168,-2.1168,-2.0818,-2.0288,-2.0288,-2.0075,-1.9759,-1.946,0.0,0.0,0.0,-1.9801,0.0,0.0,0.0,0.0,0.0,0.0,0.0,0.0,0.0,-2.5855,-2.5988,-2.6382,-2.6679,-2.6552,-2.6294,-2.6004,-2.5732,-2.5742,-2.5635,-2.5538,-2.543,-2.5235,-2.4932,-2.4637,-2.444,-2.4341,-2.4251,-2.4152,-2.4152,-2.4053,-2.3954,-2.3854,-2.3546,-2.3347,-2.3247,-2.2946,-2.2846,-2.2846,-2.2644,-2.2644,-2.2644,-2.2644,-2.2644,-2.2644,-2.2644,-2.2644,-2.2644,-2.2644,-2.2644,-2.2644,-2.2644,-2.2644,-2.2644,-2.2644,-2.2646,-2.2818,-2.3032,-2.3323,-2.3665,0.0,0.0,0.0,0.0,0.0,0.0,0.0,0.0,0.0,0.0,0.0,0.0,0.0,0.0,0.0,0.0,0.0,0.0,0.0,0.0,0.0,-1.9655,-2.0288,-2.0821,-2.1302,-2.163,-2.1793,-2.1793,0.0,0.0,-2.3189,-2.3852,-2.4435,0.0,-2.4734,-2.462,-2.4563,-2.4229,-2.3851,-2.3446,-2.3446,-2.3106,-2.2609,-2.2583,-2.2315,-2.1898,-2.1898,-2.1479,-2.092,-2.092,-2.0589,-2.016,-1.9825,-1.9629,0.0,0.0,0.0,-2.0523,0.0,0.0,0.0,0.0,0.0,0.0,0.0,0.0,-2.5539,-2.5598,-2.593,-2.6311,-2.6415,-2.632,-2.61,-2.582,-2.5732,-2.5742,-2.5742,-2.5538,-2.5333,-2.5342,-2.4941,-2.4637,-2.4529,-2.4341,-2.4205,-2.4005,-2.4088,-2.4106,-2.37,-2.3791,-2.3755,-2.3555,-2.3247,-2.3003,-2.2898,-2.2603,-2.2352,-2.2361,-2.2361,-2.2261,-2.2261,-2.2261,-2.2312,-2.2415,-2.261,-2.2644,-2.2644,-2.2644,-2.2644,-2.2644,-2.2644,-2.2644,-2.2679,-2.286,-2.3032,-2.3203,0.0,0.0,0.0,0.0,0.0,0.0,0.0,0.0,0.0,0.0,0.0,0.0,-2.1475,-2.141,-2.1289,-2.1123,-2.0956,0.0,0.0,0.0,0.0,-2.0344,-2.0906,0.0,-2.1316,-2.163,-2.1793,0.0,0.0,0.0,-2.3189,-2.3852,-2.4435,-2.5005,-2.4734,-2.462,-2.4563,-2.4229,-2.4099,-2.4073,-2.4073,-2.3707,-2.3171,-2.3171,-2.2652,-2.1898,-2.1898,-2.1733,-2.1443,-2.1443,-2.143,-2.1317,-2.064,-2.0303,-2.003,0.0,0.0,0.0,0.0,0.0,0.0,0.0,0.0,0.0,0.0,0.0,-2.4776,-2.5472,-2.544,-2.5485,-2.6094,-2.631,-2.64,-2.61,-2.583,-2.5742,-2.5742,-2.5645,-2.5538,-2.5333,-2.5235,-2.5039,-2.4538,-2.4538,-2.4174,-2.3602,-2.3932,-2.3987,-2.3496,-2.3744,-2.3746,-2.3755,-2.3546,-2.3169,-2.2699,-2.2127,-2.1848,-2.1848,-2.1561,-2.1465,-2.1465,-2.1465,-2.167,-2.2047,-2.2398,-2.2644,-2.2644,-2.2644,-2.2644,-2.2644,-2.2644,-2.2644,-2.2552,-2.2569,-2.2809,-2.3177,0.0,0.0,0.0,0.0,0.0,0.0,0.0,0.0,0.0,0.0,0.0,0.0,0.0,-2.1951,-2.1706,-2.1143,-2.0961,0.0,0.0,0.0,0.0,-2.0978,-2.1203,-2.1499,-2.1893,-2.1838,-2.1793,0.0,0.0,-2.2617,-2.3189,-2.3852,-2.4435,-2.5005,-2.4734,-2.462,-2.4563,-2.4229,-2.4321,-2.4661,-2.4661,-2.4753,-2.4883,-2.4883,-2.4512,-2.4077,-2.4077,-2.3378,-2.2548,-2.2548,-2.2071,-2.1455,-2.1101,-2.0625,-2.014,-1.9728,-1.9897,-2.037,0.0,0.0,0.0,0.0,0.0,0.0,-2.416,-2.4475,-2.477,-2.4872,-2.5154,-2.5493,-2.5568,-2.5962,-2.6259,-2.6147,-2.6004,-2.5917,-2.5732,-2.5742,-2.5635,-2.5538,-2.5199,-2.4842,-2.4649,-2.4106,-2.3613,-2.337,-2.3395,-2.3318,-2.3076,-2.3204,-2.319,-2.319,-2.2997,-2.2636,-2.2302,-2.2065,-2.1995,-2.1995,-2.19,-2.1804,-2.1804,-2.1804,-2.1979,-2.2136,-2.2512,-2.262,-2.2644,-2.2644,-2.2745,-2.2846,-2.2846,-2.2946,-2.3147,-2.3147,-2.3243,-2.3353,0.0,0.0,0.0,0.0,0.0,0.0,0.0,0.0,0.0,-2.3566,0.0,0.0,0.0,0.0,-2.2265,-2.1685,-2.1528,-2.1442,-2.1326,-2.1196,-2.1278,-2.1597,-2.1611,-2.1809,-2.217,-2.1949,0.0,0.0,0.0,0.0,0.0,-2.3852,-2.4435,-2.5005,-2.4734,-2.462,-2.4576,-2.4426,-2.4622,-2.5048,-2.5184,-2.5484,-2.5824,-2.5749,-2.556,-2.5294,-2.5243,-2.4507,-2.3703,-2.3703,-2.3088,-2.2297,-2.1993,-2.125,-2.0447,-2.0169,-2.0316,-2.0618,-2.0853,0.0,0.0,0.0,0.0,-2.3408,-2.3685,-2.4093,-2.4315,-2.4345,-2.4745,-2.5154,-2.5051,-2.5537,-2.5962,-2.6079,-2.5968,-2.5836,-2.58,-2.5605,-2.5518,-2.5518,-2.4937,-2.459,-2.4486,-2.3862,-2.3448,-2.3131,-2.3065,-2.299,-2.2749,-2.2878,-2.2857,-2.2857,-2.2626,-2.2366,-2.2178,-2.196,-2.1897,-2.1897,-2.1795,-2.1693,-2.1693,-2.1693,-2.1772,-2.1914,-2.217,-2.247,-2.2663,-2.2793,-2.2946,-2.3147,-2.3147,-2.3247,-2.3447,-2.3447,-2.3447,-2.3462,0.0,0.0,0.0,0.0,0.0,0.0,0.0,0.0,-2.3626,-2.3554,0.0,0.0,0.0,0.0,0.0,-2.296,-2.2869,-2.2778,-2.2644,-2.2477,-2.2324,-2.2231,-2.2184,0.0,0.0,0.0,0.0,0.0,0.0,0.0,0.0,0.0,-2.4422,-2.5005,-2.4734,-2.462,-2.4603,-2.4892,-2.5035,-2.504,-2.5615,-2.5876,-2.5827,-2.5625,-2.5498,-2.5397,-2.5153,-2.5025,-2.4895,-2.487,-2.4506,-2.3941,-2.3265,-2.2163,-2.0966,-2.068,-2.0866,-2.1092,0.0,0.0,0.0,0.0,0.0,0.0,-2.3239,-2.3362,-2.3544,-2.4018,-2.4179,-2.4325,-2.4692,-2.4979,-2.5403,-2.6033,-2.5708,-2.5565,-2.5991,-2.5503,-2.5049,-2.5049,-2.4668,-2.4302,-2.4015,-2.4006,-2.3648,-2.2803,-2.3066,-2.3019,-2.2327,-2.2694,-2.282,-2.282,-2.252,-2.2309,-2.2309,-2.1672,-2.1392,-2.1392,-2.1186,-2.0997,-2.0997,-2.0997,-2.121,-2.1591,-2.16,-2.2034,-2.2753,-2.3161,-2.3438,-2.3447,-2.3447,-2.3447,-2.3447,-2.3447,-2.3447,-2.3562,0.0,0.0,0.0,0.0,0.0,-2.4343,-2.4343,-2.4641,-2.4908,0.0,0.0,0.0,-2.4469,-2.4374,-2.4312,-2.4264,-2.3702,-2.3288,-2.324,-2.2625,-2.2231,-2.2184,-2.2184,-2.2184,-2.2184,0.0,0.0,0.0,0.0,-2.216,-2.3189,-2.3351,-2.4028,0.0,-2.4835,-2.4677,-2.4603,-2.4892,-2.521,-2.5641,-2.6216,-2.6935,-2.768,-2.7478,-2.7533,-2.7754,-2.7557,-2.7094,-2.654,-2.6138,-2.5624,-2.4856,-2.3331,-2.2529,-2.2016,-2.0897,-2.0924,-2.1272,-2.0948,0.0,0.0,0.0,0.0,0.0,-2.2804,-2.3154,-2.3415,-2.3599,-2.3849,-2.4168,-2.4304,-2.442,-2.4721,-2.5372,-2.5513,-2.539,-2.5232,-2.4957,-2.4795,-2.46,-2.4219,-2.3965,-2.3874,-2.3413,-2.3003,-2.2799,-2.2546,-2.2395,-2.2184,-2.2097,-2.2071,-2.2071,-2.1961,-2.1896,-2.1896,-2.1706,-2.1651,-2.1651,-2.1553,-2.1553,-2.1553,-2.1553,-2.1616,-2.1645,-2.2026,-2.2179,-2.2432,-2.2743,-2.3188,-2.3655,-2.3655,-2.3854,-2.3954,-2.3954,-2.3954,-2.4063,0.0,0.0,0.0,0.0,0.0,-2.5031,-2.5031,-2.5267,-2.5396,0.0,0.0,0.0,-2.4961,-2.4849,-2.4785,-2.4737,-2.421,-2.3897,-2.3786,-2.33,-2.3019,-2.3019,-2.2704,-2.2564,-2.2564,-2.2074,-2.1793,-2.1793,-2.152,-2.1912,-2.2848,-2.3067,-2.3689,-2.4652,0.0,0.0,0.0,-2.5156,-2.5572,-2.5916,-2.6961,-2.7785,-2.8412,-2.8451,-2.8537,-2.869,-2.8473,-2.8041,-2.7582,-2.7256,-2.6615,-2.5645,-2.3912,-2.3194,-2.2837,-2.1898,-2.1668,-2.1668,-2.14,-2.1513,-2.1706,-2.1719,0.0,0.0,-2.2183,-2.2655,-2.3014,-2.3088,-2.3448,-2.3853,-2.3892,-2.3861,-2.4012,-2.4461,-2.4671,-2.49,-2.5088,-2.4725,-2.4433,-2.4333,-2.3779,-2.3516,-2.3516,-2.3115,-2.2882,-2.2803,-2.2539,-2.2362,-2.2264,-2.2008,-2.183,-2.183,-2.1741,-2.1741,-2.1741,-2.1741,-2.1741,-2.1741,-2.1741,-2.1741,-2.1741,-2.1741,-2.1741,-2.175,-2.1979,-2.2171,-2.2281,-2.2645,-2.3141,-2.3717,-2.389,-2.4053,-2.4152,-2.4152,-2.4152,-2.4271,0.0,0.0,-2.4747,-2.4732,-2.5285,-2.5719,-2.5672,-2.5637,-2.5601,0.0,-2.5458,-2.5383,-2.5313,-2.5284,-2.5156,-2.5056,-2.4855,-2.4619,-2.4425,-2.4225,-2.4118,-2.4118,-2.3519,-2.321,-2.321,-2.2352,-2.1904,-2.1904,-2.1547,-2.1722,-2.2319,-2.2891,-2.35,-2.415,0.0,0.0,0.0,-2.5659,-2.6015,-2.6151,-2.7745,-2.8412,-2.8556,-2.8983,-2.9125,-2.8972,-2.8804,-2.8609,-2.8448,-2.8335,-2.7519,-2.6364,-2.4925,-2.4103,-2.3585,-2.3143,-2.2654,-2.2195,-2.1949,-2.1812,-2.1635,-2.1463,-2.1491,0.0,-2.1574,-2.208,-2.2457,-2.2512,-2.2947,-2.3274,-2.3328,-2.3424,-2.3524,-2.3496,-2.369,-2.4155,-2.5135,-2.4645,-2.4068,-2.4068,-2.3545,-2.3144,-2.3144,-2.3135,-2.3057,-2.2891,-2.2794,-2.2706,-2.2432,-2.2264,-2.2097,-2.2097,-2.1909,-2.1741,-2.1741,-2.1741,-2.1731,-2.1741,-2.1741,-2.1741,-2.1741,-2.1741,-2.1741,-2.1741,-2.1741,-2.1933,-2.23,-2.2758,-2.3189,-2.3584,-2.3996,-2.4152,-2.4152,-2.4152,-2.4152,-2.4271,0.0,-2.4642,-2.4807,-2.533,-2.5959,-2.6359,-2.6277,-2.6574,-2.6975,-2.7334,-2.77,-2.7981,-2.794,-2.794,-2.7871,-2.7691,-2.6662,-2.5916,-2.5742,-2.4718,-2.4118,-2.4118,-2.3991,-2.392,-2.392,-2.3006,-2.2525,-2.2525,-2.1751,-2.1722,-2.2319,-2.2891,-2.35,-2.415,0.0,0.0,0.0,-2.6001,-2.6714,-2.7459,-2.8127,-2.8673,-2.9222,-3.0047,-3.0482,-3.0778,-3.0991,-3.0998,-3.062,-2.9754,-2.8423,-2.6934,-2.5938,-2.5222,-2.4553,-2.3361,-2.2907,-2.2739,-2.2044,-2.1812,-2.1635,-2.1463,-2.1354,0.0,-2.1561,-2.1677,-2.1857,-2.1904,-2.2397,-2.278,-2.2853,-2.3165,-2.3449,-2.3684,-2.3661,-2.3618,-2.3829,-2.4069,-2.4068,-2.3884,-2.363,-2.3416,-2.3416,-2.3232,-2.3047,-2.3057,-2.2882,-2.2706,-2.2432,-2.2353,-2.2353,-2.2353,-2.2264,-2.2264,-2.2264,-2.2264,-2.2176,-2.2008,-2.2008,-2.1919,-2.1741,-2.1741,-2.1741,-2.1741,-2.1741,-2.1777,-2.1906,-2.2555,-2.3189,-2.3584,-2.3996,-2.4152,-2.4152,-2.4152,-2.4152,-2.4271,-2.4657,-2.5197,-2.5704,-2.6033,-2.6598,-2.7101,-2.7312,-2.7447,-2.773,-2.832,-2.8589,-2.8681,-2.8681,-2.8624,-2.8497,-2.8326,-2.764,-2.713,-2.6947,-2.6314,-2.5821,-2.5444,-2.5135,-2.484,-2.4582,-2.3631,-2.3147,-2.3147,-2.2569,-2.2431,-2.278,-2.339,-2.3784,-2.415,0.0,0.0,0.0,-2.6115,-2.691,-2.7855,-2.8546,-2.9183,-2.9836,-3.0836,-3.1203,-3.1278,-3.1787,-3.1737,-3.1235,-3.0156,-2.9227,-2.8262,-2.6791,-2.5935,-2.5276,-2.4111,-2.3568,-2.3256,-2.2599,-2.2329,-2.2067,-2.1682,-2.1411,0.0,0.0,-2.147,-2.1587,-2.17,-2.1951,-2.222,-2.2237,-2.2527,-2.2789,-2.2874,-2.3158,-2.3234,-2.3143,-2.332,-2.3439,-2.3355,-2.3102,-2.2934,-2.2859,-2.2764,-2.2683,-2.2812,-2.2746,-2.266,-2.2784,-2.2618,-2.2618,-2.2618,-2.2441,-2.2441,-2.2441,-2.2441,-2.2353,-2.2264,-2.2264,-2.2176,-2.2087,-2.2087,-2.2087,-2.2087,-2.2087,-2.2087,-2.2152,-2.2973,-2.3344,-2.3404,-2.4012,-2.4152,-2.4152,-2.4152,-2.4152,-2.4244,-2.5016,-2.5869,-2.6632,-2.6752,-2.7235,-2.7743,-2.8195,-2.8174,-2.8393,-2.9126,-2.9202,-2.9276,-2.9406,-2.9232,-2.9057,-2.8926,-2.8663,-2.8432,-2.8127,-2.8015,-2.7664,-2.7017,-2.6526,-2.5964,-2.5345,-2.4438,-2.3944,-2.3782,-2.3425,-2.3241,-2.3189,-2.3852,-2.4123,0.0,0.0,0.0,0.0,-2.6289,-2.715,-2.8278,-2.9035,-2.9693,-3.0424,-3.1575,-3.1837,-3.169,-3.2201,-3.199,-3.1399,-3.0432,-2.9967,-2.9464,-2.7631,-2.6586,-2.5889,-2.4981,-2.4314,-2.3797,-2.328,-2.2994,-2.2669,-2.2044,-2.1701,-2.1464,0.0,0.0,0.0,-2.1438,-2.1632,-2.1763,-2.1694,-2.1811,-2.1923,-2.1923,-2.236,-2.2711,-2.2558,-2.2496,-2.2531,-2.2808,-2.2686,-2.2523,-2.2359,-2.2287,-2.2271,-2.2448,-2.2471,-2.2656,-2.2998,-2.2931,-2.2882,-2.2882,-2.2618,-2.252,-2.252,-2.252,-2.253,-2.2441,-2.2441,-2.2441,-2.2441,-2.2441,-2.2441,-2.2441,-2.2441,-2.2441,-2.2498,-2.3331,-2.3598,-2.3411,-2.4036,-2.4251,-2.4152,-2.4152,-2.4152,-2.4216,-2.6378,-2.6497,-2.6782,-2.7365,-2.7891,-2.818,-2.8125,-2.8477,-2.9185,-3.0264,-3.0843,-3.1424,-3.2019,-3.1887,-3.1682,-3.1554,-3.0913,-3.0171,-2.9434,-2.8886,-2.831,-2.7692,-2.7593,-2.7256,-2.661,-2.5827,-2.5133,-2.4498,-2.3802,-2.3398,-2.3189,-2.3852,-2.4123,0.0,-2.529,0.0,0.0,-2.6979,-2.8079,-2.9568,-2.9363,-2.9928,-3.1013,-3.2163,-3.2748,-3.3036,-3.3186,-3.2807,-3.2026,-3.1411,-3.0583,-2.9666,-2.8749,-2.7594,-2.6441,-2.5773,-2.5006,-2.4326,-2.3821,-2.3532,-2.328,-2.2574,-2.225,-2.1927,-2.1337,0.0,-2.1186,-2.1047,0.0,-2.1531,-2.1252,0.0,0.0,-2.1669,-2.1544,-2.1478,-2.1478,-2.1307,-2.166,-2.2987,-2.293,-2.2768,-2.2757,-2.2441,-2.2225,-2.2192,-2.2379,-2.2539,-2.2578,-2.2853,-2.3057,-2.3057,-2.3057,-2.3057,-2.3057,-2.3057,-2.2969,-2.2706,-2.2706,-2.2618,-2.2441,-2.2441,-2.2441,-2.2441,-2.2441,-2.2441,-2.2498,-2.3331,-2.3672,-2.3673,-2.4212,-2.4341,-2.4152,-2.4152,-2.4152,-2.4216,-2.6587,-2.6901,-2.7245,-2.7565,-2.7906,-2.8311,-2.8641,-2.9666,-3.0715,-3.1584,-3.1932,-3.2353,-3.3006,-3.2803,-3.2734,-3.3054,-3.2245,-3.158,-3.1246,-3.0656,-2.9869,-2.8886,-2.883,-2.838,-2.7397,-2.6637,-2.6022,-2.5619,-2.4888,-2.4423,0.0,-2.4517,-2.4639,0.0,-2.552,0.0,-2.6816,-2.7434,-2.8519,-2.9807,-3.0138,-3.096,-3.2032,-3.2515,-3.3005,-3.3489,-3.3395,-3.3076,-3.2629,-3.2064,-3.1361,-3.057,-2.9459,-2.8422,-2.7471,-2.6785,-2.6009,-2.5324,-2.4807,-2.4366,-2.3939,-2.3238,-2.2897,-2.2624,-2.1916,-2.167,-2.1514,-2.1163,0.0,0.0,0.0,0.0,0.0,0.0,-2.1396,-2.1452,-2.1312,-2.1242,-2.1317,-2.1711,-2.1655,-2.1597,-2.1645,-2.1607,-2.163,-2.1798,-2.1905,-2.1958,-2.2129,-2.2549,-2.2773,-2.2773,-2.3018,-2.3135,-2.3135,-2.3135,-2.3057,-2.2969,-2.2969,-2.2882,-2.2794,-2.2794,-2.2794,-2.2794,-2.2794,-2.2928,-2.3297,-2.3895,-2.4198,-2.4307,-2.4802,-2.4833,-2.4548,-2.444,-2.4341,-2.4369,-2.6856,0.0,-2.7619,-2.7748,-2.8121,-2.8689,-2.9633,-3.0746,-3.1888,-3.2904,-3.3035,-3.334,-3.4085,-3.3887,-3.3868,-3.4284,-3.3634,-3.3087,-3.2918,-3.2328,-3.1513,-3.0431,-3.0207,-2.9546,-2.831,-2.7701,-2.7193,-2.6655,-2.5905,-2.542,0.0,-2.5086,-2.51,-2.5276,-2.5887,-2.6579,-2.7317,-2.8061,-2.8972,-3.0073,-3.0803,-3.1847,-3.2947,-3.3104,-3.342,-3.381,-3.3556,-3.3313,-3.3066,-3.2403,-3.1838,-3.1223,-3.0136,-2.913,-2.8322,-2.769,-2.6966,-2.6311,-2.5853,-2.536,-2.4761,-2.411,-2.3736,-2.3285,-2.2581,-2.2344,-2.2062,-2.1479,-2.1312,0.0,0.0,0.0,-2.1041,-2.0975,0.0,-2.1188,-2.1051,-2.0993,-2.093,-2.0825,-2.0705,-2.0698,-2.0677,-2.0791,-2.1024,-2.1301,-2.1382,-2.156,-2.1762,-2.2301,-2.2595,-2.251,-2.292,-2.3135,-2.3135,-2.3135,-2.3135,-2.3135,-2.3135,-2.3135,-2.3135,-2.3135,-2.3135,-2.3144,-2.3262,-2.3496,-2.3828,-2.4365,-2.4691,-2.4842,-2.5266,-2.5333,-2.5039,-2.4735,-2.4637,-2.4637,-2.7595,-2.761,-2.7718,-2.8174,-2.8734,-2.9604,-3.1195,-3.1482,-3.2193,-3.4109,-3.4356,-3.4752,-3.5784,-3.5755,-3.5567,-3.539,-3.5229,-3.4815,-3.4139,-3.3607,-3.2974,-3.2342,-3.1738,-3.0839,-2.9574,-2.9532,-2.8745,-2.7276,-2.6668,-2.6178,0.0,0.0,-2.5317,-2.5887,-2.6511,-2.7447,-2.8573,-2.8999,-2.9736,-3.0716,-3.1109,-3.2251,-3.3626,-3.4149,-3.4204,-3.4076,-3.381,-3.3556,-3.331,-3.2487,-3.1838,-3.1298,-3.0758,-2.9674,-2.8636,-2.8383,-2.7751,-2.71,-2.6887,-2.6478,-2.5925,-2.5195,-2.4682,-2.4044,-2.3185,-2.3001,-2.2794,-2.2007,-2.1904,-2.1678,-2.0994,-2.0914,-2.0862,-2.0756,-2.0573,0.0,0.0,-2.026,-2.0344,-2.0913,-2.0786,-2.0634,-2.0441,-2.0247,-2.0307,-2.0764,-2.105,-2.1261,-2.1461,-2.23,-2.268,-2.2519,-2.292,-2.3135,-2.3135,-2.3135,-2.3135,-2.3135,-2.3135,-2.3135,-2.3135,-2.3135,-2.3135,-2.3164,-2.3584,-2.3779,-2.3857,-2.4697,-2.5059,-2.5117,-2.5557,-2.5635,-2.5635,-2.5039,-2.4932,-2.4932,0.0,-2.8607,-2.8764,-2.8352,-2.9079,-3.0308,-3.1888,-3.2904,-3.3819,-3.4907,-3.5415,-3.6085,-3.7137,-3.7057,-3.7234,-3.7855,-3.7374,-3.6712,-3.6093,-3.5489,-3.4688,-3.3663,-3.3031,-3.2314,-3.1471,-3.0249,-2.9219,-2.8491,-2.7483,-2.6809,0.0,0.0,0.0,0.0,-2.7149,-2.7841,-2.8655,-2.9443,-3.0338,-3.1309,-3.2383,-3.3354,-3.4149,-3.4332,-3.4314,-3.4076,-3.3992,-3.3738,-3.3373,-3.3098,-3.2319,-3.1361,-3.1185,-3.0198,-2.9158,-2.8938,-2.8313,-2.7657,-2.7452,-2.7067,-2.661,-2.6356,-2.5767,-2.5099,-2.4507,-2.3897,-2.3293,-2.2738,-2.25,-2.2271,-2.1701,-2.1479,-2.1311,-2.0907,-2.0722,-2.0429,0.0,-1.9511,-1.9184,-1.9244,-1.9843,-2.0205,-2.0136,-2.0255,-2.0278,-2.0359,-2.0724,-2.0898,-2.0821,-2.166,-2.2279,-2.2486,-2.2755,-2.3024,-2.3319,-2.3232,-2.3135,-2.3144,-2.3428,-2.3574,-2.3574,-2.3857,-2.3984,-2.3994,-2.4141,-2.4365,-2.4658,-2.4951,-2.5244,-2.5527,-2.5674,-2.5742,-2.5635,-2.5333,-2.5137,-2.5137,-2.9026,-2.9475,-2.9719,-2.9055,-2.9851,-3.1202,-3.2904,-3.3891,-3.4893,-3.6199,-3.6722,-3.7403,-3.8462,-3.8359,-3.8546,-3.913,-3.8644,-3.8074,-3.7681,-3.6866,-3.6037,-3.525,-3.4421,-3.3578,-3.275,-3.1541,-3.0471,-2.9545,-2.8484,-2.7707,0.0,0.0,0.0,0.0,0.0,-2.8275,-2.9292,-2.9916,-3.0909,-3.2083,-3.3199,-3.3996,-3.4397,-3.4397,-3.4314,-3.4243,-3.416,-3.3823,-3.3471,-3.3398,-3.2609,-3.1687,-3.1687,-3.0841,-2.9808,-2.9584,-2.8954,-2.837,-2.8149,-2.7686,-2.7212,-2.7212,-2.6665,-2.6101,-2.5755,-2.4979,-2.4248,-2.3677,-2.3213,-2.28,-2.2283,-2.1987,-2.1638,-2.1297,-2.0963,-2.0553,0.0,-1.9331,-1.8945,-1.8527,-1.9073,-1.9505,-1.9596,-1.9667,-1.9831,-2.0031,-2.0329,-2.0492,-2.0585,-2.1302,-2.1979,-2.2503,-2.2788,-2.3143,-2.358,-2.3406,-2.3388,-2.3634,-2.392,-2.4147,-2.4305,-2.4582,-2.47,-2.471,-2.4775,-2.5002,-2.5277,-2.5339,-2.5478,-2.5742,-2.5742,-2.5742,-2.5635,-2.5538,-2.544,-2.544,-2.9639,-3.0148,-3.0529,-3.0393,-3.1054,-3.228,-3.4138,-3.453,-3.5473,-3.7883,-3.826,-3.8707,-3.9729,-3.9728,-3.9529,-3.9329,-3.9166,-3.8988,-3.8959,-3.7807,-3.7105,-3.7077,-3.5897,-3.4702,-3.3536,-3.3382,-3.2372,-3.0462,-2.96,-2.8774,0.0,0.0,0.0,0.0,-2.7786,0.0,-3.0405,-3.0446,-3.1334,-3.2912,-3.3635,-3.4173,-3.4397,-3.4397,-3.4397,-3.4397,-3.416,-3.3979,-3.3725,-3.3471,-3.2849,-3.2215,-3.2215,-3.1499,-3.0566,-3.0393,-2.9782,-2.9126,-2.8931,-2.8319,-2.7801,-2.7765,-2.7368,-2.6896,-2.6733,-2.6115,-2.546,-2.4714,-2.3999,-2.3362,-2.2811,-2.2306,-2.1962,-2.1927,-2.1339,-2.0561,-1.9827,-1.9676,-1.9353,-1.8736,-1.8501,-1.8513,-1.8818,-1.8701,-1.895,-1.9839,-1.9875,-2.0081,-2.0747,-2.1226,-2.1802,-2.2462,-2.2925,-2.3368,-2.38,-2.3831,-2.4062,-2.4515,-2.4535,-2.4776,-2.5219,-2.5239,-2.5249,-2.5269,-2.5505,-2.558,-2.5526,-2.5663,-2.5742,-2.5742,-2.5742,-2.5732,-2.5742,-2.5742,-2.5742,-2.5635,-3.0372,-3.0981,-3.2047,-3.3446,-3.3638,-3.3833,-3.4327,-3.6025,-3.7462,-3.8115,-3.903,-3.9851,-4.0464,-4.0789,-4.1012,-4.1213,-4.1084,-4.0716,-4.0266,-3.9493,-3.8861,-3.8397,-3.7189,-3.636,-3.6051,-3.4253,-3.3017,-3.2388,-3.0787,-2.9744,-2.932,0.0,0.0,0.0,0.0,-2.9536,-3.0446,-3.088,-3.1955,-3.3453,-3.4232,-3.4624,-3.4673,-3.4481,-3.4397,-3.4397,-3.4314,-3.4147,-3.3992,-3.3725,-3.3102,-3.2478,-3.2298,-3.1738,-3.1198,-3.0954,-3.0773,-3.0412,-2.9577,-2.9302,-2.8935,-2.8402,-2.7909,-2.7512,-2.7435,-2.6876,-2.6127,-2.5471,-2.5028,-2.4522,-2.3408,-2.2834,-2.2363,-2.1984,-2.1042,-2.0166,-1.9546,-1.8985,-1.8397,-1.7842,-1.7685,-1.785,-1.8491,-1.8575,-1.8689,-1.8929,-1.951,-2.0006,-2.0504,-2.0968,-2.1562,-2.2487,-2.2788,-2.3154,-2.3601,-2.3766,-2.4062,-2.4515,-2.4847,-2.5239,-2.5671,-2.6013,-2.6164,-2.6164,-2.6179,-2.623,-2.624,-2.6264,-2.6304,-2.6304,-2.6304,-2.6207,-2.6014,-2.5732,-2.5742,-2.5732,-3.1884,-3.2583,-3.3588,-3.4677,-3.5317,-3.5677,-3.5677,-3.7114,-3.8405,-3.8957,-4.0162,-4.1221,-4.1709,-4.2079,-4.2424,-4.2521,-4.2287,-4.1843,-4.1137,-4.0519,-3.9901,-3.9297,-3.8327,-3.7555,-3.6993,-3.563,-3.4321,-3.3185,-3.2053,-3.0985,-2.9997,0.0,0.0,0.0,0.0,-2.9821,-3.05,-3.187,-3.2887,-3.3681,-3.4687,-3.4921,0.0,-3.466,-3.4481,-3.4397,-3.4397,-3.4243,-3.4076,-3.3894,-3.3436,-3.2929,-3.2748,-3.2286,-3.175,-3.1597,-3.1352,-3.1021,-3.0372,-3.0122,-2.9813,-2.9129,-2.871,-2.8354,-2.8114,-2.749,-2.6871,-2.6434,-2.5796,-2.5082,-2.4357,-2.3582,-2.2777,-2.2042,-2.1186,-2.0426,-1.9852,-1.9306,-1.8633,-1.7877,-1.7698,-1.7669,-1.7926,-1.807,-1.8332,-1.868,-1.9065,-1.9515,-2.01,-2.0565,-2.1238,-2.2159,-2.2672,-2.3238,-2.37,-2.3972,-2.4425,-2.5155,-2.5411,-2.587,-2.6502,-2.6758,-2.688,-2.688,-2.6699,-2.6699,-2.6699,-2.6506,-2.6496,-2.6496,-2.6496,-2.64,-2.6197,-2.6014,-2.583,-2.5762,-3.3724,-3.4426,-3.5008,-3.5259,-3.6456,-3.7462,-3.7549,-3.8072,-3.8913,-4.0191,-4.1439,-4.244,-4.305,-4.3502,-4.3631,-4.3469,-4.319,-4.2697,-4.1896,-4.1207,-4.0575,-4.0041,-3.9353,-3.844,-3.7259,-3.7077,-3.5855,-3.3564,-3.3255,-3.2235,0.0,0.0,0.0,0.0,0.0,0.0,0.0,-3.301,-3.3792,-3.3745,-3.4915,-3.5154,-3.4839,-3.4839,-3.4673,-3.4481,-3.4397,-3.4314,-3.416,-3.4076,-3.3823,-3.3398,-3.3398,-3.2887,-3.2328,-3.2328,-3.1822,-3.1365,-3.1208,-3.0934,-3.0455,-2.9837,-2.9504,-2.9172,-2.8715,-2.804,-2.7555,-2.7406,-2.6394,-2.5413,-2.5343,-2.4276,-2.311,-2.2088,-2.1548,-2.1055,-2.0357,-2.002,-1.9499,-1.8467,-1.8148,0.0,-1.742,-1.7554,-1.804,-1.8806,-1.867,-1.8992,-1.9785,-2.0182,-2.0824,-2.1683,-2.2677,-2.3381,-2.3784,-2.4291,-2.4995,-2.5875,-2.5875,-2.6361,-2.7262,-2.7262,-2.7262,-2.7262,-2.7081,-2.6996,-2.69,-2.6699,-2.6592,-2.6592,-2.6592,-2.6592,-2.6506,-2.6363,-2.6103,-2.5977,-3.4936,-3.513,-3.5585,-3.7043,-3.7842,-3.8396,-3.8783,-3.9378,-4.0234,-4.157,-4.2382,-4.3079,-4.3747,-4.4196,-4.4306,-4.4024,-4.3844,-4.3531,-4.3174,-4.2093,-4.1404,-4.1292,-4.0224,-3.9283,-3.8552,-3.7512,-3.6276,-3.4902,-3.3817,-3.2737,-3.1734,0.0,0.0,0.0,0.0,0.0,-3.1951,-3.3363,-3.3869,-3.3977,-3.5009,-3.5399,-3.5236,-3.4921,-3.4756,-3.4673,-3.4481,-3.4397,-3.4314,-3.416,-3.3907,-3.3641,-3.3484,-3.3164,-3.2918,-3.2918,-3.2855,-3.2594,-3.1963,-3.167,-3.145,-3.0467,-2.9922,-2.95,-2.9253,-2.8751,-2.8155,-2.7567,-2.683,-2.6198,-2.5636,-2.448,-2.3294,-2.2088,-2.1847,-2.1468,-2.0476,-2.0081,-1.9683,-1.9063,-1.8416,-1.7977,-1.789,-1.7748,-1.79,-1.847,-1.8554,-1.8992,-1.9933,-2.0253,-2.0669,-2.1217,-2.2501,-2.3225,-2.3308,-2.4126,-2.4995,-2.5875,-2.5875,-2.6361,-2.7262,-2.7262,-2.7262,-2.7262,-2.7262,-2.7262,-2.7262,-2.7167,-2.7167,-2.7167,-2.689,-2.6805,-2.6845,-2.6919,-2.6951,-2.6873,-3.6372,-3.6909,-3.746,-3.8178,-3.9016,-3.9799,-4.0554,-4.0945,-4.1366,-4.202,-4.3195,-4.4095,-4.4414,-4.495,-4.5147,-4.4862,-4.4667,-4.4265,-4.368,-4.3012,-4.2289,-4.1643,-4.1039,-4.0294,-3.9367,-3.844,-3.7358,-3.6093,-3.4871,-3.3789,-3.2695,-3.1704,-3.1138,0.0,0.0,-3.1553,-3.225,-3.3444,-3.3869,-3.3977,-3.5075,-3.548,-3.5399,-3.5154,-3.5003,-3.4756,-3.466,-3.4494,-3.4397,-3.4314,-3.4063,-3.3894,-3.3641,-3.3398,-3.324,-3.3154,-3.3081,-3.3018,-3.2657,-3.2411,-3.2104,-3.1222,-3.0711,-3.0204,-2.9494,-2.91,-2.8775,-2.8076,-2.7472,-2.6712,-2.5781,-2.4541,-2.3526,-2.2913,-2.2327,-2.1755,-2.1261,-2.0762,-2.0223,-1.9605,-1.9177,-1.8764,-1.8381,-1.8289,-1.8257,-1.8373,-1.8475,-1.8892,-1.9769,-2.0268,-2.0667,-2.0886,-2.2413,-2.3184,-2.3184,-2.4322,-2.5233,-2.5875,-2.6123,-2.6599,-2.7262,-2.7262,-2.7262,-2.7262,-2.7262,-2.7262,-2.7262,-2.7262,-2.7262,-2.7262,-2.7177,-2.7215,-2.7451,-2.7374,-2.7651,-2.7965,-3.7778,-3.8534,-3.9208,-3.9195,-4.0176,-4.1236,-4.1947,-4.244,-4.2687,-4.2687,-4.3964,-4.4937,-4.5082,-4.5576,-4.579,-4.5504,-4.5307,-4.491,-4.4138,-4.3723,-4.3068,-4.1942,-4.1685,-4.1039,-3.9816,-3.9184,-3.8257,-3.6978,-3.5756,-3.459,-3.3494,-3.2583,-3.19,-3.14,-3.1681,-3.2017,-3.25,-3.3498,-3.3937,-3.4153,-3.5289,-3.5642,-3.548,-3.5399,-3.5236,-3.4921,-3.4839,-3.466,-3.4481,-3.4397,-3.4243,-3.4076,-3.381,-3.3641,-3.3398,-3.324,-3.3154,-3.3081,-3.3081,-3.2982,-3.2624,-3.2031,-3.1565,-3.0955,-2.9842,-2.9376,-2.9148,-2.8619,-2.7837,-2.6954,-2.5879,-2.4706,-2.3886,-2.3712,-2.289,-2.2214,-2.2099,-2.1521,-2.085,-2.0317,-1.9905,-1.9452,-1.8884,-1.8753,-1.867,-1.8595,-1.8606,-1.891,-1.9628,-2.035,-2.0786,-2.0786,-2.2454,-2.3346,-2.3346,-2.4625,-2.5539,-2.6066,-2.6524,-2.6993,-2.7452,-2.7357,-2.7357,-2.7357,-2.7357,-2.7262,-2.7262,-2.7262,-2.7262,-2.7262,-2.7262,-2.7531,-2.7935,-2.7842,-2.8307,-2.8921,-3.899,-3.9334,-3.9652,-4.045,-4.1686,-4.2438,-4.216,-4.3529,-4.4632,-4.4632,-4.4777,-4.5111,-4.5721,-4.5851,-4.579,-4.5504,-4.5504,-4.5293,-4.5038,-4.4223,-4.3508,-4.2842,-4.1998,-4.1039,-3.9816,-3.9184,-3.8257,-3.6978,-3.5756,-3.4815,-3.4126,-3.2946,-3.2234,-3.2,-3.2217,-3.2663,-3.3192,-3.3737,-3.418,-3.4801,-3.5452,-3.571,-3.5642,-3.548,-3.5399,-3.5318,-3.4921,-3.4756,-3.4756,-3.4481,-3.4243,-3.4076,-3.4076,-3.3738,-3.3398,-3.3398,-3.324,-3.3081,-3.3081,-3.3068,-3.297,-3.2649,-3.2105,-3.1332,-3.0457,-2.9794,-2.9148,-2.8619,-2.7705,-2.6677,-2.5944,-2.5168,-2.4483,-2.384,-2.3421,-2.3144,-2.2673,-2.2058,-2.1517,-2.1306,-2.0328,-1.9585,-1.9353,-1.8949,-1.8873,-1.9258,-1.9176,-1.935,-1.9846,-2.0578,-2.0949,-2.0949,-2.2762,-2.3748,-2.3748,-2.5126,-2.6059,-2.6536,-2.6981,-2.7437,-2.7904,-2.7726,-2.7536,-2.7547,-2.7357,-2.7262,-2.7262,-2.7262,-2.7262,-2.7262,-2.7262,-2.7531,-2.7976,-2.839,-2.8876,-2.926,-4.0487,-4.0905,-4.1398,-4.1981,-4.2769,-4.349,-4.3931,-4.4502,-4.5024,-4.543,-4.5488,-4.559,-4.5851,-4.588,-4.588,-4.579,-4.5595,-4.5413,-4.5321,-4.4895,-4.4115,-4.2941,-4.257,-4.1762,-4.0364,-3.9367,-3.8622,-3.8116,-3.6501,-3.5391,-3.4773,-3.3902,-3.3157,-3.2667,-3.3123,-3.3307,-3.3375,-3.4312,-3.4716,-3.4882,-3.5479,-3.571,-3.571,-3.5642,-3.548,-3.5399,-3.5236,-3.5086,-3.4921,-3.4756,-3.4494,-3.4243,-3.416,-3.3992,-3.3738,-3.3484,-3.3313,-3.324,-3.3154,-3.3081,-3.3081,-3.281,-3.2475,-3.1908,-3.0675,-3.0143,-2.9685,-2.8679,-2.7921,-2.7172,-2.6557,-2.5884,-2.5144,-2.4472,-2.3909,-2.3491,-2.3167,-2.264,-2.207,-2.1475,-2.1027,-2.0486,-1.9888,-1.9681,-1.9648,-1.9781,-1.953,-1.964,-2.0466,-2.0946,-2.1428,-2.1975,-2.3214,-2.3956,-2.4221,-2.5626,-2.6434,-2.6626,-2.736,-2.7806,-2.7998,-2.7904,-2.7809,-2.7809,-2.7726,-2.7631,-2.7452,-2.7452,-2.7452,-2.7282,-2.7552,-2.7935,-2.839,-2.8856,-2.9321,-2.9746,-4.1639,-4.2192,-4.2772,-4.3254,-4.3856,-4.459,-4.5214,-4.5318,-4.5432,-4.5822,-4.588,-4.588,-4.588,-4.588,-4.588,-4.588,-4.57,-4.5595,-4.5595,-4.5413,-4.4567,-4.3207,-4.2974,-4.2216,-4.0801,-3.9745,-3.9044,-3.8861,-3.7161,-3.6023,-3.5479,-3.4801,-3.4195,-3.3688,-3.4064,-3.4122,-3.4073,-3.489,-3.52,-3.5219,-3.5547,-3.571,-3.571,-3.571,-3.5642,-3.548,-3.5399,-3.5318,-3.5154,-3.4921,-3.4756,-3.4494,-3.4243,-3.416,-3.3992,-3.3738,-3.3484,-3.3398,-3.324,-3.3154,-3.3068,-3.2896,-3.2723,-3.2376,-3.1099,-3.0685,-3.0187,-2.8875,-2.8089,-2.7609,-2.7236,-2.6375,-2.5645,-2.5144,-2.4412,-2.3862,-2.3732,-2.3224,-2.2628,-2.1913,-2.1543,-2.1108,-2.038,-2.0162,-2.014,-2.0347,-2.0041,-2.014,-2.0895,-2.1181,-2.1815,-2.2745,-2.3563,-2.4277,-2.4949,-2.6151,-2.6858,-2.7008,-2.78,-2.8279,-2.8279,-2.8186,-2.8092,-2.7998,-2.7998,-2.7904,-2.7736,-2.7873,-2.783,-2.7787,-2.8042,-2.8499,-2.8956,-2.9187,-2.9601,-2.9994,-4.2222,-4.288,-4.3459,-4.3887,-4.5104,-4.5809,-4.5346,-4.58,-4.6121,-4.588,-4.588,-4.588,-4.588,-4.588,-4.588,-4.588,-4.588,-4.588,-4.588,-4.5595,-4.4928,-4.3632,-4.315,-4.2304,-4.1015,-4.0154,-3.9479,-3.8861,-3.7597,-3.6655,-3.6051,-3.5508,-3.5212,-3.5138,-3.499,-3.5189,-3.5711,-3.5338,-3.5538,-3.6072,-3.5804,-3.571,-3.571,-3.571,-3.571,-3.5629,-3.548,-3.5399,-3.5399,-3.5154,-3.4921,-3.4756,-3.4481,-3.4243,-3.4076,-3.4076,-3.3738,-3.3398,-3.3398,-3.324,-3.3081,-3.3081,-3.2896,-3.2574,-3.2015,-3.1326,-3.0376,-2.9102,-2.8234,-2.7717,-2.7717,-2.6614,-2.5763,-2.5751,-2.5034,-2.449,-2.449,-2.3824,-2.3279,-2.2902,-2.1968,-2.1241,-2.0917,-2.0424,-2.0336,-2.0817,-2.0917,-2.0917,-2.0928,-2.1319,-2.2029,-2.2968,-2.3962,-2.4945,-2.5884,-2.6835,-2.7555,-2.7945,-2.8517,-2.8757,-2.8757,-2.8488,-2.829,-2.7998,-2.7998,-2.7998,-2.803,-2.8498,-2.87,-2.8742,-2.8905,-2.9268,-2.9688,-2.9403,-2.9601,-2.9994,-4.3554,-4.3853,-4.4362,-4.5415,-4.5798,-4.6058,-4.6371,-4.6256,-4.621,-4.6135,-4.597,-4.588,-4.588,-4.588,-4.588,-4.588,-4.588,-4.588,-4.588,-4.5356,-4.463,-4.3617,-4.3099,-4.2224,-4.1015,-4.0336,-3.9645,-3.8861,-3.8018,-3.7077,-3.6065,-3.5508,-3.5226,-3.5254,-3.5588,-3.5745,-3.5844,-3.6092,-3.6146,-3.6086,-3.5992,-3.5898,-3.571,-3.571,-3.571,-3.571,-3.5642,-3.5642,-3.5562,-3.5399,-3.5236,-3.5154,-3.4756,-3.4494,-3.4314,-3.416,-3.3992,-3.3823,-3.3484,-3.3313,-3.324,-3.3154,-3.3081,-3.2759,-3.2027,-3.1042,-2.9947,-2.9029,-2.8591,-2.8294,-2.7789,-2.7375,-2.6832,-2.5956,-2.5486,-2.5043,-2.4548,-2.4207,-2.375,-2.3183,-2.2714,-2.219,-2.1661,-2.1289,-2.1188,-2.1341,-2.1363,-2.1505,-2.1832,-2.2302,-2.3001,-2.3984,-2.4628,-2.5415,-2.6387,-2.7009,-2.7555,-2.8047,-2.8528,-2.8757,-2.8757,-2.8664,-2.8664,-2.8581,-2.8907,-2.8869,-2.8817,-2.9279,-2.9385,-2.9253,-2.9611,-2.9886,-2.9944,-3.0055,-3.0161,-3.0297,-4.4556,-4.4885,-4.5334,-4.6172,-4.636,-4.6572,-4.6857,-4.6653,-4.6403,-4.6403,-4.6135,-4.6046,-4.6046,-4.597,-4.588,-4.588,-4.588,-4.5779,-4.5532,-4.5111,-4.4399,-4.3444,-4.2969,-4.228,-4.1269,-4.0829,-4.0165,-3.9377,-3.8408,-3.7386,-3.6402,-3.6023,-3.584,-3.5855,-3.6248,-3.6354,-3.6241,-3.6554,-3.6563,-3.6325,-3.6246,-3.6072,-3.5817,-3.5817,-3.5804,-3.571,-3.571,-3.571,-3.571,-3.5562,-3.548,-3.5399,-3.5086,-3.4825,-3.4494,-3.4243,-3.416,-3.4076,-3.3738,-3.3569,-3.3398,-3.324,-3.3154,-3.293,-3.2184,-3.122,-3.0195,-2.9548,-2.9016,-2.8694,-2.8222,-2.7849,-2.7423,-2.6614,-2.6036,-2.5521,-2.4973,-2.4545,-2.4074,-2.3538,-2.318,-2.2801,-2.2229,-2.1901,-2.1739,-2.1854,-2.2029,-2.2335,-2.2826,-2.2947,-2.3536,-2.4705,-2.5196,-2.5906,-2.6878,-2.7359,-2.7829,-2.8309,-2.8615,-2.8757,-2.8757,-2.8757,-2.8855,-2.9041,-2.9347,-2.9491,-2.9516,-3.0057,-3.0164,-3.0031,-3.0402,-3.0483,-3.0525,-3.0504,-3.0505,-3.0391,-4.5312,-4.5888,-4.6337,-4.6381,-4.6905,-4.7207,-4.6931,-4.6916,-4.6844,-4.6683,-4.6403,-4.621,-4.621,-4.6046,-4.5866,-4.5822,-4.5822,-4.5561,-4.4922,-4.4806,-4.4226,-4.305,-4.2794,-4.2336,-4.1702,-4.1549,-4.0983,-4.0066,-3.8577,-3.7597,-3.6978,-3.6978,-3.6978,-3.6978,-3.6978,-3.6978,-3.6993,-3.6786,-3.6707,-3.6721,-3.6484,-3.6325,-3.6086,-3.6086,-3.5965,-3.5655,-3.5696,-3.5696,-3.5655,-3.571,-3.5562,-3.5399,-3.5399,-3.5154,-3.4756,-3.4494,-3.4314,-3.416,-3.4076,-3.3823,-3.3398,-3.3398,-3.324,-3.2918,-3.234,-3.166,-3.0984,-3.0437,-2.9561,-2.8852,-2.8852,-2.827,-2.7765,-2.7729,-2.6661,-2.587,-2.5698,-2.502,-2.4403,-2.4016,-2.3572,-2.3112,-2.2755,-2.2329,-2.2143,-2.2379,-2.2848,-2.3318,-2.3809,-2.3427,-2.382,-2.5175,-2.5699,-2.6409,-2.7348,-2.7818,-2.8287,-2.8757,-2.8757,-2.8757,-2.8757,-2.8757,-2.9019,-2.9489,-2.9521,-2.9805,-3.0297,-3.0756,-3.0952,-3.0996,-3.1149,-3.123,-3.123,-3.0931,-3.0713,-3.0495,-4.6154,-4.6271,-4.6486,-4.698,-4.7204,-4.7309,-4.7207,-4.7019,-4.6916,-4.6844,-4.6668,-4.6403,-4.621,-4.6135,-4.5842,-4.5169,-4.5126,-4.5053,-4.4893,-4.3979,-4.3311,-4.3007,-4.2473,-4.2056,-4.1702,-4.1619,-4.0922,-3.9414,-3.8635,-3.7769,-3.6978,-3.6978,-3.6978,-3.6978,-3.6978,-3.6978,-3.6978,-3.6915,-3.685,-3.6721,-3.6642,-3.6484,-3.6325,-3.6325,-3.5878,-3.5364,-3.5828,-3.5598,-3.5113,-3.556,-3.5629,-3.5642,-3.548,-3.5318,-3.5154,-3.4839,-3.4494,-3.4314,-3.416,-3.3992,-3.3823,-3.3484,-3.324,-3.2918,-3.234,-3.2031,-3.171,-3.1078,-3.0369,-2.9825,-2.9492,-2.8974,-2.8331,-2.7789,-2.7346,-2.6806,-2.6188,-2.5534,-2.4985,-2.4665,-2.4084,-2.3716,-2.357,-2.3523,-2.35,-2.361,-2.393,-2.4344,-2.4803,-2.5076,-2.5371,-2.571,-2.6201,-2.6911,-2.7861,-2.7981,-2.8287,-2.8757,-2.8757,-2.8757,-2.8757,-2.8757,-2.9019,-2.95,-2.9882,-3.0308,-3.0766,-3.1247,-3.1455,-3.1465,-3.1472,-3.1527,-3.1424,-3.123,-3.1023,-3.1023,-4.7099,-4.7081,-4.7046,-4.7407,-4.7381,-4.7309,-4.7309,-4.7207,-4.7106,-4.7106,-4.6606,-4.6254,-4.6152,-4.5698,-4.5273,-4.4676,-4.4807,-4.4632,-4.4066,-4.3369,-4.2876,-4.26,-4.2266,-4.1995,-4.1897,-4.1883,-4.1241,-3.9939,-3.9216,-3.8445,-3.7585,-3.7275,-3.707,-3.6978,-3.6978,-3.6978,-3.6978,-3.6978,-3.6915,-3.685,-3.685,-3.6707,-3.6563,-3.6563,-3.6018,-3.5315,-3.5946,-3.5596,-3.5002,-3.552,-3.571,-3.571,-3.5562,-3.548,-3.5399,-3.5154,-3.4825,-3.4494,-3.4327,-3.4341,-3.4379,-3.405,-3.3792,-3.348,-3.2899,-3.2475,-3.2043,-3.1672,-3.1103,-3.0481,-2.991,-2.9443,-2.8906,-2.8162,-2.7795,-2.7377,-2.6848,-2.6212,-2.5669,-2.5419,-2.4963,-2.4664,-2.4578,-2.4599,-2.4602,-2.4525,-2.4836,-2.5234,-2.5488,-2.6174,-2.6477,-2.6234,-2.6911,-2.7523,-2.8036,-2.8254,-2.8495,-2.8757,-2.8757,-2.8757,-2.8757,-2.8757,-2.9139,-2.9827,-3.01,-3.0603,-3.1247,-3.1509,-3.1618,-3.1618,-3.1618,-3.1618,-3.1618,-3.1424,-3.1333,-3.1127,-4.7943,-4.7794,-4.7593,-4.7488,-4.7317,-4.7115,-4.7025,-4.6995,-4.6995,-4.6995,-4.636,-4.5847,-4.5847,-4.5143,-4.4505,-4.4262,-4.4558,-4.424,-4.3065,-4.2905,-4.2629,-4.2121,-4.2092,-4.2092,-4.2092,-4.2092,-4.1633,-4.0622,-3.9914,-3.9045,-3.8203,-3.7558,-3.7226,-3.7056,-3.6978,-3.6978,-3.6978,-3.6978,-3.6978,-3.6978,-3.6978,-3.6929,-3.6707,-3.6707,-3.617,-3.5411,-3.5984,-3.5699,-3.5036,-3.5573,-3.571,-3.571,-3.571,-3.5562,-3.548,-3.5399,-3.5154,-3.4839,-3.4577,-3.466,-3.4857,-3.4786,-3.4638,-3.4336,-3.3652,-3.2988,-3.2441,-3.2365,-3.1747,-3.1071,-3.038,-2.9971,-2.946,-2.8771,-2.8186,-2.7759,-2.7513,-2.6895,-2.6412,-2.6182,-2.5893,-2.5704,-2.5472,-2.5462,-2.5418,-2.5262,-2.5654,-2.5968,-2.6046,-2.692,-2.7275,-2.6932,-2.771,-2.817,-2.8145,-2.8549,-2.8757,-2.8757,-2.8757,-2.8757,-2.8757,-2.8757,-2.9248,-3.0111,-3.0177,-3.0712,-3.152,-3.1586,-3.1618,-3.1618,-3.1618,-3.1618,-3.1618,-3.1618,-3.1424,-3.1219,-4.8271,-4.8049,-4.7698,-4.6855,-4.6749,-4.6485,-4.5693,-4.5603,-4.5603,-4.5603,-4.5514,-4.5371,-4.5134,-4.5045,-4.4596,-4.3897,-4.3858,-4.3646,-4.3007,-4.2513,-4.2194,-4.2092,-4.2092,-4.2092,-4.2092,-4.2092,-4.1415,-3.996,-3.9779,-3.9054,-3.7691,-3.7423,-3.7303,-3.7226,-3.707,-3.6978,-3.6978,-3.6978,-3.6978,-3.6978,-3.6978,-3.6978,-3.6993,-3.6993,-3.6137,-3.5147,-3.6225,-3.5659,-3.4476,-3.5609,-3.5898,-3.571,-3.571,-3.571,-3.5642,-3.548,-3.5399,-3.5236,-3.4839,-3.4842,-3.5033,-3.5512,-3.5478,-3.5072,-3.4348,-3.4071,-3.3781,-3.3129,-3.2491,-3.1897,-3.1667,-3.0663,-2.9849,-2.9484,-2.8807,-2.8311,-2.814,-2.7608,-2.712,-2.6741,-2.6267,-2.5835,-2.5704,-2.5847,-2.5995,-2.5916,-2.6228,-2.6629,-2.7054,-2.7603,-2.8096,-2.8455,-2.8612,-2.8789,-2.8925,-2.8806,-2.8757,-2.8757,-2.8757,-2.8757,-2.8757,-2.8757,-2.9063,-2.962,-3.0035,-3.0515,-3.104,-3.1455,-3.1618,-3.1618,-3.1618,-3.1618,-3.1618,-3.1618,-3.1516,-3.1527,-4.7978,-4.7751,-4.7372,-4.6604,-4.6319,-4.6048,-4.5582,-4.544,-4.5455,-4.5289,-4.499,-4.4684,-4.4616,-4.4303,-4.3879,-4.3338,-4.3308,-4.3227,-4.2884,-4.2471,-4.2242,-4.2092,-4.2092,-4.2092,-4.2092,-4.1744,-4.1169,-4.0495,-3.9801,-3.9087,-3.8279,-3.7859,-3.7548,-3.7457,-3.7226,-3.7148,-3.7148,-3.707,-3.6978,-3.6978,-3.6978,-3.6978,-3.6978,-3.6978,-3.6431,-3.5619,-3.6387,-3.5981,-3.5203,-3.5864,-3.5992,-3.5898,-3.5723,-3.571,-3.571,-3.5562,-3.5318,-3.5136,-3.5606,-3.5607,-3.5687,-3.6272,-3.6339,-3.5929,-3.5262,-3.4652,-3.4197,-3.3844,-3.3167,-3.2506,-3.2037,-3.141,-3.0811,-3.0162,-2.95,-2.9,-2.885,-2.8235,-2.7743,-2.7584,-2.7123,-2.6734,-2.6667,-2.6714,-2.6691,-2.6691,-2.7087,-2.7486,-2.7629,-2.8366,-2.8888,-2.9137,-2.9218,-2.917,-2.9301,-2.9209,-2.9209,-2.9209,-2.9209,-2.9209,-2.9209,-2.9035,-2.9217,-2.9701,-2.9825,-3.0231,-3.0919,-3.1138,-3.1389,-3.1618,-3.1618,-3.1618,-3.1618,-3.1618,-3.1618,-3.1618,-4.7711,-4.7318,-4.6915,-4.6177,-4.5894,-4.5672,-4.5263,-4.5167,-4.5086,-4.4922,-4.4407,-4.4092,-4.4092,-4.3643,-4.325,-4.3076,-4.3076,-4.2996,-4.2769,-4.2622,-4.2474,-4.2242,-4.216,-4.2102,-4.186,-4.1366,-4.0945,-4.0655,-3.9683,-3.904,-3.8712,-3.816,-3.7853,-3.7701,-3.7457,-3.738,-3.738,-3.7148,-3.707,-3.707,-3.6978,-3.6978,-3.6978,-3.6978,-3.6613,-3.615,-3.664,-3.6317,-3.5822,-3.6119,-3.6246,-3.6166,-3.5898,-3.5804,-3.5804,-3.5723,-3.5318,-3.5173,-3.6254,-3.6384,-3.638,-3.7024,-3.713,-3.6793,-3.6196,-3.539,-3.4754,-3.4412,-3.3832,-3.3093,-3.2372,-3.199,-3.1682,-3.0903,-3.0211,-2.9706,-2.9555,-2.8934,-2.8438,-2.8357,-2.7997,-2.7603,-2.7615,-2.7371,-2.7301,-2.7301,-2.769,-2.8035,-2.8138,-2.901,-2.955,-2.9665,-2.9579,-2.9588,-2.9588,-2.9485,-2.9485,-2.9485,-2.9485,-2.9485,-2.9485,-2.9312,-2.9431,-2.9819,-2.9719,-3.0152,-3.0844,-3.0954,-3.1192,-3.1618,-3.1618,-3.1618,-3.1618,-3.1618,-3.1618,-3.1618,-4.7619,-4.7111,-4.6386,-4.5553,-4.5367,-4.5074,-4.4215,-4.3983,-4.3826,-4.3826,-4.3528,-4.3404,-4.3404,-4.3359,-4.325,-4.325,-4.325,-4.317,-4.2996,-4.2996,-4.2835,-4.2688,-4.2474,-4.2033,-4.1178,-4.112,-4.0525,-3.9349,-3.9247,-3.8884,-3.8275,-3.802,-3.7853,-3.7853,-3.7701,-3.7625,-3.7534,-3.738,-3.7303,-3.7226,-3.707,-3.6978,-3.6978,-3.6978,-3.6613,-3.615,-3.6768,-3.6459,-3.5899,-3.6434,-3.6563,-3.6325,-3.6166,-3.6072,-3.5992,-3.5804,-3.5562,-3.549,-3.6254,-3.6484,-3.6674,-3.7651,-3.7835,-3.7586,-3.6819,-3.656,-3.6058,-3.4577,-3.4235,-3.3946,-3.3205,-3.2421,-3.1891,-3.1757,-3.094,-3.0335,-3.0335,-2.9639,-2.915,-2.8974,-2.8464,-2.8099,-2.7881,-2.7615,-2.7522,-2.7522,-2.7762,-2.8172,-2.862,-2.9183,-2.9699,-3.0147,-2.9954,-2.9886,-2.9886,-2.9588,-2.9485,-2.9485,-2.9485,-2.9485,-2.9485,-2.9485,-2.9508,-2.9564,-2.9941,-3.0348,-3.0677,-3.113,-3.1405,-3.1618,-3.1618,-3.1618,-3.1618,-3.1618,-3.1618,-3.1618,-4.6763,-4.622,-4.5757,-4.5003,-4.4895,-4.4726,-4.425,-4.4127,-4.4065,-4.391,-4.3675,-4.3518,-4.3518,-4.3423,-4.3329,-4.3329,-4.297,-4.2731,-4.2638,-4.2264,-4.2064,-4.2069,-4.2019,-4.155,-4.0654,-4.0339,-3.9824,-3.9204,-3.8783,-3.8449,-3.8202,-3.8127,-3.8066,-3.8066,-3.7853,-3.7777,-3.7777,-3.7548,-3.7457,-3.7457,-3.7303,-3.7226,-3.7148,-3.707,-3.6838,-3.6669,-3.6908,-3.676,-3.6543,-3.6638,-3.6642,-3.6563,-3.6325,-3.6166,-3.6072,-3.5804,-3.5642,-3.5737,-3.6253,-3.6478,-3.6762,-3.7845,-3.7979,-3.7848,-3.7521,-3.7105,-3.6535,-3.5916,-3.5021,-3.421,-3.3895,-3.323,-3.2584,-3.24,-3.1771,-3.1232,-3.0967,-3.0349,-2.9939,-2.9702,-2.907,-2.8666,-2.8597,-2.8057,-2.7929,-2.8234,-2.8486,-2.8815,-2.9323,-2.9742,-3.0032,-3.0204,-3.0136,-3.0045,-3.0045,-2.9943,-2.9943,-2.9943,-2.9943,-2.9943,-2.9943,-2.9772,-2.9783,-2.9703,-2.9791,-3.0225,-3.089,-3.108,-3.1418,-3.1823,-3.1823,-3.1721,-3.1618,-3.1618,-3.1618,-3.1618,-4.616,-4.5634,-4.5203,-4.48,-4.4648,-4.4572,-4.4435,-4.4358,-4.4281,-4.4127,-4.391,-4.3754,-4.3754,-4.3401,-4.3109,-4.3109,-4.2509,-4.2058,-4.2058,-4.1639,-4.1426,-4.1499,-4.1514,-4.1126,-4.0231,-3.9777,-3.9317,-3.8975,-3.8434,-3.8202,-3.8202,-3.8202,-3.8202,-3.8202,-3.8066,-3.7991,-3.8005,-3.7777,-3.7701,-3.7701,-3.7457,-3.738,-3.7303,-3.7148,-3.707,-3.6978,-3.6978,-3.6978,-3.6993,-3.685,-3.6772,-3.6786,-3.6563,-3.6325,-3.6072,-3.5898,-3.5804,-3.5764,-3.6304,-3.6427,-3.6671,-3.7646,-3.7912,-3.7979,-3.79,-3.7495,-3.6975,-3.678,-3.571,-3.464,-3.4386,-3.3705,-3.3154,-3.2896,-3.2486,-3.2067,-3.1712,-3.1065,-3.0567,-3.0495,-2.9774,-2.9367,-2.9367,-2.8822,-2.8692,-2.9047,-2.9277,-2.9607,-3.0132,-3.0302,-3.0306,-3.0306,-3.0216,-3.0216,-3.0216,-3.0216,-3.0216,-3.0216,-3.0216,-3.0216,-3.0216,-3.0057,-2.9966,-2.9966,-2.9772,-3.0232,-3.106,-3.106,-3.1547,-3.2128,-3.2128,-3.2026,-3.1834,-3.1721,-3.1721,-3.1742,-4.6187,-4.549,-4.4874,-4.4874,-4.4723,-4.4572,-4.4572,-4.4435,-4.4281,-4.4281,-4.4127,-4.3972,-4.3972,-4.3242,-4.2695,-4.2695,-4.1911,-4.1369,-4.1369,-4.1369,-4.1293,-4.108,-4.1095,-4.0707,-3.9814,-3.9633,-3.9159,-3.8516,-3.8277,-3.8202,-3.8202,-3.8202,-3.8202,-3.8202,-3.8202,-3.8202,-3.8202,-3.8005,-3.7929,-3.7853,-3.7701,-3.7457,-3.7303,-3.7303,-3.7148,-3.6978,-3.6978,-3.6978,-3.6978,-3.6978,-3.6978,-3.6993,-3.6786,-3.6405,-3.6086,-3.6086,-3.5898,-3.5845,-3.6429,-3.6453,-3.6427,-3.714,-3.7778,-3.8122,-3.7979,-3.79,-3.7638,-3.6871,-3.6185,-3.5515,-3.4463,-3.3792,-3.3313,-3.3154,-3.2896,-3.2711,-3.2711,-3.1798,-3.1199,-3.1199,-3.0568,-3.0098,-3.0098,-2.9941,-2.9784,-2.9796,-3.0064,-3.0408,-3.0949,-3.0769,-3.0578,-3.0578,-3.0306,-3.0216,-3.0216,-3.0216,-3.0216,-3.0216,-3.0216,-3.0216,-3.0216,-3.0216,-3.0216,-3.0216,-3.0216,-3.0605,-3.1264,-3.1264,-3.1754,-3.2544,-3.2544,-3.2544,-3.2443,-3.2128,-3.2015,-3.1991,-4.5818,-4.5419,-4.5055,-4.4949,-4.4874,-4.4723,-4.4648,-4.4587,-4.4511,-4.4511,-4.3945,-4.3503,-4.3503,-4.2667,-4.2108,-4.2108,-4.1354,-4.0634,-4.0038,-4.0008,-4.0008,-3.9934,-4.0382,-4.0234,-3.9343,-3.9254,-3.9077,-3.8723,-3.8516,-3.8441,-3.8441,-3.8277,-3.8202,-3.8202,-3.8202,-3.8202,-3.8202,-3.8142,-3.8142,-3.8066,-3.7929,-3.7777,-3.7701,-3.738,-3.7226,-3.7226,-3.707,-3.6978,-3.6978,-3.6978,-3.6978,-3.6993,-3.6786,-3.6642,-3.6484,-3.6166,-3.6072,-3.5939,-3.594,-3.6211,-3.6642,-3.7083,-3.736,-3.7516,-3.753,-3.769,-3.7848,-3.7586,-3.6649,-3.5719,-3.5375,-3.4305,-3.3398,-3.3313,-3.3154,-3.2896,-3.2723,-3.2475,-3.2117,-3.1782,-3.121,-3.0797,-3.0639,-3.0314,-3.0169,-3.0541,-3.0783,-3.0974,-3.0972,-3.0883,-3.0883,-3.0883,-3.0793,-3.0679,-3.0487,-3.0306,-3.0216,-3.0216,-3.0216,-3.0216,-3.0216,-3.0216,-3.0216,-3.0216,-3.0216,-3.0709,-3.1659,-3.1659,-3.207,-3.2779,-3.2779,-3.2667,-3.2443,-3.2342,-3.2463,-3.2579,-4.5667,-4.5442,-4.5294,-4.5188,-4.5039,-4.4964,-4.4723,-4.4723,-4.4631,-4.4218,-4.3758,-4.333,-4.307,-4.219,-4.1632,-4.1632,-4.0879,-4.0206,-3.9583,-3.9553,-3.9481,-3.9424,-3.9798,-3.9755,-3.9192,-3.9104,-3.9031,-3.8943,-3.8723,-3.859,-3.8516,-3.8366,-3.8277,-3.8202,-3.8202,-3.8202,-3.8202,-3.8202,-3.8202,-3.8202,-3.8066,-3.8005,-3.7853,-3.7625,-3.7457,-3.738,-3.7226,-3.7148,-3.7148,-3.7056,-3.6978,-3.6993,-3.685,-3.6786,-3.6642,-3.6405,-3.6246,-3.6072,-3.5898,-3.6076,-3.6334,-3.6561,-3.6936,-3.7188,-3.7012,-3.72,-3.7297,-3.7194,-3.6361,-3.5535,-3.5435,-3.4525,-3.3654,-3.3398,-3.3313,-3.3154,-3.2896,-3.281,-3.2624,-3.2288,-3.1821,-3.144,-3.1366,-3.0989,-3.0843,-3.1168,-3.1392,-3.1395,-3.1241,-3.1151,-3.1151,-3.1151,-3.1062,-3.0883,-3.0769,-3.0589,-3.0408,-3.0216,-3.0216,-3.0216,-3.0216,-3.0216,-3.0216,-3.0216,-3.0216,-3.0801,-3.1766,-3.1754,-3.2265,-3.3092,-3.3092,-3.298,-3.2757,-3.2667,-3.287,-3.3123,-4.5807,-4.5662,-4.5515,-4.5515,-4.5368,-4.5114,-4.4871,-4.4781,-4.4458,-4.3646,-4.3507,-4.3171,-4.2586,-4.1735,-4.125,-4.125,-4.0487,-3.9925,-3.9768,-3.9681,-3.9625,-3.9409,-3.9424,-3.9424,-3.9424,-3.9192,-3.9104,-3.9104,-3.8943,-3.8723,-3.8516,-3.8516,-3.8441,-3.8202,-3.8202,-3.8202,-3.8202,-3.8202,-3.8202,-3.8202,-3.8202,-3.8066,-3.7929,-3.7929,-3.7777,-3.7625,-3.738,-3.7303,-3.7303,-3.707,-3.6978,-3.6978,-3.6978,-3.685,-3.6707,-3.6721,-3.6405,-3.6086,-3.6086,-3.5898,-3.571,-3.571,-3.6385,-3.6967,-3.6565,-3.6445,-3.6384,-3.6197,-3.5678,-3.5214,-3.5016,-3.4464,-3.3907,-3.3484,-3.3398,-3.3313,-3.3154,-3.2896,-3.2723,-3.2711,-3.2288,-3.2038,-3.2038,-3.1849,-3.1749,-3.1661,-3.1661,-3.1661,-3.1661,-3.1484,-3.1306,-3.1306,-3.1151,-3.1074,-3.1062,-3.1062,-3.0781,-3.0306,-3.0216,-3.0216,-3.0216,-3.0216,-3.0216,-3.0216,-3.0216,-3.0801,-3.1766,-3.1743,-3.234,-3.3281,-3.3281,-3.3281,-3.3281,-3.2992,-3.322,-3.3742,-4.5807,-4.5735,-4.5662,-4.5515,-4.5442,-4.5164,-4.4366,-4.4173,-4.3867,-4.3066,-4.2397,-4.1971,-4.1832,-4.11,-4.0685,-4.0685,-4.0423,-4.0137,-3.9925,-3.9768,-3.9696,-3.9625,-3.9481,-3.9424,-3.9424,-3.9337,-3.9337,-3.9337,-3.9104,-3.9017,-3.8958,-3.8797,-3.8649,-3.8441,-3.8441,-3.8366,-3.8202,-3.8202,-3.8202,-3.8202,-3.8202,-3.8202,-3.8142,-3.7929,-3.7853,-3.7777,-3.7625,-3.7457,-3.7303,-3.707,-3.6978,-3.6978,-3.6978,-3.6993,-3.6915,-3.6707,-3.6563,-3.6325,-3.6166,-3.5898,-3.571,-3.571,-3.5832,-3.6075,-3.631,-3.6425,-3.6484,-3.6397,-3.5864,-3.5299,-3.5201,-3.4647,-3.3992,-3.3725,-3.3471,-3.3313,-3.3154,-3.3081,-3.2896,-3.2711,-3.2636,-3.2463,-3.23,-3.2113,-3.1849,-3.1749,-3.1661,-3.1661,-3.1661,-3.1661,-3.1572,-3.1572,-3.1584,-3.1407,-3.1217,-3.1229,-3.1139,-3.0793,-3.0578,-3.0487,-3.0487,-3.0306,-3.0216,-3.0216,-3.0216,-3.0801,-3.1766,-3.1743,-3.234,-3.3281,-3.3281,-3.3281,-3.3281,-3.3181,-3.364,-3.4215,-4.5952,-4.588,-4.5735,-4.5662,-4.5378,-4.4928,-4.4335,-4.395,-4.3354,-4.2567,-4.1983,-4.1588,-4.1264,-4.0824,-4.0524,-4.0524,-4.047,-4.0331,-4.0137,-4.0051,-3.991,-3.9839,-3.9625,-3.9553,-3.9553,-3.9409,-3.9424,-3.9424,-3.9265,-3.9177,-3.9104,-3.9017,-3.887,-3.8649,-3.8516,-3.8441,-3.8366,-3.8202,-3.8202,-3.8202,-3.8202,-3.8202,-3.8202,-3.8066,-3.8066,-3.7991,-3.7853,-3.7534,-3.7303,-3.7148,-3.707,-3.6978,-3.6978,-3.6978,-3.6993,-3.685,-3.6707,-3.6484,-3.6325,-3.6072,-3.5898,-3.5723,-3.571,-3.5724,-3.5802,-3.5945,-3.5907,-3.5738,-3.5344,-3.505,-3.4868,-3.4536,-3.416,-3.3894,-3.3823,-3.3654,-3.3326,-3.324,-3.3154,-3.2896,-3.281,-3.2636,-3.2388,-3.23,-3.2125,-3.1849,-3.1849,-3.1761,-3.1673,-3.1661,-3.1661,-3.1661,-3.1661,-3.1661,-3.1484,-3.1484,-3.1407,-3.133,-3.096,-3.0769,-3.0781,-3.0487,-3.0397,-3.0397,-3.0216,-3.0801,-3.1766,-3.1743,-3.234,-3.3281,-3.3281,-3.3281,-3.3315,-3.3545,-3.4154,-3.4926,-4.6096,-4.5857,-4.5618,-4.5634,-4.5017,-4.4425,-4.4173,-4.36,-4.2902,-4.206,-4.179,-4.1434,-4.0861,-4.0593,-4.0524,-4.0524,-4.0524,-4.0455,-4.0331,-4.0331,-4.0207,-4.0066,-3.9854,-3.9768,-3.9681,-3.9553,-3.9409,-3.9424,-3.9424,-3.9337,-3.9177,-3.9177,-3.9031,-3.8855,-3.8664,-3.859,-3.8516,-3.8277,-3.8202,-3.8202,-3.8202,-3.8202,-3.8202,-3.8202,-3.8202,-3.8202,-3.7991,-3.7701,-3.738,-3.7303,-3.7226,-3.707,-3.6978,-3.6978,-3.6978,-3.6978,-3.685,-3.6642,-3.6484,-3.6246,-3.6072,-3.5804,-3.571,-3.5629,-3.548,-3.5399,-3.5318,-3.5003,-3.4839,-3.4756,-3.4494,-3.4397,-3.4314,-3.416,-3.4076,-3.3907,-3.3484,-3.3398,-3.3313,-3.3154,-3.2896,-3.2723,-3.2475,-3.2475,-3.23,-3.2125,-3.2038,-3.1937,-3.1761,-3.1761,-3.1761,-3.1661,-3.1661,-3.1661,-3.1661,-3.1661,-3.1661,-3.1661,-3.133,-3.1074,-3.1062,-3.0769,-3.0679,-3.0668,-3.0397,-3.0894,-3.1849,-3.1743,-3.2351,-3.3281,-3.3281,-3.3281,-3.3361,-3.3924,-3.4727,-3.5482,-4.6096,-4.5587,-4.5072,-4.4859,-4.4306,-4.3658,-4.3058,-4.2679,-4.2281,-4.1491,-4.1294,-4.1059,-4.0814,-4.0593,-4.0524,-4.0524,-4.0524,-4.0455,-4.0455,-4.0331,-4.0277,-4.0277,-4.0066,-3.9854,-3.9681,-3.9696,-3.9553,-3.9424,-3.9424,-3.9424,-3.9337,-3.9337,-3.9265,-3.9031,-3.9031,-3.8811,-3.8516,-3.8441,-3.8366,-3.8202,-3.8202,-3.8202,-3.8202,-3.8202,-3.8202,-3.8202,-3.8202,-3.7991,-3.7777,-3.738,-3.7303,-3.7226,-3.707,-3.6978,-3.6978,-3.6978,-3.685,-3.6721,-3.6642,-3.6405,-3.6086,-3.6072,-3.5898,-3.571,-3.5629,-3.5562,-3.5399,-3.5318,-3.5003,-3.4756,-3.4756,-3.4577,-3.4314,-3.416,-3.4076,-3.3992,-3.3725,-3.3471,-3.3398,-3.3398,-3.3154,-3.2896,-3.2723,-3.2636,-3.255,-3.2388,-3.2313,-3.2213,-3.195,-3.195,-3.1849,-3.1673,-3.1661,-3.1661,-3.1661,-3.1661,-3.1661,-3.1661,-3.1673,-3.1484,-3.1217,-3.1062,-3.0972,-3.0883,-3.0679,-3.1158,-3.2016,-3.1849,-3.2363,-3.3281,-3.3281,-3.3281,-3.3396,-3.4349,-3.5037,-3.5588,-4.5923,-4.5448,-4.4957,-4.4437,-4.3717,-4.3146,-4.2726,-4.2264,-4.1818,-4.1503,-4.1339,-4.1205,-4.1055,-4.0867,-4.0662,-4.0662,-4.0593,-4.0524,-4.0524,-4.0455,-4.0401,-4.0401,-4.0261,-4.0137,-4.0051,-3.9839,-3.9696,-3.9553,-3.9496,-3.9424,-3.9424,-3.9424,-3.9337,-3.9265,-3.9177,-3.9031,-3.8811,-3.859,-3.8441,-3.8366,-3.8277,-3.8202,-3.8202,-3.8202,-3.8202,-3.8202,-3.8202,-3.8066,-3.7853,-3.7701,-3.7457,-3.7303,-3.7226,-3.707,-3.6978,-3.6978,-3.6915,-3.685,-3.6707,-3.6563,-3.6405,-3.6166,-3.5992,-3.5898,-3.571,-3.5642,-3.5562,-3.5399,-3.5236,-3.5086,-3.4839,-3.4673,-3.4577,-3.4327,-3.4243,-3.4147,-3.3979,-3.3823,-3.3654,-3.3398,-3.324,-3.3068,-3.2896,-3.2896,-3.281,-3.2562,-3.255,-3.2475,-3.2213,-3.2213,-3.1979,-3.1477,-3.168,-3.1704,-3.1228,-3.1517,-3.1661,-3.1661,-3.1661,-3.1661,-3.1484,-3.1318,-3.1139,-3.1139,-3.096,-3.1262,-3.2111,-3.2028,-3.2448,-3.3281,-3.3281,-3.3625,-3.4188,-3.4636,-3.5279,-3.5967]},{"header":{"parameterUnit":"m.s-1","parameterCategory":1,"la1":30.6,"la2":28.766,"lo1":-90.7593,"lo2":-88.6598,"dy":0.0162,"dx":0.0183,"nx":116,"ny":114,"refTime":"2023-06-15T00:00:00:Z","depth":0,"parameterNumber":3,"parameterNumberName":"V-component_of_WINDS"},"data":[0.0,0.0,0.0,0.0,0.0,0.0,0.0,0.0,0.0,0.0,0.0,0.0,0.0,0.0,0.0,0.0,0.0,0.0,0.0,0.0,0.0,0.0,0.0,0.0,0.0,0.0,0.0,0.0,0.0,0.0,0.0,0.0,0.0,0.0,0.0,0.0,0.0,0.0,0.0,0.0,0.0,0.0,0.0,0.0,0.0,0.0,0.0,0.0,0.0,0.0,0.0,0.0,0.0,0.0,0.0,0.0,0.0,0.0,0.0,0.0,0.0,0.0,0.0,0.0,0.0,0.0,0.0,0.0,0.0,0.0,0.0,0.0,0.0,0.0,0.0,0.0,0.0,0.0,0.0,0.0,0.0,0.0,0.0,0.0,0.0,0.0,0.0,0.0,0.0,0.0,0.0,0.0,0.0,0.0,0.0,0.0,0.0,0.0,0.0,0.0,0.0,0.0,0.0,0.0,0.0,0.0,0.0,0.0,0.0,0.0,0.0,0.0,0.0,0.0,0.0,0.0,0.0,0.0,0.0,0.0,0.0,0.0,0.0,0.0,0.0,0.0,0.0,0.0,0.0,0.0,0.0,0.0,0.0,0.0,0.0,0.0,0.0,0.0,0.0,0.0,0.0,0.0,0.0,0.0,0.0,0.0,0.0,0.0,0.0,0.0,0.0,0.0,0.0,0.0,0.0,0.0,0.0,0.0,0.0,0.0,0.0,0.0,0.0,0.0,0.0,0.0,0.0,0.0,0.0,0.0,0.0,0.0,0.0,0.0,0.0,0.0,0.0,0.0,0.0,0.0,0.0,0.0,0.0,0.0,0.0,0.0,0.0,0.0,0.0,0.0,0.0,0.0,0.0,0.0,0.0,0.0,0.0,0.0,0.0,0.0,0.0,0.0,0.0,0.0,0.0,0.0,0.0,0.0,0.0,0.0,0.0,0.0,0.0,0.0,0.0,0.0,0.0,0.0,0.0,0.0,0.0,0.0,0.0,0.0,0.0,0.0,0.0,0.0,0.0,0.0,0.0,0.0,0.0,0.0,0.0,0.0,0.0,0.0,0.0,0.0,0.0,0.0,0.0,0.0,0.0,0.0,0.0,0.0,0.0,0.0,0.0,0.0,0.0,0.0,0.0,0.0,0.0,0.0,0.0,0.0,0.0,0.0,0.0,0.0,0.0,0.0,0.0,0.0,0.0,0.0,0.0,0.0,0.0,0.0,0.0,0.0,0.0,0.0,0.0,0.0,0.0,0.0,0.0,0.0,0.0,0.0,0.0,0.0,0.0,0.0,0.0,0.0,0.0,0.0,0.0,0.0,0.0,0.0,0.0,0.0,0.0,0.0,0.0,0.0,0.0,0.0,0.0,0.0,0.0,0.0,0.0,0.0,0.0,0.0,0.0,0.0,0.0,0.0,0.0,0.0,0.0,0.0,0.0,0.0,0.0,0.0,0.0,0.0,0.0,0.0,0.0,0.0,0.0,0.0,0.0,0.0,0.0,0.0,0.0,0.0,0.0,0.0,0.0,0.0,0.0,0.0,0.0,0.0,0.0,0.0,0.0,0.0,0.0,0.0,0.0,0.0,0.0,0.0,0.0,0.0,0.0,0.0,0.0,0.0,0.0,0.0,0.0,0.0,0.0,0.0,0.0,0.0,0.0,0.0,0.0,0.0,0.0,0.0,0.0,0.0,0.0,0.0,0.0,0.0,0.0,0.0,0.0,0.0,0.0,0.0,0.0,0.0,0.0,0.0,0.0,0.0,0.0,0.0,0.0,0.0,0.0,0.0,0.0,0.0,0.0,0.0,0.0,0.0,0.0,0.0,0.0,0.0,0.0,0.0,0.0,0.0,0.0,0.0,0.0,0.0,0.0,0.0,0.0,0.0,0.0,0.0,0.0,0.0,0.0,0.0,0.0,0.0,0.0,0.0,0.0,0.0,0.0,0.0,0.0,0.0,0.0,0.0,0.0,0.0,0.0,0.0,0.0,0.0,0.0,0.0,0.0,0.0,0.0,0.0,0.0,0.0,0.0,0.0,0.0,0.0,0.0,0.0,0.0,0.0,0.0,0.0,0.0,0.0,0.0,0.0,0.0,0.0,0.0,0.0,0.0,0.0,0.0,0.0,0.0,0.0,0.0,0.0,0.0,0.0,0.0,0.0,0.0,0.0,0.0,0.0,0.0,0.0,0.0,0.0,0.0,0.0,0.0,0.0,0.0,0.0,0.0,0.0,0.0,0.0,0.0,0.0,0.0,0.0,0.0,0.0,0.0,0.0,0.0,0.0,0.0,0.0,0.0,0.0,0.0,0.0,0.0,0.0,0.0,0.0,0.0,0.0,0.0,0.0,0.0,0.0,0.0,0.0,0.0,0.0,0.0,0.0,0.0,0.0,0.0,0.0,0.0,0.0,0.0,0.0,0.0,0.0,0.0,0.0,0.0,0.0,0.0,0.0,0.0,0.0,0.0,0.0,0.0,0.0,0.0,0.0,0.0,0.0,0.0,0.0,0.0,0.0,0.0,0.0,0.0,0.0,0.0,0.0,0.0,0.0,0.0,0.0,0.0,0.0,0.0,0.0,0.0,0.0,0.0,0.0,0.0,0.0,0.0,0.0,0.0,0.0,0.0,0.0,0.0,0.0,0.0,0.0,0.0,0.0,0.0,0.0,0.0,0.0,0.0,0.0,0.0,0.0,0.0,0.0,0.0,0.0,0.0,0.0,0.0,0.0,0.0,0.0,0.0,0.0,0.0,0.0,0.0,0.0,0.0,0.0,0.0,0.0,0.0,0.0,0.0,0.0,0.0,0.0,0.0,0.0,0.0,0.0,0.0,0.0,0.0,0.0,0.0,0.0,0.0,0.0,0.0,0.0,0.0,0.0,0.0,0.0,0.0,0.0,0.0,0.0,0.0,0.0,0.0,0.0,0.0,0.0,0.0,0.0,0.0,0.0,0.0,0.0,0.0,0.0,0.0,0.0,0.0,0.0,0.0,0.0,0.0,0.0,0.0,0.0,0.0,0.0,0.0,0.0,0.0,0.0,0.0,0.0,0.0,0.0,0.0,0.0,0.0,0.0,0.0,0.0,0.0,0.0,0.0,0.0,0.0,0.0,0.0,0.0,0.0,0.0,0.0,0.0,0.0,0.0,0.0,0.0,0.0,0.0,0.0,0.0,0.0,0.0,0.0,0.0,0.0,0.0,0.0,0.0,0.0,0.0,0.0,0.0,0.0,0.0,0.0,0.0,0.0,0.0,0.0,0.0,0.0,0.0,0.0,0.0,0.0,0.0,0.0,0.0,0.0,0.0,0.0,0.0,0.0,0.0,0.0,0.0,0.0,0.0,0.0,0.0,0.0,0.0,0.0,0.0,0.0,0.0,0.0,0.0,0.0,0.0,0.0,0.0,0.0,0.0,0.0,0.0,0.0,0.0,0.0,0.0,0.0,0.0,0.0,0.0,0.0,0.0,0.0,0.0,0.0,0.0,0.0,0.0,0.0,0.0,0.0,0.0,0.0,0.0,0.0,0.0,0.0,0.0,0.0,0.0,0.0,0.0,0.0,0.0,0.0,0.0,0.0,0.0,0.0,0.0,0.0,0.0,0.0,0.0,0.0,0.0,0.0,0.0,0.0,0.0,0.0,0.0,0.0,0.0,0.0,0.0,0.0,0.0,0.0,0.0,0.0,0.0,0.0,0.0,0.0,0.0,0.0,0.0,0.0,0.0,0.0,0.0,0.0,0.0,0.0,0.0,0.0,0.0,0.0,0.0,0.0,0.0,0.0,0.0,0.0,0.0,0.0,0.0,0.0,0.0,0.0,0.0,0.0,0.0,0.0,0.0,0.0,0.0,0.0,0.0,0.0,0.0,0.0,0.0,0.0,0.0,0.0,0.0,0.0,0.0,0.0,0.0,0.0,0.0,0.0,0.0,0.0,0.0,0.0,0.0,0.0,0.0,0.0,0.0,0.0,0.0,0.0,0.0,0.0,0.0,0.0,0.0,0.0,0.0,0.0,0.0,0.0,0.0,0.0,0.0,0.0,0.0,0.0,0.0,0.0,0.0,0.0,0.0,0.0,0.0,0.0,0.0,0.0,0.0,0.0,0.0,0.0,0.0,0.0,0.0,0.0,0.0,0.0,0.0,0.0,0.0,0.0,0.0,0.0,0.0,0.0,0.0,0.0,0.0,0.0,0.0,0.0,0.0,0.0,0.0,0.0,0.0,0.0,0.0,0.0,0.0,0.0,0.0,0.0,0.0,0.0,0.0,0.0,0.0,0.0,0.0,0.0,0.0,0.0,0.0,0.0,0.0,0.0,0.0,0.0,0.0,0.0,0.0,0.0,0.0,0.0,0.0,0.0,0.0,0.0,0.0,0.0,0.0,0.0,0.0,0.0,0.0,0.0,0.0,0.0,0.0,0.0,0.0,0.0,0.0,0.0,0.0,0.0,0.0,0.0,0.0,0.0,0.0,0.0,0.0,0.0,0.0,0.0,0.0,0.0,0.0,0.0,0.0,0.0,0.0,0.0,0.0,0.0,0.0,0.0,0.0,0.0,0.0,0.0,0.0,0.0,0.0,0.0,0.0,0.0,0.0,0.0,0.0,0.0,0.0,0.0,0.0,0.0,0.0,0.0,0.0,0.0,0.0,0.0,0.0,0.0,0.0,0.0,0.0,0.0,0.0,0.0,0.0,0.0,0.0,0.0,0.0,0.0,0.0,0.0,0.0,0.0,0.0,0.0,0.0,0.0,0.0,0.0,0.0,0.0,0.0,0.0,0.0,0.0,0.0,0.0,0.0,0.0,0.0,0.0,0.0,0.0,0.0,0.0,0.0,0.0,0.0,0.0,0.0,0.0,0.0,0.0,0.0,0.0,0.0,0.0,0.0,0.0,0.0,0.0,0.0,0.0,0.0,0.0,0.0,0.0,0.0,0.0,0.0,0.0,0.0,0.0,0.0,0.0,0.0,0.0,0.0,0.0,0.0,0.0,0.0,0.0,0.0,0.0,0.0,0.0,0.0,0.0,0.0,0.0,0.0,0.0,0.0,0.0,0.0,0.0,0.0,0.0,0.0,0.0,0.0,0.0,0.0,0.0,0.0,0.0,0.0,0.0,0.0,0.0,0.0,0.0,0.0,0.0,0.0,0.0,0.0,0.0,0.0,0.0,0.0,0.0,0.0,0.0,0.0,0.0,0.0,0.0,0.0,0.0,0.0,0.0,0.0,0.0,0.0,0.0,0.0,0.0,0.0,0.0,0.0,0.0,0.0,0.0,0.0,0.0,0.0,0.0,0.0,0.0,0.0,0.0,0.0,0.0,0.0,0.0,0.0,0.0,0.0,0.0,0.0,0.0,0.0,0.0,0.0,0.0,0.0,0.0,0.0,0.0,0.0,0.0,0.0,0.0,0.0,0.0,0.0,0.0,0.0,0.0,0.0,0.0,0.0,0.0,0.0,0.0,0.0,0.0,0.0,0.0,0.0,0.0,0.0,0.0,0.0,0.0,0.0,0.0,0.0,0.0,0.0,0.0,0.0,0.0,0.0,0.0,0.0,0.0,0.0,0.0,0.0,0.0,0.0,0.0,0.0,0.0,0.0,0.0,0.0,0.0,0.0,0.0,0.0,0.0,0.0,0.0,0.0,0.0,0.0,0.0,0.0,0.0,0.0,0.0,0.0,0.0,0.0,0.0,0.0,0.0,0.0,0.0,0.0,0.0,0.0,0.0,0.0,0.0,0.0,0.0,0.0,0.0,0.0,0.0,0.0,0.0,0.0,0.0,0.0,0.0,0.0,0.0,0.0,0.0,0.0,0.0,0.0,0.0,0.0,0.0,0.0,0.0,0.0,0.0,0.0,0.0,0.0,0.0,0.0,0.0,0.0,0.0,0.0,0.0,0.0,0.0,0.0,0.0,0.0,0.0,0.0,0.0,0.0,0.0,0.0,0.0,0.0,0.0,0.0,0.0,0.0,0.0,0.0,0.0,0.0,0.0,0.0,0.0,0.0,0.0,0.0,0.0,0.0,0.0,0.0,0.0,0.0,0.0,0.0,0.0,0.0,0.0,0.0,0.0,0.0,0.0,0.0,0.0,0.0,0.0,0.0,0.0,0.0,0.0,0.0,0.0,0.0,-2.8094,-2.7274,0.0,0.0,0.0,0.0,0.0,0.0,0.0,0.0,0.0,0.0,0.0,0.0,0.0,0.0,0.0,0.0,0.0,0.0,0.0,0.0,0.0,0.0,0.0,0.0,0.0,0.0,0.0,0.0,0.0,0.0,0.0,0.0,0.0,0.0,0.0,0.0,0.0,0.0,0.0,0.0,0.0,0.0,0.0,0.0,0.0,0.0,0.0,0.0,0.0,0.0,0.0,0.0,0.0,0.0,0.0,0.0,0.0,0.0,0.0,0.0,0.0,0.0,0.0,0.0,0.0,0.0,0.0,0.0,0.0,0.0,0.0,0.0,0.0,0.0,0.0,0.0,0.0,0.0,0.0,0.0,0.0,0.0,0.0,0.0,0.0,0.0,0.0,0.0,0.0,0.0,0.0,0.0,0.0,0.0,0.0,0.0,0.0,0.0,0.0,0.0,0.0,0.0,0.0,0.0,0.0,0.0,0.0,0.0,0.0,0.0,0.0,0.0,0.0,0.0,-3.0627,-2.9619,0.0,0.0,0.0,0.0,0.0,0.0,0.0,0.0,0.0,0.0,0.0,0.0,0.0,0.0,0.0,0.0,0.0,0.0,0.0,0.0,0.0,0.0,0.0,0.0,0.0,0.0,0.0,0.0,0.0,0.0,0.0,0.0,0.0,0.0,0.0,0.0,0.0,0.0,0.0,0.0,0.0,0.0,0.0,0.0,0.0,0.0,0.0,0.0,0.0,0.0,0.0,0.0,0.0,0.0,0.0,0.0,0.0,0.0,0.0,0.0,0.0,0.0,0.0,0.0,0.0,0.0,0.0,0.0,0.0,0.0,0.0,0.0,0.0,0.0,0.0,0.0,0.0,0.0,0.0,0.0,0.0,0.0,0.0,0.0,0.0,0.0,0.0,0.0,0.0,0.0,0.0,0.0,0.0,0.0,0.0,0.0,0.0,0.0,0.0,0.0,0.0,0.0,0.0,0.0,0.0,0.0,0.0,0.0,-3.2924,-3.3718,-3.4463,-3.4463,-3.4959,-3.5634,-3.3695,-3.2627,-3.2286,-3.2344,0.0,0.0,0.0,0.0,0.0,0.0,0.0,0.0,0.0,0.0,0.0,0.0,0.0,0.0,0.0,0.0,0.0,0.0,0.0,0.0,0.0,0.0,0.0,0.0,0.0,0.0,0.0,0.0,0.0,0.0,0.0,0.0,0.0,0.0,0.0,0.0,0.0,0.0,0.0,0.0,-2.0065,-2.042,0.0,0.0,0.0,0.0,0.0,0.0,0.0,0.0,0.0,0.0,0.0,0.0,0.0,0.0,0.0,0.0,0.0,0.0,0.0,0.0,0.0,0.0,0.0,0.0,0.0,0.0,0.0,0.0,0.0,0.0,0.0,0.0,0.0,0.0,0.0,0.0,0.0,0.0,0.0,0.0,0.0,0.0,0.0,0.0,-2.1226,-2.152,0.0,0.0,0.0,0.0,0.0,0.0,0.0,0.0,0.0,0.0,0.0,0.0,0.0,-3.1423,-3.2932,-3.3282,-3.4163,-3.5544,-3.5741,-3.6238,-3.7039,-3.7184,-3.7685,-3.8383,-3.8187,0.0,-3.4894,-3.4957,0.0,0.0,0.0,0.0,0.0,0.0,0.0,0.0,0.0,0.0,0.0,0.0,0.0,0.0,0.0,0.0,0.0,0.0,0.0,0.0,0.0,0.0,0.0,0.0,0.0,0.0,0.0,0.0,0.0,0.0,0.0,0.0,0.0,0.0,0.0,0.0,0.0,0.0,0.0,0.0,0.0,0.0,-2.1672,-2.0906,-1.9865,-1.9108,0.0,0.0,0.0,0.0,0.0,0.0,0.0,0.0,0.0,0.0,0.0,0.0,0.0,0.0,0.0,0.0,0.0,0.0,0.0,0.0,0.0,0.0,0.0,0.0,0.0,0.0,0.0,0.0,0.0,0.0,0.0,0.0,0.0,0.0,0.0,0.0,0.0,0.0,0.0,-2.1732,-2.3142,-2.3652,-2.4396,-2.5078,0.0,0.0,0.0,0.0,0.0,0.0,0.0,0.0,0.0,-3.2512,-3.3002,-3.4006,-3.5683,-3.62,-3.6841,-3.7552,-3.8146,-3.8845,-3.9651,-3.9783,-4.0271,-4.0989,-4.1121,-4.0562,-3.9463,-3.8113,-3.7352,-3.6985,0.0,0.0,0.0,0.0,-3.6413,-3.6442,0.0,0.0,0.0,0.0,0.0,0.0,0.0,0.0,0.0,0.0,0.0,0.0,0.0,0.0,0.0,-1.6392,0.0,0.0,0.0,0.0,0.0,0.0,0.0,0.0,0.0,0.0,0.0,0.0,0.0,0.0,0.0,0.0,0.0,0.0,0.0,-2.2818,-2.1145,-2.0688,-2.0439,0.0,0.0,0.0,0.0,0.0,0.0,0.0,0.0,0.0,0.0,0.0,0.0,0.0,0.0,0.0,0.0,0.0,0.0,0.0,0.0,0.0,0.0,0.0,0.0,0.0,0.0,0.0,0.0,0.0,0.0,0.0,0.0,0.0,0.0,0.0,0.0,0.0,0.0,-2.3719,-2.4879,-2.5679,-2.6302,-2.6945,0.0,0.0,0.0,0.0,0.0,0.0,-3.2018,-3.2876,-3.4053,-3.557,-3.5717,-3.6534,-3.8224,-3.8925,-3.9444,-3.9893,-4.0656,-4.1432,-4.2261,-4.2415,-4.276,-4.3282,-4.3379,-4.3475,-4.3312,-4.1125,-3.9786,-3.9148,-3.9264,-3.9203,-3.9086,-3.9186,-3.9268,-3.9282,0.0,0.0,0.0,0.0,0.0,0.0,0.0,0.0,0.0,0.0,0.0,0.0,0.0,0.0,-1.6416,-1.7082,-1.7132,-1.7401,0.0,0.0,0.0,0.0,0.0,0.0,0.0,0.0,0.0,0.0,0.0,0.0,0.0,0.0,0.0,0.0,0.0,0.0,0.0,-2.282,-2.2339,-2.1744,0.0,0.0,0.0,0.0,0.0,0.0,0.0,0.0,0.0,0.0,0.0,0.0,0.0,0.0,0.0,0.0,0.0,0.0,0.0,0.0,0.0,0.0,0.0,0.0,0.0,0.0,0.0,0.0,0.0,0.0,0.0,0.0,0.0,0.0,0.0,0.0,0.0,0.0,0.0,-2.7463,-2.8938,0.0,0.0,0.0,0.0,-3.27,-3.3606,-3.4523,-3.5392,-3.6147,-3.7053,-3.8078,-3.8249,-3.9128,-4.0811,-4.0927,-4.1757,-4.3345,-4.3381,-4.393,-4.4821,-4.4962,-4.5021,-4.5057,-4.5142,-4.524,-4.5249,-4.3577,-4.2432,-4.1705,-4.1917,-4.1528,-4.087,-4.0969,-4.0997,-4.1093,0.0,0.0,0.0,0.0,0.0,0.0,0.0,0.0,0.0,0.0,0.0,0.0,0.0,-1.6306,-1.6958,-1.7305,-1.7735,-1.8071,-1.832,0.0,0.0,0.0,0.0,0.0,0.0,0.0,0.0,0.0,0.0,0.0,0.0,0.0,0.0,0.0,0.0,0.0,0.0,0.0,-2.3504,-2.3301,-2.2923,-2.2438,0.0,0.0,0.0,0.0,0.0,0.0,0.0,0.0,0.0,0.0,0.0,0.0,0.0,0.0,0.0,0.0,0.0,0.0,0.0,0.0,0.0,0.0,0.0,0.0,0.0,0.0,0.0,0.0,0.0,0.0,0.0,0.0,0.0,0.0,0.0,0.0,0.0,-2.985,-3.0946,0.0,-3.3163,-3.3659,-3.4278,-3.518,-3.6064,-3.6969,-3.7918,-3.876,-3.9887,-4.1343,-4.154,-4.2139,-4.3315,-4.3417,-4.3769,-4.4366,-4.4569,-4.5065,-4.5882,-4.6488,-4.7114,-4.7639,-4.8273,-4.8532,-4.8502,-4.7554,-4.6061,-4.4437,-4.451,-4.4363,-4.416,-4.4283,-4.4318,-4.4386,0.0,0.0,0.0,0.0,0.0,0.0,0.0,0.0,0.0,0.0,0.0,-1.5085,-1.5794,-1.6723,-1.7393,-1.7731,-1.8295,-1.8783,-1.8974,0.0,0.0,0.0,0.0,0.0,0.0,0.0,0.0,0.0,0.0,0.0,0.0,0.0,0.0,0.0,0.0,0.0,0.0,0.0,0.0,-2.485,-2.464,-2.4163,-2.345,0.0,0.0,0.0,0.0,0.0,0.0,0.0,0.0,0.0,0.0,0.0,0.0,0.0,0.0,0.0,0.0,0.0,0.0,0.0,0.0,0.0,0.0,0.0,0.0,0.0,0.0,0.0,0.0,0.0,0.0,0.0,0.0,0.0,0.0,-2.9693,-3.1381,-3.2269,-3.3393,-3.4523,-3.5668,-3.6337,-3.6999,-3.7654,-3.8755,-3.9704,-4.0377,-4.127,-4.2326,-4.3474,-4.3642,-4.4146,-4.5017,-4.5434,-4.5745,-4.604,-4.6542,-4.7084,-4.7572,-4.8218,-4.8822,-4.939,-5.0021,-5.0326,-5.0375,-4.9953,-4.8864,-4.7423,-4.656,-4.6122,-4.5993,-4.6083,-4.6118,-4.617,0.0,0.0,0.0,0.0,0.0,0.0,0.0,0.0,0.0,0.0,-1.5113,-1.5836,-1.6343,-1.7005,-1.7705,-1.8329,-1.89,-1.9508,-2.0144,-2.041,0.0,0.0,0.0,0.0,0.0,0.0,0.0,0.0,0.0,0.0,0.0,0.0,0.0,0.0,0.0,0.0,0.0,0.0,0.0,0.0,-2.6543,-2.5922,-2.4932,0.0,0.0,0.0,0.0,0.0,0.0,0.0,0.0,0.0,0.0,0.0,0.0,0.0,0.0,0.0,0.0,0.0,0.0,0.0,0.0,0.0,0.0,0.0,0.0,0.0,0.0,0.0,0.0,0.0,0.0,0.0,0.0,0.0,-3.1089,-3.2403,-3.3719,-3.4695,-3.6195,-3.725,-3.7418,-3.8995,-4.0058,-4.0182,-4.1712,-4.2695,-4.2921,-4.3726,-4.4241,-4.4466,-4.4583,-4.5072,-4.5909,-4.6829,-4.7716,-4.8542,-4.9451,-4.9965,-5.009,-5.0108,-5.0232,-5.0337,-5.0355,-5.0484,-5.0657,-5.0639,-5.0739,-5.06,-4.8177,-4.6801,-4.6248,-4.623,-4.6352,-4.6471,0.0,0.0,0.0,0.0,0.0,0.0,0.0,0.0,0.0,0.0,-1.5181,-1.5878,-1.6527,-1.7536,-1.8228,-1.8533,-1.9513,-2.0243,-2.0398,0.0,0.0,0.0,0.0,0.0,0.0,0.0,0.0,0.0,0.0,0.0,0.0,0.0,0.0,0.0,0.0,0.0,0.0,0.0,0.0,0.0,-2.8429,-2.7521,-2.6447,0.0,0.0,0.0,0.0,0.0,0.0,0.0,0.0,0.0,0.0,0.0,0.0,0.0,0.0,0.0,0.0,0.0,0.0,0.0,0.0,0.0,0.0,0.0,0.0,0.0,0.0,0.0,0.0,0.0,0.0,0.0,-3.3211,-3.3886,-3.2824,-3.4066,-3.5664,-3.7143,-3.8271,-3.9404,-4.0582,-4.1254,-4.1881,-4.2532,-4.3062,-4.3938,-4.5172,-4.5658,-4.6418,-4.7599,-4.7844,-4.8139,-4.8476,-4.8847,-4.9153,-4.9505,-4.9874,-5.0071,-5.0108,-5.0687,-5.1066,-5.1209,-5.1843,-5.2211,-5.2285,-5.1802,-5.1623,-5.1536,-5.0288,-4.9706,-4.9581,-4.9675,-4.9825,-5.0006,0.0,0.0,0.0,0.0,0.0,0.0,0.0,0.0,0.0,0.0,-1.5461,-1.617,-1.665,-1.772,-1.8486,-1.8686,-1.9814,-2.0511,-2.0562,0.0,0.0,0.0,0.0,0.0,0.0,0.0,0.0,0.0,0.0,0.0,0.0,0.0,0.0,0.0,0.0,0.0,0.0,0.0,0.0,0.0,0.0,-2.9142,-2.8007,-2.8218,-2.7733,-2.6909,-2.6831,-2.6685,-2.6382,-2.549,0.0,0.0,0.0,0.0,0.0,0.0,0.0,0.0,0.0,0.0,0.0,0.0,0.0,0.0,0.0,0.0,0.0,0.0,0.0,0.0,0.0,0.0,0.0,0.0,-3.5424,-3.6409,-3.6173,-3.7051,-3.8159,-3.9512,-4.0477,-4.155,-4.2837,-4.3432,-4.4101,-4.4898,-4.5414,-4.6122,-4.7134,-4.7417,-4.797,-4.8873,-4.9155,-4.9365,-4.9489,-4.9988,-5.0289,-5.0426,-5.0878,-5.1104,-5.1104,-5.1574,-5.1883,-5.2079,-5.2579,-5.2912,-5.3066,-5.265,-5.2509,-5.2399,0.0,0.0,0.0,0.0,-5.1287,-5.1398,0.0,0.0,0.0,0.0,0.0,0.0,0.0,0.0,0.0,0.0,0.0,-1.6565,-1.6718,-1.7702,-1.8456,-1.8766,-1.9798,-2.0523,0.0,0.0,0.0,0.0,0.0,0.0,0.0,0.0,0.0,0.0,0.0,0.0,0.0,0.0,0.0,0.0,0.0,0.0,0.0,0.0,0.0,0.0,0.0,-3.0741,-2.956,-2.9684,-2.9425,-2.8919,-2.858,-2.8082,-2.7501,-2.6947,0.0,0.0,0.0,0.0,0.0,0.0,0.0,0.0,0.0,0.0,0.0,0.0,0.0,0.0,0.0,0.0,0.0,0.0,0.0,0.0,0.0,0.0,0.0,0.0,-3.7205,-3.8836,-4.0409,-4.0764,-4.1137,-4.1886,-4.2757,-4.3649,-4.4578,-4.5545,-4.6446,-4.7056,-4.7997,-4.8573,-4.8644,-4.8882,0.0,0.0,0.0,-4.9633,-4.9805,-5.0617,-5.1117,-5.1274,-5.209,-5.2498,-5.2498,-5.2498,-5.2618,-5.2806,-5.2806,-5.2955,-5.3206,-5.3206,-5.3206,-5.3078,-5.1628,-5.1219,-5.1414,-5.1603,-5.1676,-5.1676,0.0,0.0,0.0,0.0,0.0,0.0,0.0,0.0,0.0,-1.4826,-1.5926,-1.6718,-1.6846,-1.7565,-1.8235,-1.8826,-1.9517,-2.0361,0.0,0.0,0.0,0.0,0.0,0.0,0.0,0.0,0.0,0.0,0.0,0.0,0.0,0.0,0.0,0.0,0.0,0.0,0.0,0.0,0.0,0.0,0.0,0.0,-3.0328,-3.0508,-3.0319,-2.9922,-2.9852,-2.9869,-2.9778,-2.8589,-2.8295,-2.8278,-2.724,0.0,0.0,0.0,0.0,0.0,0.0,0.0,0.0,0.0,0.0,0.0,0.0,0.0,0.0,0.0,0.0,0.0,0.0,0.0,0.0,-3.8757,-3.9885,-4.1305,-4.342,-4.3909,-4.4158,-4.4312,-4.4679,-4.5474,-4.6924,-4.7436,-4.7717,-4.7874,-4.8312,-4.8837,-4.9434,-4.9694,-5.0148,-5.082,-5.1076,-5.1325,-5.1569,-5.1796,-5.2011,-5.2216,-5.2408,0.0,-5.2498,-5.2498,-5.2618,-5.2806,-5.2806,-5.2955,-5.3206,-5.3206,-5.3206,-5.317,-5.2904,-5.2898,-5.3077,-5.3174,-5.3291,-5.3348,0.0,0.0,0.0,0.0,0.0,0.0,0.0,0.0,0.0,0.0,-1.5739,-1.6456,-1.685,-1.7506,-1.815,-1.8858,-1.9782,0.0,0.0,0.0,0.0,0.0,0.0,0.0,0.0,0.0,0.0,0.0,0.0,0.0,0.0,0.0,0.0,0.0,0.0,0.0,0.0,0.0,0.0,0.0,0.0,0.0,-3.1739,-3.1868,-3.1612,-3.1151,-3.0975,-3.101,-3.0959,-3.0071,-2.964,-2.9344,-2.8745,-2.8186,-2.7747,0.0,0.0,0.0,0.0,0.0,0.0,0.0,0.0,0.0,0.0,0.0,0.0,0.0,0.0,-3.4731,0.0,0.0,-3.8992,-4.0254,-4.1808,-4.3284,-4.4418,-4.5478,-4.6105,-4.6105,-4.6399,-4.7027,-4.8165,-4.8529,-4.8849,-4.9231,-4.9555,-4.9908,-5.0259,-5.0541,-5.0873,-5.1281,-5.1538,-5.179,-5.2005,-5.2054,-5.2198,-5.2405,-5.2452,-5.2498,-5.2516,-5.2915,-5.3171,-5.3335,-5.3781,-5.388,-5.3671,-5.3329,-5.3206,-5.3206,-5.323,-5.3295,-5.34,-5.3616,-5.3734,-5.3754,0.0,0.0,0.0,0.0,0.0,0.0,0.0,0.0,0.0,0.0,0.0,-1.6179,-1.6824,-1.7402,-1.8078,0.0,0.0,0.0,0.0,0.0,0.0,0.0,0.0,0.0,0.0,0.0,0.0,0.0,0.0,0.0,0.0,0.0,0.0,0.0,0.0,0.0,0.0,0.0,0.0,0.0,0.0,0.0,-3.3165,-3.3239,-3.2837,-3.217,-3.1905,-3.1827,-3.1772,-3.1315,-3.0885,-3.0398,-3.0259,-2.961,-2.892,-2.8834,-2.8629,0.0,0.0,0.0,0.0,0.0,0.0,0.0,0.0,0.0,-3.3697,-3.4502,-3.5827,-3.7086,-3.7819,-3.9391,-4.0785,-4.1533,-4.3567,-4.506,-4.5213,-4.6533,-4.7506,-4.7643,-4.7768,-4.8217,-4.8976,-4.9326,-4.9754,-5.0363,-5.071,-5.0891,-5.0891,-5.1141,-5.1298,-5.1298,-5.1538,-5.174,-5.1907,-5.2197,-5.2384,-5.2546,-5.285,-5.2969,-5.2987,-5.3639,-5.3958,-5.408,-5.4875,-5.4894,-5.4389,-5.3836,-5.3622,-5.3683,-5.3683,-5.3689,-5.376,-5.3629,-5.3656,-5.3714,0.0,0.0,0.0,0.0,0.0,0.0,0.0,0.0,0.0,0.0,0.0,0.0,0.0,0.0,0.0,0.0,0.0,0.0,0.0,0.0,0.0,0.0,0.0,0.0,0.0,0.0,0.0,0.0,0.0,0.0,0.0,0.0,0.0,0.0,0.0,0.0,0.0,0.0,0.0,0.0,0.0,0.0,-3.3818,-3.4027,-3.3349,-3.2398,-3.2446,-3.2594,-3.2678,-3.2087,-3.1974,-3.1823,-3.0575,-3.0672,-3.1118,-3.0526,0.0,-3.1526,-3.1526,-3.1526,-3.1704,-3.2417,-3.2818,-3.3399,0.0,0.0,-3.6837,-3.7566,-3.8874,-3.9972,-4.0163,-4.2061,-4.3685,-4.3923,-4.5385,-4.6769,-4.7445,-4.7979,-4.8497,-4.9146,-4.8942,-4.901,-4.9804,-5.0142,-5.031,-5.0397,-5.071,-5.0891,-5.0891,-5.1141,-5.1298,-5.1298,-5.1538,-5.174,-5.1907,-5.2754,-5.3243,-5.3358,-5.4243,-5.4635,-5.4635,-5.4725,-5.4792,-5.488,-5.5111,-5.525,-5.5249,-5.5157,-5.5229,-5.5317,-5.5317,-5.5317,-5.5177,-5.3852,-5.3518,-5.3714,0.0,0.0,0.0,0.0,0.0,0.0,0.0,0.0,0.0,0.0,0.0,0.0,0.0,0.0,0.0,0.0,0.0,0.0,0.0,0.0,0.0,0.0,0.0,0.0,0.0,0.0,0.0,0.0,0.0,0.0,0.0,0.0,0.0,0.0,0.0,0.0,0.0,0.0,0.0,0.0,0.0,0.0,-3.3879,-3.3691,-3.313,-3.2453,-3.2648,-3.2843,0.0,0.0,-3.253,-3.2222,-3.1636,-3.1499,-3.1534,-3.1246,-3.1581,0.0,-3.2514,-3.2935,-3.3404,0.0,-3.5131,-3.6102,-3.6725,-3.7969,-3.9106,-3.9421,-4.0282,-4.1316,-4.2309,-4.338,-4.4423,-4.5454,-4.6617,-4.7564,-4.7868,-4.8455,-4.901,-4.9453,-4.9375,-4.9498,-4.9976,-5.0149,-5.0302,-5.0397,-5.062,-5.0801,-5.0891,-5.1105,-5.1405,-5.1953,-5.218,-5.2549,-5.3098,-5.3591,-5.3886,-5.4035,-5.4494,-5.4773,-5.4925,-5.5341,-5.5825,-5.637,-5.5964,-5.5858,-5.5934,-5.5505,-5.535,-5.5485,-5.5485,-5.553,-5.5544,-5.4969,-5.4815,-5.4917,0.0,0.0,0.0,0.0,0.0,0.0,0.0,0.0,0.0,0.0,0.0,0.0,0.0,0.0,0.0,0.0,0.0,0.0,0.0,0.0,0.0,0.0,0.0,0.0,0.0,0.0,0.0,0.0,0.0,0.0,0.0,0.0,0.0,0.0,0.0,0.0,0.0,0.0,0.0,0.0,0.0,0.0,-3.3605,-3.3368,-3.2885,-3.2453,-3.2773,-3.2772,0.0,0.0,-3.2677,-3.2285,-3.2045,-3.2088,-3.2126,-3.1934,-3.2369,-3.3048,-3.3777,-3.4473,0.0,-3.5882,-3.7215,-3.8412,-3.8625,-3.9847,-4.0978,-4.0978,-4.169,-4.2709,-4.3922,-4.4573,-4.5369,-4.6529,-4.7535,-4.8162,-4.8223,-4.8785,-4.9229,-4.9428,-4.959,-4.9784,-4.9918,-5.0092,-5.0246,-5.0415,-5.0547,-5.0675,-5.0891,-5.1246,-5.1723,-5.2395,-5.2786,-5.3317,-5.3922,-5.4329,-5.4591,-5.4694,-5.5029,-5.5306,-5.5509,-5.6084,-5.6695,-5.732,-5.6739,-5.6552,-5.6642,-5.6059,-5.5869,-5.6008,-5.6008,-5.6099,-5.6208,-5.6316,-5.6103,-5.5804,0.0,0.0,0.0,0.0,0.0,0.0,0.0,0.0,0.0,0.0,0.0,0.0,0.0,0.0,0.0,0.0,0.0,0.0,0.0,0.0,0.0,0.0,0.0,0.0,0.0,0.0,0.0,0.0,0.0,0.0,0.0,0.0,0.0,0.0,0.0,0.0,0.0,0.0,0.0,0.0,0.0,0.0,-3.3072,-3.3315,-3.2982,-3.2453,-3.2773,0.0,0.0,0.0,-3.2333,-3.2206,-3.146,-3.2358,0.0,-3.288,-3.3802,-3.525,-3.6011,0.0,-3.7404,-3.8116,-3.9072,-4.0017,-4.0721,-4.1692,-4.2452,-4.2452,-4.3595,-4.4605,-4.4655,-4.6034,-4.7158,-4.7362,-4.8186,-4.8798,-4.8968,-4.909,-4.9229,-4.9229,-4.953,-4.9708,-4.9708,-5.0017,-5.0246,-5.0415,-5.0547,-5.0675,-5.0891,-5.1721,-5.2181,-5.2198,-5.3229,-5.3762,-5.3833,-5.483,-5.5364,-5.5382,-5.631,-5.6827,-5.693,-5.7102,-5.717,-5.7188,-5.717,-5.727,-5.7351,-5.7333,-5.7413,-5.7528,-5.7528,-5.7624,-5.7719,-5.7719,-5.6905,-5.5804,0.0,0.0,0.0,0.0,0.0,0.0,0.0,0.0,0.0,0.0,0.0,0.0,0.0,0.0,0.0,0.0,0.0,0.0,0.0,0.0,0.0,0.0,0.0,0.0,0.0,0.0,0.0,0.0,0.0,0.0,0.0,0.0,0.0,0.0,0.0,0.0,0.0,0.0,0.0,0.0,0.0,0.0,-3.295,-3.2302,-3.1921,-3.1728,0.0,0.0,0.0,0.0,0.0,0.0,-3.1981,-3.2739,-3.3793,-3.4239,-3.5101,-3.6189,-3.7371,0.0,-3.8311,-3.9493,-4.0495,-4.1275,-4.1655,-4.244,-4.3129,-4.3188,-4.3645,-4.4125,-4.4605,-4.5701,-4.6658,-4.7328,-4.8157,-4.8849,-4.9001,-4.9063,-4.9107,-4.9168,-4.9411,-4.959,-4.9708,-4.9918,-5.0092,-5.0246,-5.0397,-5.0791,-5.1444,-5.1874,-5.2599,-5.375,-5.4254,-5.4755,-5.5397,-5.5865,-5.6098,-5.6206,-5.6616,-5.6847,-5.6899,-5.7003,-5.7054,-5.7087,-5.7138,-5.7257,-5.7257,-5.7257,-5.7356,-5.7455,-5.7455,-5.7553,-5.7649,-5.7649,-5.7463,-5.7143,0.0,0.0,0.0,0.0,0.0,0.0,0.0,0.0,0.0,0.0,0.0,0.0,0.0,0.0,0.0,0.0,0.0,0.0,0.0,0.0,0.0,0.0,0.0,0.0,0.0,0.0,0.0,0.0,0.0,0.0,0.0,0.0,0.0,0.0,0.0,0.0,0.0,0.0,0.0,0.0,0.0,0.0,-3.1886,-3.1275,-3.1043,0.0,0.0,0.0,0.0,0.0,0.0,-3.1887,-3.1887,-3.2914,-3.4274,-3.5227,-3.6217,-3.7307,-3.8472,-3.9153,-3.9752,-4.0658,-4.1541,-4.2199,-4.2337,-4.2922,-4.3432,-4.3492,-4.3767,-4.4141,-4.4605,-4.5424,-4.6312,-4.717,-4.7876,-4.8467,-4.8861,-4.894,-4.9001,-4.9107,-4.929,-4.9471,-4.959,-4.9801,-4.9976,-5.0189,-5.0545,-5.1024,-5.1756,-5.2428,-5.3313,-5.4486,-5.4882,-5.544,-5.6123,-5.6235,-5.6401,-5.6546,-5.6635,-5.6742,-5.6742,-5.6847,-5.6951,-5.6951,-5.7003,-5.7054,-5.7054,-5.7105,-5.7188,-5.7239,-5.7307,-5.7388,-5.7553,-5.7553,-5.7601,-5.7745,0.0,0.0,0.0,0.0,0.0,0.0,0.0,0.0,0.0,0.0,0.0,0.0,0.0,0.0,0.0,0.0,0.0,0.0,0.0,0.0,0.0,0.0,0.0,0.0,0.0,0.0,0.0,0.0,0.0,0.0,0.0,0.0,0.0,0.0,0.0,0.0,0.0,0.0,0.0,0.0,0.0,0.0,-3.0061,-3.0278,0.0,0.0,0.0,0.0,0.0,0.0,0.0,0.0,-3.1334,-3.2978,-3.5011,-3.5878,-3.7213,-3.8618,-3.9379,-4.0561,-4.1581,-4.1614,-4.2255,-4.2899,-4.2899,-4.3146,-4.3372,-4.3372,-4.4037,-4.4622,0.0,0.0,-4.6043,-4.6962,-4.7237,-4.7709,-4.8618,-4.8861,-4.9001,0.0,0.0,0.0,0.0,-4.959,-4.9842,-5.0241,-5.0899,-5.1448,-5.1839,-5.3311,-5.4174,-5.4366,-5.5203,-5.5764,-5.5918,-5.6123,-5.6235,-5.6401,-5.6546,-5.66,-5.66,-5.6742,-5.6794,-5.6794,-5.6794,-5.6794,-5.6794,-5.6951,-5.7003,-5.6984,-5.7156,-5.7257,-5.7388,-5.7406,-5.7486,-5.7601,0.0,0.0,0.0,0.0,0.0,0.0,0.0,0.0,0.0,0.0,0.0,0.0,0.0,0.0,0.0,0.0,0.0,0.0,0.0,0.0,0.0,0.0,0.0,0.0,0.0,0.0,0.0,0.0,0.0,0.0,0.0,0.0,0.0,0.0,0.0,0.0,0.0,0.0,0.0,0.0,0.0,0.0,-2.9947,0.0,0.0,0.0,0.0,0.0,0.0,0.0,0.0,0.0,0.0,-3.4473,-3.568,-3.7191,-3.8286,-3.9311,-4.0691,-4.1306,-4.1695,-4.2229,-4.2504,-4.2713,-4.2837,-4.3068,-4.3235,-4.3372,-4.3641,-4.3893,0.0,0.0,0.0,-4.5496,-4.6569,0.0,-4.7928,-4.8602,0.0,-4.9001,0.0,-4.929,-4.9488,-4.959,-5.0007,-5.0828,-5.1153,-5.1859,-5.308,-5.377,-5.436,-5.4944,-5.5408,-5.5706,-5.5764,-5.6067,-5.6197,-5.6235,-5.6401,-5.6437,-5.6455,-5.66,-5.6653,-5.6653,-5.6742,-5.6794,-5.6794,-5.6847,-5.6847,-5.6847,-5.7003,-5.7087,-5.7087,-5.7188,-5.7356,-5.7455,0.0,0.0,0.0,0.0,0.0,0.0,0.0,0.0,0.0,0.0,0.0,0.0,0.0,0.0,0.0,0.0,0.0,0.0,0.0,0.0,0.0,0.0,0.0,0.0,0.0,0.0,0.0,0.0,0.0,0.0,0.0,0.0,0.0,0.0,0.0,0.0,0.0,0.0,0.0,0.0,0.0,0.0,0.0,0.0,0.0,0.0,0.0,0.0,0.0,0.0,0.0,-3.1571,-3.371,-3.4975,-3.5928,-3.7559,0.0,-3.9978,-4.1274,-4.1792,-4.2132,-4.2537,-4.2634,-4.2634,-4.2759,-4.2639,-4.2577,-4.2758,-4.2631,0.0,-4.2593,-4.2982,0.0,0.0,0.0,0.0,-4.7402,-4.8074,-4.8585,0.0,-4.9063,0.0,-4.935,-4.9821,-5.0455,-5.1425,-5.164,-5.226,-5.3532,-5.4174,-5.472,-5.5182,-5.5472,-5.5666,-5.5706,-5.5936,-5.6123,-5.6197,-5.6308,-5.6346,-5.6401,-5.651,-5.6492,-5.6492,-5.66,-5.6653,-5.6653,-5.6707,-5.6689,-5.676,-5.6847,-5.6899,-5.6899,-5.7003,-5.7105,-5.7239,0.0,0.0,0.0,0.0,0.0,0.0,0.0,0.0,0.0,0.0,0.0,0.0,0.0,0.0,0.0,0.0,0.0,0.0,0.0,0.0,0.0,0.0,0.0,0.0,0.0,0.0,0.0,0.0,0.0,0.0,0.0,0.0,0.0,0.0,0.0,0.0,0.0,0.0,0.0,0.0,0.0,0.0,0.0,0.0,0.0,0.0,0.0,0.0,0.0,0.0,-3.1286,-3.1713,-3.3783,-3.511,-3.6158,-3.77,-3.9253,-4.0578,-4.1455,-4.2164,-4.2634,-4.2634,-4.2634,-4.2601,-4.252,-4.2142,-4.1776,-4.1841,0.0,-4.1238,-4.1368,-4.1409,-4.1839,-4.3115,0.0,-4.4649,-4.6692,-4.7413,-4.8017,-4.8781,-4.8951,-4.9063,-4.9168,-5.0015,-5.0967,-5.1922,-5.22,-5.2762,-5.3644,-5.4504,-5.5035,-5.5199,-5.5431,-5.5566,-5.5666,-5.5822,-5.5993,-5.6123,-5.6123,-5.6235,-5.6401,-5.6401,-5.6401,-5.6401,-5.6401,-5.6401,-5.6401,-5.6546,-5.66,-5.66,-5.6689,-5.6794,-5.6794,-5.6794,-5.6899,-5.7003,0.0,0.0,0.0,0.0,0.0,0.0,0.0,0.0,0.0,0.0,-1.6022,-1.6298,0.0,0.0,0.0,0.0,0.0,0.0,0.0,0.0,0.0,0.0,0.0,0.0,0.0,0.0,0.0,0.0,0.0,0.0,0.0,0.0,0.0,0.0,0.0,0.0,0.0,0.0,0.0,0.0,0.0,0.0,0.0,0.0,0.0,0.0,0.0,0.0,0.0,0.0,-3.1602,-3.2455,-3.4541,-3.6131,-3.7504,-3.9218,-4.0315,-4.1179,-4.2137,-4.2537,-4.2634,-4.2634,-4.2634,-4.2472,-4.1889,-4.1785,0.0,0.0,-4.1165,-4.1238,-4.1368,-4.1409,-4.1491,-4.1756,0.0,0.0,0.0,-4.6438,-4.777,0.0,-4.8646,-4.9063,-4.9168,-5.0015,-5.0967,-5.1922,-5.2777,-5.3529,-5.4333,-5.4648,-5.4948,-5.5199,-5.5431,-5.5507,-5.5507,-5.5666,-5.5764,-5.5782,-5.5879,-5.6049,-5.6235,-5.6235,-5.629,-5.6401,-5.6401,-5.6401,-5.6401,-5.6455,-5.6437,-5.6455,-5.66,-5.6635,-5.6653,-5.6742,-5.6794,-5.6847,0.0,0.0,0.0,0.0,0.0,0.0,0.0,-1.5112,-1.5504,-1.5964,-1.6175,-1.6318,-1.6436,-1.6577,-1.6761,0.0,0.0,0.0,0.0,0.0,0.0,0.0,0.0,0.0,0.0,0.0,-1.9905,-2.075,0.0,0.0,0.0,-2.3183,-2.3799,0.0,0.0,0.0,0.0,0.0,0.0,0.0,0.0,0.0,0.0,0.0,0.0,0.0,0.0,0.0,0.0,0.0,-3.1681,-3.2681,-3.4731,-3.5853,-3.6859,-3.9361,-4.0347,-4.0906,-4.2217,-4.2634,-4.2634,-4.2634,-4.2359,-4.2002,-4.1646,0.0,0.0,0.0,-3.9319,-3.8903,-3.9119,0.0,0.0,0.0,0.0,0.0,0.0,0.0,0.0,-4.7808,-4.8562,-4.9001,-4.9124,-5.0266,-5.127,-5.1833,-5.3055,-5.4006,-5.4494,-5.4762,-5.4992,-5.5199,-5.5431,-5.5507,-5.5507,-5.5549,-5.5607,-5.5706,-5.5764,-5.5861,-5.6049,-5.6049,-5.6106,-5.6162,-5.6162,-5.6162,-5.6162,-5.6162,-5.6217,-5.629,-5.6346,-5.6437,-5.6492,-5.6546,-5.6653,-5.6707,0.0,0.0,0.0,0.0,0.0,0.0,0.0,-1.5354,-1.5748,-1.5913,-1.6044,-1.6188,-1.6362,-1.6534,-1.6718,0.0,0.0,0.0,0.0,0.0,0.0,0.0,0.0,0.0,0.0,0.0,0.0,-2.0019,-2.0735,0.0,0.0,0.0,0.0,0.0,-2.3795,-2.4197,0.0,0.0,0.0,0.0,0.0,-2.5591,0.0,0.0,0.0,0.0,0.0,0.0,0.0,0.0,-3.146,-3.2376,-3.4336,-3.5347,-3.6353,-3.9074,-4.0107,-4.0633,-4.1975,-4.2407,-4.2407,-4.2407,-4.1873,-4.1274,-4.0966,-3.959,0.0,0.0,-3.7478,-3.6795,-3.7051,0.0,-3.8212,0.0,-4.0117,0.0,0.0,0.0,0.0,0.0,-4.8325,0.0,-4.8984,-5.0544,-5.1617,-5.1743,-5.3318,-5.4303,-5.4512,-5.4807,-5.5053,-5.5139,-5.5354,-5.5448,-5.5507,-5.5507,-5.5566,-5.5666,-5.5666,-5.5706,-5.5861,-5.5861,-5.5861,-5.5918,-5.5918,-5.5918,-5.5918,-5.5918,-5.5975,-5.6123,-5.6123,-5.6179,-5.6273,-5.6346,-5.6437,-5.6492,0.0,0.0,0.0,0.0,0.0,0.0,0.0,-1.5579,-1.5715,-1.5792,-1.5957,-1.6088,-1.6188,-1.6405,-1.6565,0.0,0.0,0.0,0.0,0.0,0.0,0.0,0.0,0.0,0.0,0.0,0.0,-1.9391,-2.0119,0.0,0.0,0.0,0.0,0.0,0.0,-2.3184,-2.3496,0.0,0.0,0.0,0.0,0.0,0.0,0.0,0.0,0.0,0.0,0.0,0.0,0.0,0.0,-3.1571,-3.304,-3.5236,-3.7524,-3.877,0.0,0.0,-4.1569,-4.1662,-4.1662,-4.1662,-4.1128,-4.0254,-3.8991,0.0,0.0,-3.7098,-3.6774,-3.6795,-3.7051,-3.7168,-3.745,0.0,0.0,-4.0093,0.0,0.0,0.0,0.0,0.0,0.0,-4.8934,-5.0544,-5.1617,-5.1743,-5.3461,-5.4512,-5.4512,-5.4717,-5.4886,-5.4974,-5.5139,-5.5354,-5.5507,-5.5507,-5.5507,-5.5507,-5.5507,-5.5607,-5.5706,-5.5706,-5.5746,-5.5918,-5.5918,-5.5918,-5.5918,-5.5918,-5.5918,-5.5918,-5.5918,-5.5918,-5.5975,-5.6123,-5.6253,-5.6235,0.0,0.0,0.0,0.0,0.0,0.0,-1.5363,-1.557,-1.5614,-1.5792,-1.5913,-1.6044,-1.62,-1.6362,-1.6491,-1.6675,0.0,0.0,0.0,0.0,0.0,0.0,0.0,0.0,0.0,0.0,-1.8533,-1.9183,-1.9992,0.0,0.0,0.0,0.0,0.0,0.0,-2.3112,-2.3319,-2.3363,0.0,0.0,0.0,0.0,0.0,0.0,0.0,0.0,0.0,0.0,0.0,0.0,0.0,0.0,-3.2724,-3.4067,0.0,0.0,-3.9038,-3.9978,-4.0744,-4.0917,-4.0917,-4.0917,-4.0075,-3.9088,-3.8537,0.0,-3.6385,-3.5527,-3.507,-3.4905,-3.5066,-3.5479,-3.6025,-3.6771,0.0,0.0,-4.0867,0.0,0.0,-4.6329,-4.7325,0.0,-4.8934,-5.0418,-5.1783,-5.3024,-5.3977,-5.4512,-5.4512,-5.4717,-5.4842,-5.4992,-5.5139,-5.5277,-5.5507,-5.5507,-5.5507,-5.5507,-5.5507,-5.5507,-5.5549,-5.5549,-5.5607,-5.5666,-5.5666,-5.5666,-5.5666,-5.5666,-5.5706,-5.5764,-5.5764,-5.5804,-5.5918,-5.5993,-5.5993,-5.6049,0.0,0.0,0.0,0.0,0.0,-1.4644,-1.5398,-1.5513,-1.5558,-1.5792,-1.5869,-1.6001,-1.62,-1.6275,-1.6405,-1.662,-1.6791,0.0,0.0,0.0,0.0,0.0,0.0,0.0,0.0,0.0,-1.8631,-1.91,-2.0117,-2.0922,0.0,0.0,-2.2706,-2.2857,0.0,0.0,0.0,0.0,0.0,0.0,0.0,0.0,0.0,0.0,0.0,0.0,0.0,0.0,0.0,0.0,0.0,0.0,0.0,0.0,0.0,0.0,-3.779,-3.8584,-3.9628,-3.9719,-3.9606,-3.9816,-3.8812,-3.7728,0.0,0.0,-3.4904,-3.4365,-3.3738,-3.3321,-3.3458,-3.4071,-3.4816,0.0,0.0,-3.9093,-4.04,0.0,0.0,0.0,0.0,-4.797,-4.8917,-5.0418,-5.2102,-5.3878,-5.4321,-5.4512,-5.4512,-5.4637,-5.4824,-5.4992,-5.5096,-5.5294,-5.5507,-5.5507,-5.5507,-5.5507,-5.5507,-5.5507,-5.5507,-5.5507,-5.5507,-5.5507,-5.5507,-5.5507,-5.5507,-5.5507,-5.5566,-5.5666,-5.5666,-5.5706,-5.5822,-5.5804,-5.5861,-5.5861,0.0,0.0,0.0,0.0,0.0,0.0,-1.5398,-1.5513,-1.5558,-1.5792,-1.5792,-1.5881,-1.6156,-1.62,-1.6275,-1.6479,-1.6748,0.0,0.0,0.0,0.0,0.0,0.0,0.0,0.0,0.0,-1.8975,-1.91,-2.0434,-2.1226,-2.152,-2.2238,-2.2675,-2.2795,0.0,0.0,0.0,0.0,0.0,0.0,0.0,0.0,0.0,0.0,0.0,0.0,0.0,0.0,0.0,0.0,0.0,0.0,0.0,0.0,0.0,0.0,-3.635,-3.711,-3.8173,-3.7906,-3.7517,-3.8246,-3.7371,-3.6194,0.0,0.0,-3.4203,-3.3722,-3.3027,-3.2562,-3.2696,-3.3292,-3.4038,-3.4783,-3.6158,0.0,-4.0251,-4.1364,0.0,0.0,0.0,-4.7378,-4.8866,-5.0669,-5.2438,-5.3878,-5.4321,-5.4512,-5.4512,-5.4512,-5.4637,-5.4992,-5.4992,-5.5191,-5.5507,-5.5507,-5.5507,-5.5507,-5.5507,-5.5507,-5.5507,-5.5507,-5.5507,-5.5507,-5.5507,-5.5507,-5.5507,-5.5507,-5.5507,-5.5507,-5.5507,-5.5507,-5.5507,-5.5666,-5.5706,-5.5706,0.0,0.0,0.0,0.0,0.0,0.0,0.0,-1.5513,-1.5558,-1.5792,-1.5792,-1.5881,-1.6156,-1.62,-1.6275,-1.6479,-1.6748,0.0,0.0,0.0,0.0,0.0,0.0,0.0,0.0,0.0,-1.9181,-1.9722,-2.0643,-2.1436,-2.2101,-2.2469,-2.2675,-2.2795,-2.2857,-2.3068,0.0,0.0,0.0,0.0,0.0,0.0,-2.4082,0.0,0.0,0.0,0.0,0.0,0.0,0.0,0.0,0.0,0.0,0.0,0.0,0.0,0.0,0.0,-3.6718,-3.6805,-3.6675,-3.6918,-3.5934,-3.4866,-3.4673,0.0,-3.2886,-3.2225,-3.1984,-3.1924,-3.1951,-3.2547,-3.3276,-3.4021,-3.581,0.0,0.0,0.0,0.0,-4.6144,-4.7545,-4.8944,-5.0561,-5.1344,-5.2438,-5.399,-5.4367,-5.4512,-5.4512,-5.4512,-5.462,-5.4992,-5.4992,-5.5191,-5.5507,-5.5507,-5.5507,-5.5507,-5.5507,-5.5507,-5.5507,-5.5507,-5.5507,-5.5507,-5.5507,-5.5507,-5.5507,-5.5507,-5.5507,-5.5507,-5.5507,-5.5507,-5.5507,-5.5566,-5.5549,-5.5549,0.0,0.0,0.0,0.0,0.0,0.0,0.0,-1.5513,-1.5558,-1.5792,-1.5792,-1.5881,-1.6156,-1.62,-1.6275,-1.6479,-1.6748,0.0,0.0,0.0,0.0,0.0,0.0,0.0,0.0,-1.8805,-1.9576,-2.0343,-2.1042,-2.1713,-2.2324,-2.2509,-2.2615,-2.2735,-2.2857,-2.3023,0.0,0.0,0.0,0.0,0.0,0.0,-2.394,0.0,0.0,0.0,0.0,0.0,0.0,0.0,0.0,0.0,0.0,0.0,0.0,0.0,-3.1934,0.0,0.0,-3.4894,-3.4748,-3.5043,-3.4298,0.0,0.0,0.0,-3.1973,-3.1572,-3.1318,-3.1246,-3.1527,-3.2199,-3.2928,-3.3673,-3.5693,0.0,0.0,0.0,0.0,-4.622,-4.8027,-4.9656,-5.1337,-5.168,-5.2501,-5.4055,-5.4367,-5.4512,-5.4512,-5.4575,-5.4762,-5.4992,-5.4992,-5.5191,-5.5507,-5.5507,-5.5507,-5.5507,-5.5507,-5.5507,-5.5507,-5.5507,-5.5507,-5.5507,-5.5507,-5.5507,0.0,-5.5507,-5.5507,-5.5507,-5.5507,-5.5507,-5.5507,-5.5507,-5.5507,-5.5507,0.0,0.0,0.0,0.0,0.0,0.0,0.0,-1.5513,-1.5558,-1.5792,-1.5792,-1.5881,-1.6156,-1.62,-1.6275,-1.6479,0.0,0.0,0.0,0.0,0.0,0.0,0.0,0.0,-1.858,-1.9371,-2.0147,-2.0896,-2.1545,-2.2005,-2.224,-2.2577,-2.2744,-2.2744,-2.2884,-2.3036,0.0,0.0,0.0,0.0,0.0,0.0,0.0,0.0,0.0,0.0,0.0,0.0,0.0,0.0,0.0,0.0,0.0,0.0,0.0,0.0,0.0,0.0,0.0,0.0,0.0,0.0,0.0,0.0,0.0,0.0,0.0,-3.151,-3.1007,-3.0742,-3.1444,-3.2199,-3.2989,-3.374,0.0,0.0,0.0,-4.1328,0.0,0.0,-4.8105,-4.9639,-5.1337,-5.168,-5.2484,-5.4119,-5.4367,-5.4512,-5.4512,-5.4717,-5.4842,-5.4992,-5.4974,-5.5191,-5.5507,-5.5507,-5.5507,-5.5507,-5.5507,-5.5507,-5.5507,-5.5455,-5.542,-5.542,-5.5367,-5.5349,-5.5349,-5.5349,-5.5349,-5.5349,-5.5349,-5.5349,-5.5349,-5.5349,-5.5349,-5.5349,0.0,0.0,0.0,0.0,0.0,0.0,0.0,0.0,0.0,0.0,-1.5792,-1.5881,-1.6156,-1.62,-1.6275,0.0,0.0,0.0,0.0,0.0,0.0,0.0,0.0,0.0,-1.8425,-1.9647,-2.0498,-2.0896,-2.1973,-2.263,-2.2887,-2.3686,-2.4026,-2.4061,-2.3797,-2.3443,0.0,0.0,0.0,0.0,0.0,0.0,0.0,0.0,0.0,0.0,-2.4208,-2.425,0.0,0.0,0.0,0.0,0.0,0.0,0.0,0.0,-2.8339,-2.9083,-2.9548,0.0,-3.2091,-3.2348,-3.1981,-3.1532,0.0,0.0,0.0,0.0,0.0,0.0,0.0,0.0,0.0,0.0,0.0,0.0,-4.0387,0.0,0.0,-4.6701,-4.8209,-4.9824,-5.1543,-5.1867,-5.2609,-5.4328,-5.4431,-5.4575,-5.4717,-5.478,-5.4886,-5.5139,-5.5139,-5.5277,-5.5507,-5.5507,-5.5507,-5.5507,-5.5507,-5.5507,-5.549,-5.4875,-5.4595,-5.4559,-5.398,-5.3734,-5.3734,-5.3734,-5.3734,-5.3734,-5.3734,-5.3734,-5.3734,-5.3734,-5.3734,-5.3734,0.0,0.0,0.0,0.0,0.0,0.0,0.0,0.0,0.0,0.0,0.0,0.0,0.0,0.0,0.0,0.0,0.0,0.0,0.0,0.0,0.0,0.0,0.0,-1.8515,-1.8795,-1.993,-2.0893,-2.1724,-2.2373,-2.2992,-2.3547,-2.4085,-2.4405,-2.449,-2.4086,-2.3795,0.0,0.0,0.0,0.0,-2.3538,0.0,0.0,0.0,0.0,0.0,-2.4166,-2.4208,0.0,-2.4359,-2.4689,-2.5066,0.0,0.0,0.0,0.0,-2.7322,-2.8089,-2.8506,-2.977,-3.107,-3.125,-3.1046,-3.0822,0.0,0.0,0.0,0.0,0.0,0.0,0.0,0.0,0.0,0.0,-3.73,0.0,0.0,0.0,-4.6844,-4.6903,-4.8269,-4.9886,-5.173,-5.1929,-5.2688,-5.4391,-5.4592,-5.4717,-5.478,-5.4886,-5.5035,-5.5199,-5.5277,-5.5371,-5.5507,-5.5507,-5.5507,-5.5507,-5.5139,-5.4963,-5.4928,-5.4156,-5.3787,-5.377,-5.3348,-5.3173,-5.3173,-5.3173,-5.3173,-5.3173,-5.3173,-5.3173,-5.3173,-5.3173,-5.3173,-5.3173,0.0,0.0,0.0,0.0,0.0,0.0,0.0,0.0,0.0,0.0,0.0,0.0,0.0,0.0,0.0,0.0,0.0,0.0,0.0,0.0,0.0,0.0,0.0,-1.8808,-1.9421,-2.0321,-2.1397,-2.2705,-2.2884,-2.3409,-2.4258,-2.4416,-2.4568,-2.4647,-2.4332,-2.4174,0.0,0.0,-2.3304,-2.3422,-2.3466,0.0,0.0,0.0,0.0,0.0,0.0,0.0,0.0,-2.4276,-2.4359,-2.4498,-2.4564,0.0,0.0,0.0,0.0,0.0,-2.819,-2.9044,-2.9772,-3.013,-3.0189,-3.0231,-3.0443,0.0,0.0,0.0,0.0,0.0,0.0,0.0,0.0,0.0,0.0,0.0,-4.3247,-4.5432,-4.6878,-4.7155,-4.8396,-4.9957,-5.1682,-5.1984,-5.2698,-5.4236,-5.4648,-5.4797,-5.4842,-5.5035,-5.5199,-5.5259,-5.5431,-5.5455,-5.5332,-5.5455,-5.5455,-5.5314,-5.463,-5.4244,-5.4121,-5.3348,-5.2997,-5.2997,-5.2892,-5.2839,-5.2839,-5.2839,-5.2839,-5.2839,-5.2839,-5.2839,-5.2839,-5.2839,-5.2839,-5.2839,0.0,0.0,0.0,0.0,0.0,0.0,0.0,0.0,0.0,0.0,0.0,0.0,0.0,0.0,0.0,0.0,0.0,0.0,0.0,0.0,0.0,-1.8104,-1.8804,-1.9434,-2.0067,-2.1331,-2.2264,-2.2705,-2.3806,-2.4479,-2.4906,-2.5533,-2.5649,-2.5422,-2.5495,-2.4892,-2.3938,-2.3929,-2.3624,-2.3171,-2.3422,0.0,0.0,0.0,0.0,0.0,0.0,0.0,0.0,-2.4208,-2.4291,-2.4359,-2.4498,0.0,0.0,0.0,0.0,0.0,-2.7384,-2.8158,-2.9022,-2.9956,-3.0189,-3.0231,-3.0443,0.0,0.0,0.0,0.0,0.0,0.0,0.0,-3.5912,0.0,0.0,-4.2523,-4.4164,-4.5886,-4.724,-4.7852,-4.8941,-4.9992,-5.0961,-5.1735,-5.2536,-5.3511,-5.4354,-5.4842,-5.493,-5.5096,-5.5277,-5.5448,-5.5507,-5.5174,-5.4507,-5.5174,-5.5174,-5.4489,-5.4366,-5.3963,-5.3331,-5.2558,-5.219,-5.2155,-5.1523,-5.1242,-5.1242,-5.1242,-5.1242,-5.1242,-5.1242,-5.1242,-5.1242,-5.1242,-5.1242,-5.1242,0.0,0.0,0.0,0.0,0.0,0.0,0.0,0.0,0.0,0.0,0.0,0.0,0.0,0.0,0.0,0.0,0.0,0.0,0.0,0.0,0.0,-1.8715,-1.911,-1.9627,-2.0295,-2.1596,-2.262,-2.3216,-2.4166,-2.4882,-2.5486,-2.5983,-2.613,-2.595,-2.585,-2.5284,-2.4399,-2.4145,-2.3666,-2.3127,0.0,0.0,0.0,0.0,0.0,0.0,0.0,0.0,0.0,0.0,-2.4208,-2.4291,-2.4457,0.0,0.0,0.0,0.0,0.0,-2.707,-2.7724,-2.8382,-2.974,-3.0146,-3.0346,-3.0912,0.0,0.0,0.0,0.0,0.0,0.0,0.0,-3.7913,-3.9851,0.0,-4.3491,-4.5055,-4.6265,-4.7333,-4.8258,-4.9127,-5.0017,-5.0926,-5.1365,-5.1942,-5.284,-5.3784,-5.4209,-5.3875,-5.4419,-5.4589,-5.4261,-5.4261,-5.4068,-5.3699,-5.4068,-5.4068,-5.3699,-5.326,-5.2892,-5.2523,-5.1768,-5.1417,-5.14,-5.1049,-5.0891,-5.0891,-5.0891,-5.0891,-5.0891,-5.0891,-5.0891,-5.0891,-5.0891,-5.0891,-5.0891,0.0,0.0,0.0,0.0,0.0,0.0,0.0,0.0,0.0,0.0,0.0,0.0,0.0,0.0,0.0,0.0,0.0,0.0,0.0,0.0,-1.7794,-1.9086,-1.9243,-1.968,-2.059,-2.1862,-2.2906,-2.3695,-2.4457,-2.5174,-2.5893,-2.6111,-2.6286,-2.6258,-2.6073,-2.5662,-2.5052,-2.4399,-2.3792,-2.3301,0.0,0.0,0.0,0.0,0.0,0.0,0.0,0.0,0.0,0.0,0.0,0.0,0.0,0.0,0.0,-2.4726,-2.4926,-2.5409,-2.6974,-2.7458,-2.7985,-2.9756,-3.0321,-3.0642,-3.1331,0.0,0.0,0.0,0.0,0.0,0.0,-3.7614,0.0,-4.2185,-4.3047,-4.4067,-4.5898,-4.6686,-4.7517,-4.8706,-4.9382,-5.0066,-5.0787,-5.1011,-5.1457,-5.2164,-5.3105,-5.3439,-5.2944,-5.366,-5.377,-5.3208,-5.3173,-5.3085,-5.2909,-5.2909,-5.2909,-5.2892,-5.2295,-5.1926,-5.1733,-5.1154,-5.0891,-5.0891,-5.0891,-5.0891,-5.0891,-5.0891,-5.0891,-5.0891,-5.0891,-5.0891,-5.0891,-5.0891,-5.0891,-5.0891,0.0,0.0,0.0,0.0,0.0,0.0,0.0,0.0,0.0,0.0,0.0,0.0,0.0,0.0,0.0,0.0,0.0,0.0,0.0,0.0,-1.7807,-1.9203,-1.9301,-1.9867,-2.1148,-2.2447,-2.3291,-2.3695,-2.4845,-2.5605,-2.5893,-2.6056,-2.6179,-2.6272,-2.6414,-2.6197,-2.5676,-2.5038,-2.4399,-2.3821,-2.3316,0.0,0.0,0.0,0.0,0.0,0.0,0.0,0.0,0.0,0.0,0.0,0.0,0.0,-2.4589,-2.4589,-2.4806,-2.5346,-2.6974,-2.74,-2.7955,-3.0283,-3.1026,0.0,-3.1462,-3.2106,0.0,-3.4435,0.0,0.0,0.0,-3.879,-4.0713,-4.298,-4.3386,-4.4236,-4.6612,-4.7158,-4.7837,-4.9451,-4.9825,-5.0011,-5.008,-5.08,-5.1315,-5.1384,-5.2387,-5.2962,-5.2909,-5.3151,-5.3225,-5.3173,-5.3173,-5.2839,-5.2102,-5.2102,-5.2102,-5.2102,-5.2049,-5.1645,-5.0978,-5.0908,-5.0891,-5.0891,-5.0891,-5.0891,-5.0891,-5.0891,-5.0891,-5.0891,-5.0891,-5.0891,-5.0891,-5.0891,-5.0891,-5.0891,0.0,0.0,0.0,0.0,0.0,0.0,0.0,0.0,0.0,0.0,0.0,0.0,0.0,0.0,0.0,0.0,0.0,0.0,0.0,-1.7115,-1.785,-1.9248,-1.9301,-1.994,-2.1299,-2.2566,-2.3346,-2.3695,-2.5089,-2.5798,-2.5893,-2.6056,-2.6179,-2.6286,-2.6418,-2.6217,-2.5763,-2.5531,-2.4834,-2.3876,-2.3768,-2.3478,0.0,0.0,0.0,0.0,0.0,0.0,0.0,0.0,-2.3982,0.0,0.0,0.0,-2.4564,-2.4589,-2.508,-2.5794,-2.6978,-2.7652,-2.8549,-3.0293,0.0,0.0,0.0,0.0,-3.4352,-3.5363,-3.652,0.0,0.0,0.0,-4.2455,-4.3284,-4.4253,-4.549,-4.7005,-4.7717,-4.8558,-4.9739,-4.9935,-5.0011,-5.0011,-5.0391,-5.0662,-5.0719,-5.166,-5.2057,-5.1658,-5.2134,-5.2242,-5.1768,-5.1751,-5.161,-5.1312,-5.1312,-5.1312,-5.1312,-5.1312,-5.1171,-5.0891,-5.0891,-5.0891,-5.0891,-5.0891,-5.0891,-5.0891,-5.0891,-5.0891,-5.0891,-5.0891,-5.0891,-5.0891,-5.0891,-5.0891,-5.0891,0.0,0.0,0.0,0.0,0.0,0.0,0.0,0.0,0.0,0.0,0.0,0.0,0.0,0.0,0.0,0.0,0.0,0.0,-1.7086,-1.7157,-1.785,-1.9248,-1.9301,-1.9986,-2.1348,-2.2427,-2.3193,-2.3695,-2.5182,-2.5893,-2.5893,-2.6002,-2.6111,-2.6272,-2.6379,-2.6347,-2.6083,-2.5879,-2.5168,-2.4181,-2.4072,-2.3652,0.0,0.0,0.0,0.0,0.0,0.0,0.0,0.0,0.0,0.0,0.0,0.0,0.0,0.0,-2.5227,-2.6099,-2.6973,-2.7976,-2.9163,0.0,0.0,0.0,0.0,0.0,-3.5528,-3.6489,-3.8069,-3.9848,-4.1574,0.0,-4.3504,-4.3741,-4.4992,-4.6249,-4.7147,-4.8072,-4.8959,-4.9907,-5.0011,-5.0011,-5.0011,-5.0149,-5.0302,-5.0397,-5.1071,-5.1325,-5.0908,-5.1382,-5.1417,-5.0908,-5.0891,-5.0891,-5.0891,-5.0891,-5.0891,-5.0891,-5.0891,-5.0891,-5.0891,-5.0891,-5.0891,-5.0891,-5.0891,-5.0891,-5.0891,-5.0891,-5.0891,-5.0891,-5.0891,-5.0891,-5.0891,-5.0891,-5.0891,-5.0891,0.0,0.0,0.0,0.0,0.0,0.0,0.0,0.0,0.0,0.0,0.0,0.0,0.0,0.0,0.0,0.0,0.0,0.0,-1.7199,-1.7199,-1.785,-1.9234,-1.9301,-1.9986,-2.1334,-2.1993,-2.277,-2.3709,-2.5182,-2.5893,-2.5893,-2.5893,-2.6056,-2.6286,-2.6286,-2.65,-2.6736,-2.6068,-2.5429,-2.4728,-2.4152,-2.356,-2.3127,0.0,0.0,0.0,0.0,0.0,0.0,0.0,0.0,0.0,0.0,0.0,0.0,0.0,-2.5227,-2.6099,-2.6989,-2.8327,-2.9868,0.0,0.0,0.0,0.0,0.0,-3.6439,-3.793,-3.9584,-4.1359,-4.3094,-4.342,-4.3673,-4.4451,-4.5348,-4.6266,-4.7147,-4.8072,-4.8959,-4.9907,-5.0011,-5.0011,-5.0011,-5.0263,-5.0415,-5.0415,-5.071,-5.0891,-5.0891,-5.0891,-5.0891,-5.0891,-5.0891,-5.0891,-5.0891,-5.0891,-5.0891,-5.0873,-5.0873,-5.0873,-5.0873,-5.0873,-5.0873,-5.0873,-5.0873,-5.0873,-5.0873,-5.0873,-5.0873,-5.0873,-5.0891,-5.0891,-5.0891,-5.0891,-5.0891,-5.0891,0.0,0.0,0.0,0.0,0.0,0.0,0.0,0.0,0.0,0.0,0.0,0.0,0.0,0.0,0.0,0.0,0.0,0.0,-1.7199,-1.7199,-1.7652,-1.8622,-1.9075,-1.9739,-2.0738,-2.1986,-2.3165,-2.4332,-2.5392,-2.5893,-2.5893,-2.5893,-2.6056,-2.6286,-2.6286,-2.65,-2.6779,-2.6576,-2.585,-2.4771,-2.4583,-2.3905,-2.2978,0.0,0.0,0.0,0.0,0.0,0.0,0.0,0.0,0.0,0.0,0.0,0.0,-2.5181,-2.5889,-2.6679,-2.7589,-2.9032,0.0,0.0,0.0,0.0,0.0,0.0,0.0,0.0,-4.1264,-4.2567,-4.328,-4.3859,-4.4316,-4.4536,-4.592,-4.6977,-4.7273,-4.8592,-4.9694,-4.9976,-5.0011,-5.0011,-5.0011,-5.0263,-5.0415,-5.0415,-5.071,-5.0891,-5.0891,-5.0891,-5.0891,-5.0891,-5.0891,-5.0891,-5.0891,-5.0891,-5.061,-5.0048,-5.0048,-5.0048,-5.0048,-5.0048,-4.975,-4.9223,-4.9223,-4.924,-4.9311,-4.9837,-5.0048,-5.0101,-5.0662,-5.0891,-5.0891,-5.0891,-5.0891,-5.0891,0.0,0.0,0.0,0.0,0.0,0.0,0.0,0.0,0.0,0.0,0.0,0.0,0.0,0.0,0.0,0.0,0.0,0.0,0.0,-1.7199,-1.7573,-1.8355,-1.8968,-1.9766,-2.082,-2.2062,-2.3064,-2.3861,-2.5001,-2.5528,-2.5542,-2.5781,-2.6056,-2.6286,-2.6286,-2.65,-2.6779,-2.6779,-2.6025,-2.4785,-2.4785,-2.4032,-2.2902,0.0,0.0,0.0,0.0,0.0,0.0,0.0,0.0,0.0,0.0,0.0,0.0,-2.5346,-2.6115,-2.6889,-2.7771,0.0,0.0,0.0,0.0,0.0,0.0,0.0,0.0,0.0,-4.2317,-4.3188,-4.3642,-4.4193,-4.4587,-4.4587,-4.5835,-4.6845,-4.6845,-4.8134,-4.9097,-4.9097,-4.9097,-4.9097,-4.9097,-4.9288,-4.9437,-4.9493,-5.0008,-5.0363,-5.0417,-5.0715,-5.0891,-5.0891,-5.0575,-5.0399,-5.0399,-5.0101,-4.9697,-4.9223,-4.924,-4.9082,-4.8784,-4.9082,-4.896,-4.8521,-4.8521,-4.8556,-4.8626,-4.9065,-4.924,-4.9293,-5.0101,-5.0399,-5.0452,-5.0768,-5.0891,-5.0891,0.0,0.0,0.0,0.0,0.0,0.0,0.0,0.0,0.0,0.0,0.0,0.0,0.0,0.0,0.0,0.0,0.0,0.0,0.0,0.0,-1.756,-1.8289,-1.8955,-1.9986,-2.1348,-2.2185,-2.2622,-2.2622,-2.4231,-2.498,-2.4994,-2.5612,-2.6056,-2.6286,-2.6286,-2.65,-2.6779,-2.6779,-2.6025,-2.4785,-2.4785,-2.4032,-2.2902,-2.3037,0.0,0.0,0.0,0.0,0.0,0.0,0.0,0.0,0.0,0.0,0.0,-2.5339,-2.6119,-2.6904,0.0,0.0,0.0,0.0,0.0,0.0,0.0,0.0,-4.0918,-4.2499,0.0,-4.335,-4.4175,-4.444,-4.4587,-4.4587,-4.5443,-4.6088,-4.6071,-4.6979,-4.7662,-4.7717,-4.7717,-4.7717,-4.7717,-4.7793,-4.7939,-4.81,-4.8906,-4.9415,-4.9574,-5.0276,-5.068,-5.068,-4.996,-4.9574,-4.9574,-4.8872,-4.8486,-4.8415,-4.8468,-4.8064,-4.7309,-4.8064,-4.838,-4.831,-4.831,-4.8345,-4.8398,-4.8451,-4.8451,-4.8486,-4.9276,-4.9627,-4.9767,-5.0504,-5.0838,-5.0891,0.0,0.0,0.0,0.0,0.0,0.0,0.0,0.0,0.0,0.0,0.0,0.0,0.0,0.0,0.0,0.0,0.0,0.0,0.0,0.0,-1.7485,-1.7689,-1.893,-2.0183,-2.1396,-2.1787,-2.1987,-2.1987,-2.4021,-2.498,-2.4994,-2.5612,-2.6056,-2.6286,-2.6286,-2.65,-2.6779,-2.6779,-2.6054,-2.4878,-2.48,-2.4032,-2.2888,-2.2947,-2.3112,0.0,0.0,0.0,0.0,0.0,0.0,0.0,0.0,-2.4124,-2.448,-2.588,-2.6476,-2.6998,0.0,0.0,0.0,0.0,0.0,0.0,0.0,-4.0967,-4.1515,-4.2599,-4.3347,-4.3954,-4.4276,-4.444,-4.4587,-4.4587,-4.5348,-4.5976,-4.6088,-4.694,-4.755,-4.7662,-4.7717,-4.7717,-4.7717,-4.7793,-4.7885,-4.7939,-4.831,-4.8557,-4.861,-4.8872,-4.903,-4.903,-4.8854,-4.8766,-4.8766,-4.8608,-4.8222,-4.7643,-4.7643,-4.7239,-4.6502,-4.7292,-4.7292,-4.6663,-4.6663,-4.673,-4.6783,-4.7397,-4.7643,-4.7713,-4.8468,-4.9135,-4.9697,-4.9872,-5.0346,-5.0891,0.0,0.0,0.0,0.0,0.0,0.0,0.0,0.0,0.0,0.0,0.0,0.0,0.0,0.0,0.0,0.0,0.0,0.0,0.0,0.0,-1.7606,-1.8026,-1.9098,-2.0107,-2.0928,-2.1513,-2.1793,-2.1793,-2.335,-2.4236,-2.461,-2.5177,-2.572,-2.6233,-2.6286,-2.6433,-2.6645,-2.6779,-2.6054,-2.4892,-2.4863,-2.4094,-2.2888,-2.2888,-2.3068,-2.3319,-2.3319,0.0,0.0,0.0,0.0,0.0,0.0,0.0,-2.4407,-2.5577,-2.6293,-2.6923,0.0,0.0,0.0,0.0,0.0,0.0,0.0,-4.0893,-4.1567,-4.2501,-4.3423,-4.4097,-4.4196,-4.4384,-4.4587,-4.4587,-4.506,-4.5409,-4.5448,-4.6028,-4.645,-4.6488,-4.6559,-4.6613,-4.6613,-4.665,-4.6757,-4.6793,-4.7299,-4.7614,-4.7771,-4.8155,-4.8417,-4.8556,-4.817,-4.7977,-4.7977,-4.7608,-4.7222,-4.6835,-4.6835,-4.6625,-4.6189,-4.6642,-4.6625,-4.6172,-4.6172,-4.6172,-4.6256,-4.666,-4.6835,-4.6906,-4.7678,-4.8222,-4.8679,-4.9416,-4.996,-5.0364,0.0,0.0,0.0,0.0,0.0,0.0,0.0,0.0,0.0,0.0,0.0,0.0,0.0,0.0,0.0,0.0,0.0,0.0,0.0,0.0,0.0,-1.8623,-1.9317,-1.9958,-2.0481,-2.1348,-2.1793,-2.1793,-2.2594,-2.3322,-2.4118,-2.4699,-2.541,-2.6111,-2.6233,-2.6379,-2.651,-2.6712,-2.6112,-2.5052,-2.5052,-2.4268,-2.3062,-2.3062,-2.3155,-2.3319,-2.3319,-2.3436,-2.3595,-2.3595,0.0,0.0,0.0,0.0,-2.4304,-2.509,-2.5926,-2.6845,0.0,0.0,0.0,0.0,0.0,0.0,0.0,-4.0458,-4.1288,-4.2278,-4.3348,-4.4039,-4.4097,-4.4344,-4.457,-4.457,-4.4682,-4.4776,-4.4793,-4.4978,-4.514,-4.5177,-4.53,-4.5371,-4.5423,-4.5423,-4.5423,-4.5581,-4.6204,-4.6673,-4.6933,-4.7526,-4.798,-4.8136,-4.7538,-4.7187,-4.7187,-4.6555,-4.6172,-4.6172,-4.6172,-4.6172,-4.6172,-4.6172,-4.6172,-4.6172,-4.6172,-4.6172,-4.6172,-4.6172,-4.6172,-4.6242,-4.6941,-4.7274,-4.7538,-4.8819,-4.9451,-4.9785,0.0,0.0,0.0,0.0,0.0,0.0,0.0,0.0,0.0,0.0,0.0,0.0,0.0,0.0,0.0,0.0,0.0,0.0,0.0,0.0,0.0,-1.8737,-1.9361,-1.9958,-2.0481,-2.1348,-2.1793,-2.1793,-2.2161,-2.2915,0.0,0.0,-2.541,-2.6111,-2.6233,-2.6379,-2.651,-2.6712,-2.6358,-2.5662,-2.5662,-2.4907,-2.376,-2.376,-2.3549,-2.3319,-2.3319,-2.3436,-2.3595,-2.3595,-2.3595,0.0,0.0,0.0,-2.4204,-2.5032,-2.5867,-2.6681,0.0,0.0,0.0,0.0,0.0,0.0,0.0,0.0,-4.0654,-4.2179,-4.3248,-4.3956,-4.4097,-4.4196,-4.4384,-4.457,-4.4643,-4.4682,-4.4776,-4.4831,-4.4923,-4.5177,-4.5247,-4.5247,-4.5371,-4.5423,-4.5423,-4.5423,-4.5615,-4.5788,-4.5823,-4.6133,-4.6337,-4.6337,-4.635,-4.6379,-4.6379,-4.6274,-4.6172,-4.6172,-4.6172,-4.6172,-4.6172,-4.6172,-4.6172,-4.6172,-4.6172,-4.6172,-4.6172,-4.6172,-4.6172,-4.6239,-4.6344,-4.68,-4.7415,-4.7625,-4.8538,-4.9697,0.0,0.0,0.0,0.0,0.0,0.0,0.0,0.0,0.0,0.0,0.0,0.0,0.0,0.0,0.0,0.0,0.0,0.0,0.0,0.0,0.0,-1.8779,-1.9361,-1.9958,-2.0481,-2.1348,-2.1793,-2.1793,-2.2426,0.0,0.0,-2.4699,-2.5357,-2.6002,-2.6233,-2.6326,-2.6433,-2.6659,-2.6402,-2.5778,-2.5778,-2.5241,-2.4442,-2.4428,-2.4382,-2.4351,-2.4351,-2.4267,-2.4178,-2.4178,-2.3924,-2.3653,-2.3925,0.0,0.0,0.0,-2.5574,0.0,0.0,0.0,0.0,0.0,0.0,0.0,0.0,0.0,-4.0196,-4.0991,-4.222,-4.3323,-4.3972,-4.4196,-4.4367,-4.457,-4.4587,-4.4626,-4.4682,-4.472,-4.4831,-4.4978,-4.514,-4.5247,-4.53,-4.5371,-4.5423,-4.5423,-4.5476,-4.5528,-4.5581,-4.5718,-4.5821,-4.5871,-4.6023,-4.6073,-4.6073,-4.6172,-4.6172,-4.6172,-4.6172,-4.6172,-4.6172,-4.6172,-4.6172,-4.6172,-4.6172,-4.6172,-4.6172,-4.6172,-4.6172,-4.6172,-4.6172,-4.6432,-4.6783,-4.7222,-4.7819,-4.8521,0.0,0.0,0.0,0.0,0.0,0.0,0.0,0.0,0.0,0.0,0.0,0.0,0.0,0.0,0.0,0.0,0.0,0.0,0.0,0.0,0.0,-1.8981,-1.9591,-2.0107,-2.0481,-2.1348,-2.1793,-2.1793,0.0,0.0,-2.4118,-2.4699,-2.5303,0.0,-2.6179,-2.6286,-2.634,-2.6674,-2.6489,-2.6039,-2.6039,-2.5662,-2.511,-2.5081,-2.5112,-2.5191,-2.5191,-2.5038,-2.4821,-2.4821,-2.4537,-2.4132,-2.4157,-2.424,0.0,0.0,0.0,-2.6989,0.0,0.0,0.0,0.0,0.0,0.0,0.0,0.0,-3.9516,-3.9989,-4.1097,-4.2311,-4.353,-4.4021,-4.431,-4.4497,-4.457,-4.4587,-4.4587,-4.4682,-4.4776,-4.4793,-4.4995,-4.514,-4.5177,-4.53,-4.5284,-4.5147,-4.5303,-4.5337,-4.5286,-4.5459,-4.5632,-4.5736,-4.5871,-4.5885,-4.5676,-4.5583,-4.5576,-4.5593,-4.5593,-4.5642,-4.5642,-4.5642,-4.5747,-4.5958,-4.6102,-4.6172,-4.6172,-4.6172,-4.6172,-4.6172,-4.6172,-4.6172,-4.6242,-4.6871,-4.7222,-4.7573,0.0,0.0,0.0,0.0,0.0,0.0,0.0,0.0,0.0,0.0,0.0,0.0,-1.8342,-1.8448,-1.8588,-1.8688,-1.8787,0.0,0.0,0.0,0.0,-1.9646,-2.0188,0.0,-2.0495,-2.1348,-2.1793,0.0,0.0,0.0,-2.4118,-2.4699,-2.5303,-2.5893,-2.6179,-2.6286,-2.634,-2.6674,-2.6765,-2.6736,-2.6736,-2.6329,-2.5734,-2.5734,-2.5491,-2.5191,-2.5191,-2.5334,-2.5555,-2.5555,-2.554,-2.5405,-2.4927,-2.485,-2.4846,0.0,0.0,0.0,0.0,0.0,0.0,0.0,0.0,0.0,0.0,0.0,-3.8335,-3.9791,-4.0321,-4.0984,-4.2582,-4.3571,-4.4155,-4.431,-4.4514,-4.4587,-4.4587,-4.4643,-4.4682,-4.4776,-4.4831,-4.494,-4.5194,-4.5194,-4.4991,-4.4389,-4.501,-4.5113,-4.4423,-4.5131,-4.5615,-4.5632,-4.5718,-4.5473,-4.4791,-4.4139,-4.382,-4.382,-4.3962,-4.4009,-4.4009,-4.4009,-4.4431,-4.5203,-4.5923,-4.6172,-4.6172,-4.6172,-4.6172,-4.6172,-4.6172,-4.6172,-4.6239,-4.6274,-4.6765,-4.752,0.0,0.0,0.0,0.0,0.0,0.0,0.0,0.0,0.0,0.0,0.0,0.0,0.0,-1.9166,-1.9119,-1.8871,-1.8957,0.0,0.0,0.0,0.0,-2.017,-2.0386,-2.0671,-2.105,-2.1554,-2.1793,0.0,0.0,-2.3421,-2.4118,-2.4699,-2.5303,-2.5893,-2.6179,-2.6286,-2.634,-2.6674,-2.7012,-2.7389,-2.7389,-2.749,-2.7636,-2.7636,-2.7705,-2.7697,-2.7697,-2.7372,-2.6871,-2.6871,-2.6303,-2.557,-2.5484,-2.5243,-2.4982,-2.4912,-2.5697,-2.6787,0.0,0.0,0.0,0.0,0.0,0.0,-3.5651,-3.6804,-3.778,-3.8482,-3.9484,-4.0403,-4.1117,-4.2365,-4.3487,-4.4169,-4.4367,-4.444,-4.457,-4.4587,-4.4626,-4.4682,-4.4313,-4.4133,-4.4241,-4.3939,-4.3718,-4.3494,-4.3769,-4.3854,-4.3629,-4.387,-4.4076,-4.4076,-4.4177,-4.4188,-4.4007,-4.3777,-4.3637,-4.3637,-4.3685,-4.3733,-4.3733,-4.3733,-4.3842,-4.4157,-4.4907,-4.5618,-4.6172,-4.6172,-4.6122,-4.6073,-4.6073,-4.6023,-4.5922,-4.5922,-4.6114,-4.6584,0.0,0.0,0.0,0.0,0.0,0.0,0.0,0.0,0.0,-1.9862,0.0,0.0,0.0,0.0,-1.9785,-1.9525,-1.964,-1.9734,-1.9887,-2.0026,-2.028,-2.0765,-2.0779,-2.0969,-2.141,-2.1664,0.0,0.0,0.0,0.0,0.0,-2.4699,-2.5303,-2.5893,-2.6179,-2.6286,-2.6354,-2.6891,-2.7345,-2.7697,-2.7969,-2.8303,-2.8681,-2.8722,-2.889,-2.9098,-2.9167,-2.8821,-2.8248,-2.8248,-2.7515,-2.6572,-2.6444,-2.5893,-2.5363,-2.5584,-2.6238,-2.6991,-2.7548,0.0,0.0,0.0,0.0,-3.3585,-3.4462,-3.572,-3.691,-3.731,-3.8471,-3.9484,-3.9896,-4.1067,-4.2365,-4.3618,-4.3866,-4.408,-4.4463,-4.435,-4.4198,-4.4198,-4.363,-4.3243,-4.328,-4.3048,-4.274,-4.2602,-4.2926,-4.3011,-4.2785,-4.3026,-4.3214,-4.3214,-4.3005,-4.2964,-4.3062,-4.2867,-4.2745,-4.2745,-4.2775,-4.2805,-4.2805,-4.2805,-4.2962,-4.3241,-4.3746,-4.4579,-4.5705,-4.5968,-4.6023,-4.5922,-4.5922,-4.5871,-4.577,-4.577,-4.577,-4.6047,0.0,0.0,0.0,0.0,0.0,0.0,0.0,0.0,-1.9913,-2.0028,0.0,0.0,0.0,0.0,0.0,-2.0764,-2.0864,-2.0964,-2.1023,-2.1144,-2.1277,-2.1375,-2.1423,0.0,0.0,0.0,0.0,0.0,0.0,0.0,0.0,0.0,-2.5289,-2.5893,-2.6179,-2.6286,-2.6383,-2.7285,-2.7683,-2.781,-2.8448,-2.8739,-2.881,-2.8963,-2.9075,-2.9215,-2.9451,-2.956,-2.9669,-2.9639,-2.9205,-2.8532,-2.785,-2.6886,-2.6123,-2.635,-2.6948,-2.7612,0.0,0.0,0.0,0.0,0.0,0.0,-3.3655,-3.4635,-3.557,-3.6287,-3.7232,-3.8183,-3.8945,-3.9781,-4.0851,-4.2482,-4.2998,-4.3401,-4.4125,-4.3732,-4.3386,-4.3386,-4.2726,-4.2306,-4.2447,-4.243,-4.2227,-4.178,-4.2482,-4.2618,-4.1992,-4.2681,-4.3145,-4.3145,-4.2354,-4.1957,-4.1957,-4.141,-4.1093,-4.1093,-4.1134,-4.1209,-4.1209,-4.1209,-4.1627,-4.2375,-4.2392,-4.3245,-4.4655,-4.5455,-4.5752,-4.577,-4.577,-4.577,-4.577,-4.577,-4.577,-4.5996,0.0,0.0,0.0,0.0,0.0,-2.0426,-2.0426,-2.086,-2.118,0.0,0.0,0.0,-2.1744,-2.185,-2.189,-2.1943,-2.1719,-2.1621,-2.1672,-2.1471,-2.1375,-2.1423,-2.1423,-2.1423,-2.1423,0.0,0.0,0.0,0.0,-2.3048,-2.4118,-2.4287,-2.4882,0.0,-2.6056,-2.6233,-2.6383,-2.7285,-2.7998,-2.8477,-2.9116,-2.9914,-3.0742,-3.0922,-3.1395,-3.1928,-3.2123,-3.2005,-3.1629,-3.115,-3.0537,-2.9753,-2.8303,-2.7697,-2.7309,-2.6627,-2.6903,-2.7473,-2.7673,0.0,0.0,0.0,0.0,0.0,-3.272,-3.3689,-3.4552,-3.5486,-3.6375,-3.7216,-3.815,-3.8517,-3.9181,-4.0801,-4.1633,-4.2256,-4.2623,-4.2581,-4.2517,-4.2608,-4.1948,-4.1508,-4.156,-4.1172,-4.0865,-4.0711,-4.1096,-4.1246,-4.1071,-4.134,-4.1509,-4.1509,-4.1302,-4.1181,-4.1181,-4.1039,-4.0935,-4.0935,-4.0965,-4.0965,-4.0965,-4.0965,-4.1086,-4.1358,-4.1864,-4.2379,-4.2864,-4.4396,-4.5265,-4.5684,-4.5684,-4.5581,-4.5528,-4.5528,-4.5528,-4.5736,0.0,0.0,0.0,0.0,0.0,-2.1004,-2.1004,-2.139,-2.169,0.0,0.0,0.0,-2.2278,-2.2374,-2.2415,-2.2469,-2.2379,-2.2285,-2.2375,-2.2207,-2.2133,-2.2133,-2.1925,-2.1789,-2.1789,-2.1787,-2.1793,-2.1793,-2.2091,-2.269,-2.3659,-2.3991,-2.4638,-2.5528,0.0,0.0,0.0,-2.7573,-2.8277,-2.8782,-2.9943,-3.0858,-3.1555,-3.2017,-3.254,-3.3004,-3.3191,-3.3123,-3.2871,-3.2482,-3.1719,-3.0698,-2.9267,-2.8642,-2.8328,-2.7777,-2.7734,-2.7859,-2.8015,-2.842,-2.8936,-2.9486,0.0,0.0,-3.1534,-3.2657,-3.3643,-3.423,-3.5259,-3.6209,-3.679,-3.7275,-3.7873,-3.8768,-3.9674,-4.0634,-4.1753,-4.1765,-4.1687,-4.1724,-4.1187,-4.073,-4.073,-4.0442,-4.0238,-4.0305,-4.0453,-4.0551,-4.0583,-4.0745,-4.084,-4.084,-4.0888,-4.0888,-4.0888,-4.0888,-4.0888,-4.0888,-4.0888,-4.0888,-4.0888,-4.0888,-4.0888,-4.0905,-4.1336,-4.1698,-4.2127,-4.3502,-4.4454,-4.5079,-4.5407,-4.5476,-4.5423,-4.5423,-4.5423,-4.5648,0.0,0.0,-2.0582,-2.0752,-2.1217,-2.1581,-2.1637,-2.18,-2.1962,0.0,-2.2424,-2.2656,-2.2792,-2.2766,-2.285,-2.2959,-2.2976,-2.3058,-2.3178,-2.319,-2.3189,-2.3189,-2.2712,-2.2414,-2.2414,-2.2062,-2.1904,-2.1904,-2.2119,-2.2493,-2.3112,-2.3808,-2.4441,-2.5008,0.0,0.0,0.0,-2.788,-2.864,-2.9044,-3.0814,-3.1555,-3.1714,-3.2616,-3.3064,-3.3328,-3.3576,-3.3794,-3.3903,-3.3769,-3.2796,-3.142,-3.0507,-2.9765,-2.9255,-2.9357,-2.8996,-2.8537,-2.8604,-2.8684,-2.8842,-2.8873,-2.958,0.0,-3.0386,-3.1534,-3.2675,-3.2756,-3.402,-3.5163,-3.5245,-3.6069,-3.6748,-3.6882,-3.7546,-3.8844,-4.1017,-4.1017,-4.086,-4.086,-4.0374,-4.0087,-4.0087,-4.007,-4.0138,-4.0255,-4.0288,-4.0337,-4.0468,-4.0583,-4.0697,-4.0697,-4.0776,-4.0888,-4.0888,-4.0888,-4.0871,-4.0888,-4.0888,-4.0888,-4.0888,-4.0888,-4.0888,-4.0888,-4.0888,-4.125,-4.194,-4.2802,-4.3613,-4.4354,-4.513,-4.5423,-4.5423,-4.5423,-4.5423,-4.5648,0.0,-2.0494,-2.0815,-2.1255,-2.1782,-2.2216,-2.2344,-2.2898,-2.3449,-2.4077,-2.4723,-2.5084,-2.5158,-2.5158,-2.5205,-2.5374,-2.4646,-2.4273,-2.4428,-2.3663,-2.3189,-2.3189,-2.3067,-2.2999,-2.2999,-2.2707,-2.2525,-2.2525,-2.2328,-2.2493,-2.3112,-2.3808,-2.4441,-2.5008,0.0,0.0,0.0,-2.7883,-2.89,-3.0098,-3.1101,-3.1845,-3.2454,-3.3813,-3.4758,-3.5406,-3.6126,-3.6454,-3.6492,-3.5459,-3.3873,-3.2242,-3.1747,-3.1146,-3.0456,-2.9633,-2.9319,-2.9104,-2.8728,-2.8684,-2.8842,-2.8873,-2.9123,0.0,-3.0227,-3.0672,-3.107,-3.187,-3.274,-3.3614,-3.4364,-3.5165,-3.5936,-3.6645,-3.6962,-3.7614,-3.8885,-3.947,-3.9859,-3.9947,-3.9917,-3.9952,-3.9952,-4.0037,-4.0121,-4.0138,-4.0238,-4.0337,-4.0468,-4.0534,-4.0534,-4.0534,-4.0583,-4.0583,-4.0583,-4.0583,-4.0631,-4.0745,-4.0745,-4.0793,-4.0888,-4.0888,-4.0888,-4.0888,-4.0888,-4.0957,-4.1198,-4.2645,-4.3613,-4.4354,-4.513,-4.5423,-4.5423,-4.5423,-4.5423,-4.5648,-2.0507,-2.1049,-2.1568,-2.1845,-2.2417,-2.2942,-2.3327,-2.3859,-2.4425,-2.5055,-2.5517,-2.5824,-2.5824,-2.5887,-2.5998,-2.6184,-2.5775,-2.5633,-2.5797,-2.53,-2.4827,-2.4571,-2.4272,-2.3987,-2.3635,-2.3324,-2.3147,-2.3147,-2.3168,-2.3329,-2.3589,-2.4221,-2.4737,-2.5008,0.0,0.0,0.0,-2.7883,-2.8984,-3.0398,-3.1565,-3.2411,-3.3137,-3.4549,-3.5424,-3.5981,-3.6729,-3.7159,-3.7225,-3.5938,-3.4831,-3.383,-3.2791,-3.2027,-3.1353,-3.0584,-3.0166,-2.9766,-2.9187,-2.91,-2.9152,-2.8904,-2.8936,0.0,0.0,-3.01,-3.0544,-3.099,-3.179,-3.2482,-3.2967,-3.3713,-3.443,-3.4889,-3.566,-3.647,-3.7036,-3.7868,-3.8437,-3.8488,-3.864,-3.874,-3.8807,-3.884,-3.9091,-3.9512,-3.9596,-3.9848,-4.0271,-4.0387,-4.0387,-4.0387,-4.0485,-4.0485,-4.0485,-4.0485,-4.0534,-4.0583,-4.0583,-4.0631,-4.068,-4.068,-4.068,-4.068,-4.068,-4.068,-4.08,-4.231,-4.3219,-4.3786,-4.4923,-4.5423,-4.5423,-4.5423,-4.5423,-4.5596,-2.0991,-2.1707,-2.2347,-2.2447,-2.3056,-2.3695,-2.4187,-2.46,-2.512,-2.5882,-2.6179,-2.636,-2.6478,-2.667,-2.686,-2.6974,-2.7082,-2.7099,-2.7162,-2.7054,-2.6714,-2.609,-2.5615,-2.5073,-2.4476,-2.412,-2.384,-2.3782,-2.3942,-2.4067,-2.4118,-2.4699,-2.498,0.0,0.0,0.0,0.0,-2.8068,-2.9242,-3.0725,-3.1965,-3.2977,-3.379,-3.5067,-3.5828,-3.6295,-3.7043,-3.7456,-3.7419,-3.6267,-3.5714,-3.5269,-3.3819,-3.2831,-3.2114,-3.1689,-3.112,-3.0458,-2.9797,-2.9697,-2.9676,-2.9121,-2.9061,-2.914,0.0,0.0,0.0,-3.0194,-3.0894,-3.1517,-3.1565,-3.2336,-3.2966,-3.2966,-3.4105,-3.4972,-3.5071,-3.5827,-3.6588,-3.722,-3.7386,-3.7484,-3.7582,-3.7648,-3.7997,-3.8685,-3.892,-3.9242,-3.9834,-4.012,-4.0238,-4.0238,-4.0387,-4.0419,-4.0419,-4.0419,-4.0436,-4.0485,-4.0485,-4.0485,-4.0485,-4.0485,-4.0485,-4.0485,-4.0485,-4.0485,-4.0588,-4.2091,-4.2792,-4.3117,-4.4733,-4.5371,-4.5423,-4.5423,-4.5423,-4.5544,-2.2133,-2.2234,-2.2472,-2.2962,-2.3611,-2.4175,-2.4448,-2.5084,-2.5934,-2.713,-2.7771,-2.8294,-2.883,-2.9092,-2.9286,-2.9424,-2.908,-2.8756,-2.8424,-2.7895,-2.7339,-2.6742,-2.6647,-2.6321,-2.5697,-2.5269,-2.4806,-2.4391,-2.401,-2.3914,-2.4118,-2.4699,-2.498,0.0,-2.6188,0.0,0.0,-2.868,-3.0111,-3.1847,-3.2327,-3.3238,-3.4443,-3.572,-3.6691,-3.7505,-3.8514,-3.8582,-3.8167,-3.7434,-3.6447,-3.5355,-3.4721,-3.3774,-3.2798,-3.2257,-3.1719,-3.1136,-3.0489,-3.0392,-3.0339,-2.9822,-2.9797,-2.9769,-2.9233,0.0,-2.9294,-2.937,0.0,-3.0607,-3.0778,0.0,0.0,-3.2125,-3.2396,-3.2604,-3.2604,-3.281,-3.3999,-3.6787,-3.7236,-3.7336,-3.7319,-3.7533,-3.773,-3.7862,-3.8567,-3.9039,-3.9106,-3.9782,-4.0138,-4.0138,-4.0138,-4.0138,-4.0138,-4.0138,-4.0188,-4.0337,-4.0337,-4.0387,-4.0485,-4.0485,-4.0485,-4.0485,-4.0485,-4.0485,-4.0588,-4.2091,-4.2706,-4.2929,-4.4593,-4.53,-4.5423,-4.5423,-4.5423,-4.5544,-2.2309,-2.2573,-2.2862,-2.3027,-2.3834,-2.4502,-2.4897,-2.6246,-2.7535,-2.8438,-2.8752,-2.9131,-2.9719,-3.0058,-3.0392,-3.0823,-3.0599,-3.0363,-3.0174,-2.9604,-2.8845,-2.7895,-2.7841,-2.7406,-2.6457,-2.5949,-2.5684,-2.5619,-2.5106,-2.4961,0.0,-2.5388,-2.5514,0.0,-2.6427,0.0,-2.7891,-2.9163,-3.0583,-3.2105,-3.318,-3.4385,-3.5575,-3.6112,-3.7142,-3.8355,-3.8928,-3.9071,-3.8886,-3.8212,-3.7375,-3.6432,-3.5578,-3.4787,-3.4075,-3.3523,-3.2992,-3.2413,-3.1751,-3.1327,-3.0917,-3.0421,-3.0386,-3.0297,-2.9753,-2.969,-2.9611,-2.9262,0.0,0.0,0.0,0.0,0.0,0.0,-3.172,-3.2106,-3.2199,-3.2245,-3.2826,-3.4244,-3.4488,-3.4731,-3.5321,-3.5961,-3.6538,-3.7006,-3.7374,-3.7841,-3.8328,-3.9056,-3.9445,-3.9445,-3.9868,-4.007,-4.007,-4.007,-4.0138,-4.0188,-4.0188,-4.0238,-4.0288,-4.0288,-4.0288,-4.0288,-4.0288,-4.0526,-4.0968,-4.2021,-4.277,-4.3403,-4.4514,-4.5032,-4.5211,-4.5247,-4.53,-4.5352,-2.2535,0.0,-2.3175,-2.3387,-2.4124,-2.5049,-2.5987,-2.7442,-2.8712,-2.9627,-2.9745,-3.0019,-3.0826,-3.1188,-3.1582,-3.211,-3.2058,-3.1951,-3.1789,-3.1219,-3.0432,-2.9387,-2.917,-2.8532,-2.7339,-2.6985,-2.6722,-2.6655,-2.6133,-2.598,0.0,-2.5978,-2.5992,-2.6174,-2.6807,-2.7523,-2.8412,-2.97,-3.1068,-3.2391,-3.3763,-3.5215,-3.6591,-3.6765,-3.7609,-3.8723,-3.8943,-3.9177,-3.9233,-3.8616,-3.7943,-3.721,-3.6235,-3.5495,-3.4819,-3.4501,-3.4053,-3.3525,-3.309,-3.2459,-3.1836,-3.1279,-3.1073,-3.09,-3.0378,-3.0335,-3.0227,-2.9564,-2.9468,0.0,0.0,0.0,-3.033,-3.0376,0.0,-3.1413,-3.1505,-3.1567,-3.1772,-3.2377,-3.25,-3.2805,-3.3578,-3.4263,-3.499,-3.5803,-3.6118,-3.6602,-3.7503,-3.8432,-3.8939,-3.8988,-3.9698,-4.007,-4.007,-4.007,-4.007,-4.007,-4.007,-4.007,-4.007,-4.007,-4.007,-4.0087,-4.029,-4.0696,-4.1271,-4.2202,-4.2983,-4.3685,-4.4432,-4.4776,-4.494,-4.5086,-4.514,-4.514,-2.3053,-2.3065,-2.3362,-2.4063,-2.4759,-2.5962,-2.7965,-2.8347,-2.8987,-3.0712,-3.0934,-3.1428,-3.279,-3.3052,-3.3312,-3.3584,-3.3725,-3.362,-3.3111,-3.2453,-3.1843,-3.1232,-3.0649,-2.9781,-2.856,-2.8519,-2.8124,-2.7276,-2.6668,-2.6523,0.0,0.0,-2.6217,-2.6807,-2.7453,-2.8422,-2.9588,-3.0425,-3.161,-3.2939,-3.3801,-3.535,-3.7346,-3.7926,-3.8323,-3.8516,-3.8723,-3.8943,-3.9,-3.8546,-3.7943,-3.73,-3.6656,-3.5679,-3.4738,-3.4894,-3.4577,-3.4222,-3.4414,-3.3891,-3.3183,-3.2686,-3.2021,-3.1477,-3.1049,-3.0942,-3.0804,-3.0291,-3.0148,-2.9975,-2.9432,-2.9321,-2.9382,-2.9505,-2.9656,0.0,0.0,-2.9895,-3.0591,-3.2204,-3.2471,-3.2545,-3.2713,-3.2879,-3.3301,-3.4051,-3.486,-3.5736,-3.6616,-3.8048,-3.8889,-3.9005,-3.9698,-4.007,-4.007,-4.007,-4.007,-4.007,-4.007,-4.007,-4.007,-4.007,-4.007,-4.0121,-4.0849,-4.1187,-4.1322,-4.2777,-4.3403,-4.3504,-4.4265,-4.4626,-4.4626,-4.494,-4.4978,-4.4978,0.0,-2.4004,-2.4243,-2.4215,-2.5167,-2.658,-2.8712,-2.9627,-3.0451,-3.1431,-3.1888,-3.2633,-3.403,-3.4405,-3.4874,-3.5923,-3.5778,-3.5452,-3.4855,-3.4272,-3.3498,-3.2508,-3.1897,-3.1205,-3.0391,-2.9211,-2.8589,-2.8491,-2.7483,-2.7162,0.0,0.0,0.0,0.0,-2.8113,-2.883,-2.9673,-3.0892,-3.225,-3.3722,-3.5495,-3.6881,-3.7926,-3.813,-3.8277,-3.8516,-3.859,-3.8811,-3.9075,-3.8924,-3.8176,-3.7375,-3.7165,-3.631,-3.5371,-3.5576,-3.5278,-3.4926,-3.5137,-3.4645,-3.406,-3.3887,-3.3429,-3.2858,-3.2229,-3.1857,-3.1479,-3.0869,-3.0826,-3.0654,-3.0006,-2.9974,-2.9877,-2.9446,-2.9457,-2.9448,0.0,-2.8656,-2.8712,-2.9352,-3.0849,-3.1869,-3.1913,-3.2415,-3.2929,-3.3223,-3.3984,-3.4609,-3.4997,-3.6407,-3.7448,-3.7984,-3.8823,-3.948,-3.9986,-4.0037,-4.007,-4.0087,-4.0578,-4.0832,-4.0832,-4.1322,-4.1542,-4.1559,-4.1813,-4.2202,-4.2709,-4.3217,-4.3724,-4.4215,-4.4468,-4.4587,-4.4626,-4.4776,-4.4886,-4.4886,-2.4356,-2.4732,-2.5048,-2.4925,-2.6064,-2.7605,-2.9627,-3.0516,-3.1418,-3.2594,-3.3064,-3.3826,-3.5244,-3.5615,-3.6102,-3.7133,-3.6993,-3.6768,-3.6388,-3.5601,-3.4801,-3.4041,-3.324,-3.2426,-3.1626,-3.0459,-2.9683,-2.9288,-2.836,-2.795,0.0,0.0,0.0,0.0,0.0,-2.9279,-3.0333,-3.1251,-3.2571,-3.4255,-3.6389,-3.7591,-3.8202,-3.8202,-3.8277,-3.8366,-3.8441,-3.8738,-3.9017,-3.9104,-3.8519,-3.7764,-3.7764,-3.6918,-3.5999,-3.6209,-3.5915,-3.5507,-3.5707,-3.5277,-3.4829,-3.4829,-3.4438,-3.3862,-3.3413,-3.2998,-3.2473,-3.1851,-3.1659,-3.1381,-3.067,-3.0402,-3.0196,-2.972,-2.9526,-2.9217,0.0,-2.8259,-2.7955,-2.7859,-2.923,-3.0323,-3.0613,-3.117,-3.1735,-3.237,-3.2851,-3.3439,-3.4091,-3.5278,-3.6398,-3.7451,-3.8304,-3.9093,-3.9833,-3.9935,-4.0104,-4.0323,-4.0811,-4.1199,-4.1468,-4.194,-4.2142,-4.2159,-4.2483,-4.2871,-4.3344,-4.3669,-4.413,-4.4587,-4.4587,-4.4587,-4.4626,-4.4682,-4.4737,-4.4737,-2.487,-2.5297,-2.5845,-2.6304,-2.7595,-2.9065,-3.0738,-3.1091,-3.194,-3.411,-3.445,-3.5005,-3.6405,-3.6724,-3.7023,-3.7322,-3.7493,-3.765,-3.7623,-3.651,-3.5832,-3.5805,-3.4665,-3.3512,-3.2386,-3.2236,-3.1398,-2.9804,-2.9343,-2.8899,0.0,0.0,0.0,0.0,-2.8774,0.0,-3.1485,-3.1527,-3.2732,-3.4682,-3.6386,-3.7457,-3.8202,-3.8202,-3.8202,-3.8202,-3.8441,-3.8575,-3.8797,-3.9017,-3.8803,-3.8392,-3.8392,-3.7539,-3.6588,-3.6706,-3.6451,-3.6128,-3.6209,-3.5922,-3.5584,-3.5537,-3.5029,-3.458,-3.4682,-3.4343,-3.3786,-3.3246,-3.273,-3.2155,-3.1397,-3.0701,-3.0227,-3.018,-2.9641,-2.9093,-2.8581,-2.8496,-2.8291,-2.7648,-2.7689,-2.8103,-2.8977,-2.9214,-2.9889,-3.1292,-3.15,-3.2293,-3.3856,-3.4638,-3.5752,-3.7384,-3.8154,-3.8891,-3.961,-3.9661,-4.0046,-4.0799,-4.0833,-4.1234,-4.1971,-4.2004,-4.2021,-4.2055,-4.287,-4.3211,-4.3334,-4.4226,-4.4587,-4.4587,-4.4587,-4.457,-4.4587,-4.4587,-4.4587,-4.4626,-2.5485,-2.646,-2.7736,-2.9074,-2.9891,-3.0464,-3.0908,-3.2437,-3.3731,-3.4319,-3.5142,-3.604,-3.7078,-3.7705,-3.8412,-3.911,-3.933,-3.9319,-3.8884,-3.8138,-3.7528,-3.708,-3.5913,-3.5113,-3.4814,-3.3078,-3.2024,-3.1689,-3.0254,-2.9614,-2.9706,0.0,0.0,0.0,0.0,-3.0586,-3.1527,-3.1977,-3.3381,-3.5407,-3.7032,-3.7785,-3.8005,-3.8127,-3.8202,-3.8202,-3.8277,-3.8427,-3.859,-3.8797,-3.8587,-3.8195,-3.8322,-3.7823,-3.718,-3.7383,-3.733,-3.7222,-3.7018,-3.6838,-3.6704,-3.6353,-3.5722,-3.5214,-3.5274,-3.4868,-3.4359,-3.3802,-3.367,-3.3291,-3.2218,-3.1428,-3.078,-3.0259,-2.9229,-2.8271,-2.7657,-2.724,-2.6768,-2.6083,-2.6096,-2.6714,-2.807,-2.8878,-2.9477,-2.9857,-3.0922,-3.2017,-3.2973,-3.3719,-3.4844,-3.6339,-3.7186,-3.797,-3.8703,-3.9358,-4.0046,-4.0799,-4.1352,-4.2004,-4.2724,-4.3294,-4.3545,-4.3545,-4.3786,-4.387,-4.3887,-4.4145,-4.4212,-4.4212,-4.4212,-4.427,-4.4384,-4.457,-4.4587,-4.457,-2.6753,-2.7952,-2.9327,-3.0277,-3.1383,-3.2123,-3.2123,-3.3417,-3.458,-3.5077,-3.6162,-3.7116,-3.7886,-3.8727,-3.9389,-4.0,-4.0305,-4.0231,-3.9726,-3.9129,-3.8532,-3.7948,-3.7012,-3.6266,-3.5723,-3.4407,-3.3288,-3.2327,-3.1361,-3.0582,-2.9997,0.0,0.0,0.0,0.0,-3.0881,-3.1583,-3.3002,-3.4355,-3.5648,-3.7035,-3.7777,0.0,-3.7991,-3.8127,-3.8202,-3.8202,-3.8366,-3.8516,-3.8649,-3.8634,-3.8555,-3.8683,-3.8307,-3.7838,-3.7992,-3.7865,-3.7632,-3.7506,-3.7532,-3.748,-3.695,-3.6583,-3.6292,-3.5984,-3.5504,-3.5019,-3.4763,-3.4388,-3.3897,-3.3219,-3.2309,-3.1349,-3.0338,-2.9294,-2.8373,-2.7703,-2.7444,-2.6985,-2.6011,-2.5992,-2.6318,-2.6828,-2.7692,-2.85,-2.9181,-3.0071,-3.108,-3.2166,-3.2911,-3.3988,-3.5462,-3.6638,-3.7552,-3.8299,-3.9118,-4.0054,-4.105,-4.1466,-4.2216,-4.3248,-4.3664,-4.3864,-4.3864,-4.3998,-4.3998,-4.3998,-4.4114,-4.4097,-4.4097,-4.4097,-4.4155,-4.4253,-4.4384,-4.4514,-4.4621,-2.8298,-2.9403,-3.0432,-3.065,-3.2395,-3.3731,-3.3809,-3.428,-3.5038,-3.6188,-3.7312,-3.8214,-3.8762,-3.9515,-4.0156,-4.0359,-4.0629,-4.0695,-4.0458,-3.9794,-3.9183,-3.8667,-3.8003,-3.7121,-3.5981,-3.5805,-3.4624,-3.2413,-3.2395,-3.1539,0.0,0.0,0.0,0.0,0.0,0.0,0.0,-3.4183,-3.53,-3.556,-3.6793,-3.7534,-3.7853,-3.7853,-3.8005,-3.8127,-3.8202,-3.8277,-3.8441,-3.8516,-3.8738,-3.9104,-3.9104,-3.8847,-3.8527,-3.8527,-3.8262,-3.788,-3.7858,-3.8031,-3.8116,-3.751,-3.7425,-3.7338,-3.6753,-3.6214,-3.5749,-3.5716,-3.4867,-3.4187,-3.4093,-3.3108,-3.1808,-3.0401,-2.9659,-2.8979,-2.8278,-2.8327,-2.7977,-2.6744,-2.6654,0.0,-2.5826,-2.6395,-2.7385,-2.8821,-2.9165,-2.9955,-3.151,-3.2299,-3.3326,-3.47,-3.629,-3.7417,-3.8063,-3.8874,-4.0001,-4.1409,-4.1409,-4.2187,-4.3628,-4.3628,-4.3628,-4.3628,-4.3763,-4.3839,-4.3898,-4.3998,-4.4039,-4.4039,-4.4039,-4.4039,-4.4114,-4.4313,-4.4535,-4.4767,-2.9315,-2.9872,-3.0662,-3.2201,-3.3333,-3.4269,-3.492,-3.5456,-3.6227,-3.7429,-3.8161,-3.8789,-3.939,-4.0145,-4.0777,-4.1053,-4.1245,-4.149,-4.1693,-4.0648,-3.9983,-3.9875,-3.8844,-3.7935,-3.7229,-3.6225,-3.5031,-3.3558,-3.2657,-3.1891,-3.1185,0.0,0.0,0.0,0.0,0.0,-3.3087,-3.4548,-3.5226,-3.5339,-3.6731,-3.7303,-3.7457,-3.7777,-3.7929,-3.8005,-3.8127,-3.8202,-3.8277,-3.8441,-3.8664,-3.887,-3.9031,-3.9175,-3.923,-3.923,-3.9155,-3.9017,-3.8602,-3.859,-3.8493,-3.8132,-3.7617,-3.7254,-3.7274,-3.6799,-3.6199,-3.5765,-3.5124,-3.4452,-3.402,-3.2933,-3.1624,-3.0401,-3.0069,-2.9548,-2.8313,-2.8283,-2.811,-2.7352,-2.6921,-2.6652,-2.6523,-2.6688,-2.7173,-2.8037,-2.8845,-2.9955,-3.144,-3.2255,-3.3077,-3.3955,-3.6009,-3.7168,-3.7301,-3.8609,-4.0001,-4.1409,-4.1409,-4.2187,-4.3628,-4.3628,-4.3628,-4.3628,-4.3628,-4.3628,-4.3628,-4.3687,-4.3687,-4.3687,-4.3881,-4.3956,-4.4023,-4.48,-4.5077,-4.5169,-3.052,-3.1246,-3.2136,-3.3187,-3.4216,-3.5366,-3.6515,-3.6867,-3.7246,-3.7835,-3.8893,-3.9703,-3.9991,-4.0651,-4.1189,-4.147,-4.1652,-4.1823,-4.1815,-4.1355,-4.0838,-4.0214,-3.9631,-3.8912,-3.8016,-3.7121,-3.6076,-3.4855,-3.3675,-3.263,-3.185,-3.102,-3.0733,0.0,0.0,-3.2249,-3.3396,-3.4632,-3.5226,-3.5339,-3.664,-3.7226,-3.7303,-3.7534,-3.7701,-3.7929,-3.7991,-3.8142,-3.8202,-3.8277,-3.8501,-3.8649,-3.887,-3.9104,-3.9265,-3.9337,-3.9424,-3.9349,-3.9092,-3.9143,-3.9118,-3.8728,-3.8437,-3.8142,-3.7582,-3.7246,-3.683,-3.626,-3.5641,-3.4969,-3.4057,-3.2864,-3.1793,-3.125,-3.059,-2.9943,-2.9264,-2.8973,-2.8614,-2.7998,-2.7772,-2.7558,-2.7251,-2.7243,-2.7452,-2.7891,-2.8314,-2.9231,-3.0734,-3.1968,-3.2755,-3.3102,-3.5695,-3.7102,-3.7102,-3.8924,-4.0382,-4.1409,-4.1806,-4.2568,-4.3628,-4.3628,-4.3628,-4.3628,-4.3628,-4.3628,-4.3628,-4.3628,-4.3628,-4.3628,-4.3704,-4.3979,-4.4361,-4.489,-4.5567,-4.6313,-3.17,-3.2622,-3.3487,-3.4071,-3.5234,-3.6483,-3.7769,-3.8214,-3.8436,-3.8436,-3.9586,-4.0461,-4.0592,-4.1036,-4.1411,-4.1696,-4.1881,-4.1879,-4.1702,-4.1855,-4.1409,-4.0326,-4.0255,-3.9631,-3.845,-3.784,-3.6944,-3.571,-3.4529,-3.3403,-3.2345,-3.1741,-3.1211,-3.0856,-3.182,-3.2723,-3.3508,-3.4688,-3.5296,-3.5522,-3.6543,-3.707,-3.7226,-3.7303,-3.7457,-3.7777,-3.7853,-3.7991,-3.8127,-3.8202,-3.8366,-3.8516,-3.8723,-3.887,-3.9104,-3.9265,-3.9337,-3.9424,-3.9424,-3.9481,-3.9576,-3.9204,-3.9154,-3.8916,-3.7855,-3.76,-3.7307,-3.663,-3.5952,-3.5127,-3.4032,-3.2935,-3.2134,-3.2044,-3.1218,-3.0575,-3.0417,-2.9895,-2.9366,-2.8882,-2.8693,-2.8436,-2.7996,-2.7802,-2.781,-2.8095,-2.8111,-2.8706,-3.0081,-3.1637,-3.2471,-3.2471,-3.5415,-3.7001,-3.7001,-3.9218,-4.0674,-4.1312,-4.2039,-4.2782,-4.3509,-4.3568,-4.3568,-4.3568,-4.3568,-4.3628,-4.3628,-4.3628,-4.3628,-4.3628,-4.3628,-4.4059,-4.4705,-4.4992,-4.5967,-4.7195,-3.2717,-3.3006,-3.3568,-3.5008,-3.6237,-3.7217,-3.7795,-3.9194,-4.0187,-4.0187,-4.0318,-4.0618,-4.1167,-4.1285,-4.1411,-4.1696,-4.1696,-4.1868,-4.1999,-4.1783,-4.1288,-4.0656,-4.038,-3.9631,-3.845,-3.784,-3.6944,-3.571,-3.4529,-3.362,-3.2955,-3.1816,-3.14,-3.1583,-3.2499,-3.3239,-3.3924,-3.4783,-3.555,-3.6037,-3.6712,-3.6978,-3.707,-3.7226,-3.7303,-3.738,-3.7777,-3.7929,-3.7929,-3.8127,-3.8366,-3.8516,-3.8516,-3.8811,-3.9104,-3.9104,-3.9265,-3.9424,-3.9424,-3.9409,-3.9466,-3.9606,-3.9294,-3.8865,-3.829,-3.7793,-3.7307,-3.663,-3.546,-3.4454,-3.381,-3.3248,-3.2638,-3.2071,-3.2088,-3.1855,-3.1207,-3.064,-3.0306,-3.0288,-2.9303,-2.863,-2.8692,-2.8093,-2.798,-2.8686,-2.8835,-2.9235,-2.9984,-3.1536,-3.2413,-3.2413,-3.5218,-3.6744,-3.6744,-3.8876,-4.032,-4.1058,-4.1747,-4.2452,-4.3174,-4.3312,-4.3432,-4.3449,-4.3568,-4.3628,-4.3628,-4.3628,-4.3628,-4.3628,-4.3628,-4.4059,-4.4771,-4.5433,-4.6212,-4.7054,-3.3972,-3.4324,-3.4891,-3.6014,-3.7015,-3.7972,-3.9038,-3.9894,-4.054,-4.0906,-4.0958,-4.105,-4.1285,-4.1311,-4.1311,-4.1411,-4.1597,-4.1796,-4.1895,-4.1866,-4.1499,-4.075,-4.0574,-3.9978,-3.8979,-3.8016,-3.7297,-3.6809,-3.5248,-3.4177,-3.358,-3.2738,-3.23,-3.2102,-3.2836,-3.3453,-3.3963,-3.5069,-3.5793,-3.6121,-3.674,-3.6978,-3.6978,-3.707,-3.7226,-3.7303,-3.7457,-3.7625,-3.7777,-3.7929,-3.8142,-3.8366,-3.8441,-3.859,-3.8811,-3.9031,-3.9177,-3.9265,-3.9337,-3.9424,-3.9424,-3.9625,-3.9571,-3.9228,-3.8391,-3.8065,-3.7655,-3.6707,-3.5737,-3.4935,-3.4299,-3.3733,-3.3216,-3.2623,-3.2311,-3.2037,-3.1887,-3.1304,-3.0799,-3.0527,-3.003,-2.9669,-2.9486,-2.9178,-2.913,-2.9464,-2.9091,-2.9394,-3.0486,-3.1645,-3.2684,-3.3517,-3.5576,-3.6888,-3.7298,-3.946,-4.0705,-4.1,-4.213,-4.2818,-4.3113,-4.3174,-4.3235,-4.3235,-4.3312,-4.3372,-4.3509,-4.3509,-4.3509,-4.3661,-4.4092,-4.4705,-4.5433,-4.6179,-4.6924,-4.7603,-3.4939,-3.5403,-3.6049,-3.678,-3.7789,-3.8761,-3.9827,-4.027,-4.0728,-4.1259,-4.1311,-4.1311,-4.1311,-4.1311,-4.1311,-4.1311,-4.1511,-4.1597,-4.1597,-4.1796,-4.1559,-4.0468,-4.0603,-4.0237,-3.923,-3.8214,-3.7704,-3.7528,-3.5886,-3.4787,-3.4113,-3.3607,-3.3166,-3.2818,-3.3328,-3.3826,-3.4372,-3.535,-3.5976,-3.6312,-3.681,-3.6978,-3.6978,-3.6978,-3.707,-3.7226,-3.7303,-3.738,-3.7534,-3.7777,-3.7929,-3.8142,-3.8366,-3.8441,-3.859,-3.8811,-3.9031,-3.9104,-3.9265,-3.9337,-3.9409,-3.9553,-3.9696,-3.9451,-3.8576,-3.8233,-3.7781,-3.6628,-3.5953,-3.5337,-3.486,-3.4218,-3.3572,-3.3216,-3.2692,-3.2395,-3.2514,-3.1966,-3.1433,-3.115,-3.0766,-3.0427,-3.0214,-3.0032,-2.9999,-3.0166,-2.9713,-2.9858,-3.0833,-3.17,-3.2803,-3.4202,-3.5768,-3.7028,-3.7872,-3.9887,-4.0965,-4.1194,-4.2402,-4.2929,-4.2929,-4.299,-4.3052,-4.3113,-4.3113,-4.3174,-4.3328,-4.3542,-4.3685,-4.3828,-4.466,-4.5388,-4.6116,-4.6709,-4.7371,-4.8001,-3.5429,-3.5981,-3.6628,-3.7483,-3.8523,-3.9471,-3.9943,-4.0521,-4.0984,-4.1311,-4.1311,-4.1311,-4.1311,-4.1311,-4.1311,-4.1311,-4.1311,-4.1311,-4.1311,-4.1597,-4.1169,-3.9981,-4.0415,-4.0145,-3.8922,-3.8607,-3.8125,-3.7528,-3.6307,-3.5398,-3.4814,-3.414,-3.3856,-3.3932,-3.4085,-3.458,-3.5247,-3.5648,-3.6164,-3.6707,-3.6915,-3.6978,-3.6978,-3.6978,-3.6978,-3.7056,-3.7226,-3.7303,-3.7303,-3.7534,-3.7777,-3.7929,-3.8127,-3.8366,-3.8516,-3.8516,-3.8811,-3.9104,-3.9104,-3.9265,-3.9424,-3.9424,-3.9553,-3.9516,-3.8837,-3.8341,-3.7679,-3.6423,-3.5815,-3.5476,-3.5476,-3.4527,-3.3727,-3.3712,-3.3373,-3.3096,-3.3096,-3.2641,-3.2336,-3.2556,-3.1374,-3.0619,-3.0865,-3.0279,-3.015,-3.0862,-3.0865,-3.0865,-3.0881,-3.1607,-3.2659,-3.4052,-3.5525,-3.6983,-3.8375,-3.9784,-4.0853,-4.1626,-4.2278,-4.2634,-4.2634,-4.2837,-4.2945,-4.3113,-4.3113,-4.3113,-4.3162,-4.3883,-4.4194,-4.4259,-4.5154,-4.5942,-4.6601,-4.6827,-4.7371,-4.8001,-3.6546,-3.6797,-3.7224,-3.8277,-3.8943,-3.9511,-3.9956,-4.0565,-4.0883,-4.0997,-4.1211,-4.1311,-4.1311,-4.1311,-4.1311,-4.1311,-4.1311,-4.1311,-4.1311,-4.1018,-4.0539,-3.9968,-3.9666,-3.9375,-3.8922,-3.8445,-3.7952,-3.7528,-3.6714,-3.5805,-3.4828,-3.414,-3.3869,-3.3896,-3.4367,-3.4821,-3.5223,-3.5778,-3.6304,-3.6721,-3.6786,-3.685,-3.6978,-3.6978,-3.6978,-3.6978,-3.707,-3.707,-3.7148,-3.7303,-3.7457,-3.7534,-3.7929,-3.8142,-3.8277,-3.8441,-3.859,-3.8738,-3.9031,-3.9177,-3.9265,-3.9337,-3.9424,-3.9388,-3.8852,-3.7994,-3.7147,-3.6331,-3.6105,-3.5891,-3.5568,-3.5197,-3.4654,-3.3826,-3.3668,-3.3537,-3.3175,-3.3014,-3.2839,-3.2501,-3.2139,-3.1839,-3.1516,-3.1415,-3.1413,-3.1639,-3.1672,-3.1882,-3.2368,-3.3064,-3.4101,-3.5558,-3.6513,-3.7679,-3.912,-4.0043,-4.0853,-4.1581,-4.2294,-4.2634,-4.2634,-4.2696,-4.2696,-4.2775,-4.3262,-4.3616,-4.3744,-4.4445,-4.482,-4.5046,-4.5815,-4.6241,-4.6553,-4.7177,-4.7572,-4.7787,-3.7387,-3.7663,-3.804,-3.8743,-3.9247,-3.9601,-4.002,-4.0377,-4.0694,-4.0694,-4.0997,-4.1097,-4.1097,-4.1211,-4.1311,-4.1311,-4.1311,-4.1219,-4.0997,-4.0618,-4.0153,-3.9462,-3.9201,-3.8912,-3.8652,-3.8408,-3.8115,-3.7695,-3.6928,-3.6103,-3.5153,-3.4787,-3.4611,-3.4624,-3.5004,-3.526,-3.5459,-3.5922,-3.6246,-3.6484,-3.6563,-3.6707,-3.6929,-3.6929,-3.6915,-3.6978,-3.6978,-3.6978,-3.6978,-3.7148,-3.7226,-3.7303,-3.7625,-3.7839,-3.8142,-3.8366,-3.8441,-3.8516,-3.8811,-3.8958,-3.9104,-3.9265,-3.9337,-3.9245,-3.8697,-3.7873,-3.7122,-3.6489,-3.6316,-3.6073,-3.5799,-3.5645,-3.5259,-3.4527,-3.4084,-3.3715,-3.3443,-3.3323,-3.3135,-3.2847,-3.2647,-3.2412,-3.2192,-3.2015,-3.2078,-3.24,-3.2659,-3.3113,-3.3841,-3.402,-3.4894,-3.6627,-3.7355,-3.8408,-3.9849,-4.0561,-4.1257,-4.197,-4.2423,-4.2634,-4.2634,-4.2634,-4.278,-4.3055,-4.3508,-4.3929,-4.4382,-4.4984,-4.5358,-4.5587,-4.6371,-4.6716,-4.6781,-4.7423,-4.7654,-4.7704,-3.7853,-3.8504,-3.8881,-3.8919,-3.9358,-3.9788,-4.0083,-4.007,-4.0185,-4.0402,-4.0694,-4.0883,-4.0883,-4.1097,-4.1298,-4.1259,-4.1259,-4.1023,-4.0448,-4.0344,-3.9821,-3.8762,-3.8871,-3.8794,-3.8213,-3.8408,-3.8385,-3.8021,-3.7091,-3.6307,-3.571,-3.571,-3.571,-3.571,-3.571,-3.571,-3.5723,-3.5992,-3.6072,-3.6086,-3.6325,-3.6484,-3.6721,-3.6721,-3.6758,-3.6922,-3.6964,-3.6964,-3.6922,-3.6978,-3.7148,-3.7303,-3.7303,-3.7534,-3.7929,-3.8142,-3.8277,-3.8441,-3.8516,-3.8738,-3.9104,-3.9104,-3.9265,-3.923,-3.8542,-3.8067,-3.7586,-3.6923,-3.6505,-3.6272,-3.6272,-3.5861,-3.5537,-3.5491,-3.4589,-3.3867,-3.3948,-3.3505,-3.3282,-3.3514,-3.2895,-3.2551,-3.2802,-3.2337,-3.237,-3.3178,-3.3874,-3.457,-3.5299,-3.4732,-3.5315,-3.7323,-3.81,-3.9153,-4.0545,-4.1241,-4.1938,-4.2634,-4.2634,-4.2634,-4.2634,-4.2634,-4.3022,-4.3719,-4.3767,-4.4188,-4.4917,-4.5597,-4.5888,-4.5953,-4.6838,-4.7183,-4.7183,-4.7403,-4.7521,-4.7638,-3.8216,-3.8655,-3.9007,-3.9421,-3.9609,-3.9697,-3.9788,-3.9981,-4.007,-4.0185,-4.0389,-4.0694,-4.0883,-4.0997,-4.0915,-4.0671,-4.0631,-4.0566,-4.0422,-3.9599,-3.8998,-3.8723,-3.8411,-3.8201,-3.8213,-3.8304,-3.7993,-3.7402,-3.6663,-3.6156,-3.571,-3.571,-3.571,-3.571,-3.571,-3.571,-3.571,-3.5804,-3.5898,-3.6086,-3.6166,-3.6325,-3.6484,-3.6484,-3.635,-3.6144,-3.6618,-3.6543,-3.636,-3.6824,-3.7056,-3.707,-3.7226,-3.738,-3.7534,-3.7853,-3.8142,-3.8277,-3.8441,-3.859,-3.8738,-3.9031,-3.9265,-3.923,-3.8542,-3.8342,-3.8127,-3.7534,-3.7005,-3.6667,-3.6911,-3.6425,-3.5937,-3.5568,-3.5318,-3.5093,-3.4753,-3.4194,-3.392,-3.4105,-3.3609,-3.3248,-3.3351,-3.3909,-3.4352,-3.4514,-3.5311,-3.6092,-3.6772,-3.7177,-3.7614,-3.8116,-3.8845,-3.9897,-4.1306,-4.1484,-4.1938,-4.2634,-4.2634,-4.2634,-4.2634,-4.2634,-4.3022,-4.3735,-4.4302,-4.4933,-4.5613,-4.6326,-4.6633,-4.6649,-4.688,-4.6961,-4.703,-4.7183,-4.7319,-4.7319,-3.8481,-3.8811,-3.9128,-3.9428,-3.9581,-3.9697,-3.9697,-3.9788,-3.9878,-3.9878,-3.9982,-4.0031,-4.0119,-4.0076,-3.9878,-3.9875,-4.0168,-4.0187,-3.9677,-3.905,-3.8606,-3.8357,-3.8057,-3.7979,-3.8057,-3.8044,-3.7791,-3.7243,-3.673,-3.6324,-3.598,-3.5683,-3.5642,-3.571,-3.571,-3.571,-3.571,-3.571,-3.5804,-3.5898,-3.5898,-3.6072,-3.6246,-3.6246,-3.6018,-3.5781,-3.642,-3.6381,-3.6087,-3.6782,-3.6978,-3.6978,-3.7148,-3.7226,-3.7303,-3.7534,-3.7839,-3.8142,-3.8292,-3.8646,-3.9029,-3.9343,-3.9565,-3.9548,-3.8862,-3.8531,-3.8357,-3.8082,-3.7564,-3.7141,-3.7101,-3.685,-3.6503,-3.6045,-3.5737,-3.5517,-3.5307,-3.4784,-3.4532,-3.4668,-3.4517,-3.4419,-3.4457,-3.4968,-3.53,-3.5353,-3.6136,-3.6715,-3.7086,-3.8084,-3.8705,-3.8893,-3.9897,-4.0804,-4.1565,-4.1889,-4.2245,-4.2634,-4.2634,-4.2634,-4.2634,-4.2634,-4.3201,-4.4221,-4.4625,-4.537,-4.6326,-4.6714,-4.6876,-4.6876,-4.6876,-4.6876,-4.6876,-4.703,-4.7115,-4.7251,-3.865,-3.905,-3.9233,-3.9146,-3.9353,-3.9534,-3.9459,-3.9433,-3.9433,-3.9433,-3.9247,-3.9157,-3.9157,-3.8898,-3.8858,-3.8988,-3.9596,-3.9659,-3.8776,-3.8632,-3.8383,-3.7926,-3.79,-3.79,-3.79,-3.79,-3.7651,-3.7223,-3.6896,-3.6569,-3.6096,-3.5641,-3.548,-3.5629,-3.571,-3.571,-3.571,-3.571,-3.571,-3.571,-3.571,-3.5817,-3.6072,-3.6072,-3.5699,-3.5411,-3.63,-3.617,-3.5809,-3.6676,-3.6978,-3.6978,-3.6978,-3.7148,-3.7226,-3.7303,-3.7534,-3.7853,-3.8066,-3.8833,-3.9572,-3.9841,-4.0022,-4.0025,-3.9401,-3.8967,-3.8661,-3.8571,-3.8172,-3.7692,-3.7349,-3.7177,-3.7036,-3.666,-3.6076,-3.569,-3.5856,-3.5369,-3.5049,-3.5222,-3.5313,-3.5379,-3.5546,-3.5697,-3.58,-3.5911,-3.6638,-3.7086,-3.7198,-3.8446,-3.9317,-3.9742,-4.0889,-4.1569,-4.1727,-4.2326,-4.2634,-4.2634,-4.2634,-4.2634,-4.2634,-4.2634,-4.3362,-4.4642,-4.4739,-4.5532,-4.673,-4.6828,-4.6876,-4.6876,-4.6876,-4.6876,-4.6876,-4.6876,-4.703,-4.7167,-3.8396,-3.8736,-3.8797,-3.8624,-3.8537,-3.849,-3.8341,-3.8266,-3.8266,-3.8266,-3.8191,-3.8239,-3.8548,-3.8472,-3.8426,-3.8159,-3.8293,-3.8445,-3.8723,-3.8279,-3.7991,-3.79,-3.79,-3.79,-3.79,-3.79,-3.7455,-3.6616,-3.6611,-3.6101,-3.5301,-3.5358,-3.5399,-3.548,-3.5642,-3.571,-3.571,-3.571,-3.571,-3.571,-3.571,-3.571,-3.5723,-3.5723,-3.5203,-3.4539,-3.5754,-3.5659,-3.5236,-3.6395,-3.685,-3.6978,-3.6978,-3.6978,-3.707,-3.7226,-3.7303,-3.7457,-3.7853,-3.8696,-3.9598,-4.0139,-4.0455,-4.0524,-4.0039,-3.9892,-3.9728,-3.9307,-3.8721,-3.8352,-3.8415,-3.7698,-3.7025,-3.7067,-3.6706,-3.64,-3.6507,-3.598,-3.5665,-3.5974,-3.5498,-3.5235,-3.5379,-3.607,-3.6444,-3.6501,-3.7285,-3.803,-3.8638,-3.9422,-4.0126,-4.0828,-4.1052,-4.1499,-4.2283,-4.2506,-4.2634,-4.2634,-4.2634,-4.2634,-4.2634,-4.2634,-4.3087,-4.3913,-4.4528,-4.5241,-4.6018,-4.6633,-4.6876,-4.6876,-4.6876,-4.6876,-4.6876,-4.6876,-4.6945,-4.6961,-3.7823,-3.7983,-3.802,-3.7572,-3.7676,-3.7791,-3.7742,-3.7792,-3.7804,-3.8002,-3.7751,-3.766,-3.777,-3.7505,-3.7311,-3.7342,-3.7317,-3.7411,-3.7774,-3.774,-3.7703,-3.79,-3.79,-3.79,-3.79,-3.7586,-3.7232,-3.6783,-3.6153,-3.566,-3.5385,-3.515,-3.5168,-3.5236,-3.548,-3.5562,-3.5562,-3.5642,-3.571,-3.571,-3.571,-3.571,-3.571,-3.571,-3.5181,-3.4699,-3.5757,-3.5668,-3.5203,-3.6337,-3.6786,-3.685,-3.6993,-3.6978,-3.6978,-3.7148,-3.738,-3.7844,-3.8687,-3.9373,-3.9984,-4.064,-4.0894,-4.0969,-4.0386,-4.0216,-4.004,-3.9802,-3.9352,-3.8912,-3.8692,-3.8273,-3.7879,-3.775,-3.7254,-3.6952,-3.7093,-3.6631,-3.6319,-3.644,-3.6322,-3.6295,-3.6369,-3.6769,-3.7076,-3.7076,-3.78,-3.8356,-3.8734,-3.9768,-4.0499,-4.0849,-4.1342,-4.1853,-4.2238,-4.2302,-4.2302,-4.2302,-4.2302,-4.2302,-4.2302,-4.2445,-4.2912,-4.3622,-4.401,-4.482,-4.584,-4.6164,-4.6536,-4.6876,-4.6876,-4.6876,-4.6876,-4.6876,-4.6876,-4.6876,-3.7276,-3.7303,-3.7151,-3.6731,-3.6834,-3.6985,-3.7147,-3.7233,-3.7331,-3.7528,-3.7262,-3.6998,-3.6998,-3.6621,-3.6452,-3.6628,-3.6628,-3.6722,-3.7015,-3.7214,-3.7413,-3.7703,-3.7795,-3.7743,-3.7691,-3.7246,-3.6867,-3.6606,-3.573,-3.5306,-3.5318,-3.4967,-3.4839,-3.5003,-3.5236,-3.5318,-3.5318,-3.5562,-3.5642,-3.5642,-3.571,-3.571,-3.571,-3.571,-3.5357,-3.4909,-3.5694,-3.5689,-3.5356,-3.6277,-3.6563,-3.6642,-3.685,-3.6915,-3.6915,-3.6993,-3.738,-3.805,-3.9391,-3.9881,-4.0228,-4.112,-4.1418,-4.1405,-4.0733,-4.0533,-4.0334,-4.0114,-3.9787,-3.9439,-3.8923,-3.8807,-3.8605,-3.8333,-3.7811,-3.7514,-3.7658,-3.7201,-3.6894,-3.6956,-3.6985,-3.7134,-3.715,-3.7329,-3.7405,-3.7405,-3.8112,-3.8586,-3.8728,-3.9929,-4.0672,-4.083,-4.1661,-4.2061,-4.2061,-4.2109,-4.2109,-4.2109,-4.2109,-4.2109,-4.2109,-4.2254,-4.2623,-4.3185,-4.3444,-4.4284,-4.5514,-4.5675,-4.6245,-4.6876,-4.6876,-4.6876,-4.6876,-4.6876,-4.6876,-4.6876,-3.7204,-3.6807,-3.6404,-3.6072,-3.6086,-3.6015,-3.5805,-3.5936,-3.6127,-3.6127,-3.6363,-3.642,-3.642,-3.6383,-3.6452,-3.6452,-3.6452,-3.6546,-3.6722,-3.6722,-3.6909,-3.7108,-3.7413,-3.7351,-3.7077,-3.7024,-3.6488,-3.543,-3.5338,-3.5012,-3.4463,-3.4686,-3.4839,-3.4839,-3.5003,-3.5086,-3.5154,-3.5318,-3.5399,-3.548,-3.5642,-3.571,-3.571,-3.571,-3.5357,-3.4909,-3.5506,-3.5516,-3.5278,-3.596,-3.6246,-3.6484,-3.6642,-3.6707,-3.6786,-3.6915,-3.7148,-3.7727,-3.9391,-3.9816,-4.0198,-4.1633,-4.202,-4.1927,-4.1434,-4.1324,-4.1116,-4.0306,-4.0085,-3.9921,-3.9397,-3.8983,-3.8687,-3.8696,-3.8378,-3.8137,-3.8137,-3.7766,-3.7479,-3.759,-3.7095,-3.6785,-3.6999,-3.715,-3.7194,-3.7194,-3.8036,-3.8776,-3.9392,-4.0166,-4.0877,-4.1494,-4.1801,-4.1898,-4.1898,-4.2061,-4.2109,-4.2109,-4.2109,-4.2109,-4.2109,-4.2109,-4.2141,-4.2221,-4.2959,-4.3746,-4.4635,-4.5295,-4.6124,-4.6876,-4.6876,-4.6876,-4.6876,-4.6876,-4.6876,-4.6876,-3.6045,-3.5949,-3.5749,-3.5318,-3.5234,-3.5259,-3.5356,-3.5416,-3.5524,-3.5716,-3.6003,-3.6193,-3.6193,-3.6275,-3.6358,-3.6358,-3.6056,-3.5855,-3.5936,-3.5621,-3.5767,-3.657,-3.6687,-3.6599,-3.6285,-3.5846,-3.5544,-3.5299,-3.492,-3.462,-3.4397,-3.4481,-3.4577,-3.4577,-3.4839,-3.4921,-3.4921,-3.5168,-3.5236,-3.5236,-3.5399,-3.548,-3.5562,-3.5642,-3.5574,-3.5411,-3.5642,-3.5654,-3.5598,-3.6004,-3.6166,-3.6246,-3.6484,-3.6642,-3.6707,-3.6915,-3.707,-3.7331,-3.8538,-3.929,-4.0118,-4.1482,-4.1995,-4.2034,-4.1855,-4.1572,-4.1295,-4.0955,-4.0465,-4.0055,-3.9862,-3.9427,-3.9178,-3.9305,-3.8886,-3.8569,-3.8757,-3.8325,-3.7977,-3.8188,-3.7714,-3.7359,-3.7437,-3.7233,-3.7232,-3.7638,-3.8497,-3.9298,-3.9991,-4.0749,-4.1336,-4.1573,-4.167,-4.1736,-4.1736,-4.1785,-4.1785,-4.1785,-4.1785,-4.1785,-4.1785,-4.1931,-4.1947,-4.2028,-4.2349,-4.3165,-4.4321,-4.4593,-4.55,-4.6738,-4.6738,-4.6807,-4.6876,-4.6876,-4.6876,-4.6876,-3.526,-3.5175,-3.5158,-3.4688,-3.4726,-3.4823,-3.503,-3.5126,-3.5223,-3.5416,-3.5716,-3.5908,-3.5908,-3.5936,-3.6013,-3.6013,-3.5512,-3.529,-3.529,-3.4939,-3.507,-3.5916,-3.5929,-3.575,-3.5437,-3.5037,-3.4938,-3.494,-3.4607,-3.4397,-3.4397,-3.4397,-3.4397,-3.4397,-3.4577,-3.466,-3.4673,-3.4921,-3.5003,-3.5003,-3.5236,-3.5318,-3.5399,-3.5562,-3.5642,-3.571,-3.571,-3.571,-3.5723,-3.5898,-3.5978,-3.5992,-3.6246,-3.6484,-3.6707,-3.685,-3.6915,-3.7197,-3.7924,-3.8723,-3.9671,-4.1083,-4.1738,-4.1995,-4.2092,-4.1826,-4.1609,-4.139,-4.072,-4.0201,-4.0084,-3.9638,-3.9337,-3.9553,-3.9234,-3.9073,-3.9336,-3.8879,-3.8601,-3.8683,-3.828,-3.7928,-3.7928,-3.7732,-3.7732,-3.8199,-3.9029,-3.983,-4.0535,-4.1138,-4.1522,-4.1522,-4.1588,-4.1588,-4.1588,-4.1588,-4.1588,-4.1588,-4.1588,-4.1588,-4.1588,-4.1752,-4.1817,-4.1817,-4.1931,-4.2778,-4.4154,-4.4154,-4.5053,-4.6528,-4.6528,-4.6598,-4.6754,-4.6807,-4.6807,-4.6839,-3.4804,-3.4592,-3.4433,-3.4433,-3.4628,-3.4823,-3.4823,-3.503,-3.5223,-3.5223,-3.5416,-3.5608,-3.5608,-3.533,-3.5195,-3.5195,-3.4857,-3.4713,-3.4713,-3.4713,-3.4803,-3.5085,-3.5098,-3.4921,-3.461,-3.4757,-3.4645,-3.4076,-3.4314,-3.4397,-3.4397,-3.4397,-3.4397,-3.4397,-3.4397,-3.4397,-3.4397,-3.4673,-3.4756,-3.4839,-3.5003,-3.5236,-3.5399,-3.5399,-3.5562,-3.571,-3.571,-3.571,-3.571,-3.571,-3.571,-3.5723,-3.5992,-3.6405,-3.6721,-3.6721,-3.685,-3.7119,-3.7723,-3.8079,-3.8723,-4.0354,-4.1227,-4.1785,-4.1995,-4.2092,-4.1986,-4.1492,-4.09,-4.0319,-4.0173,-3.9565,-3.9177,-3.9337,-3.9553,-3.9681,-3.9681,-3.9443,-3.9222,-3.9222,-3.8775,-3.8523,-3.8523,-3.867,-3.8815,-3.8831,-3.9536,-4.0353,-4.107,-4.1205,-4.1323,-4.1323,-4.1522,-4.1588,-4.1588,-4.1588,-4.1588,-4.1588,-4.1588,-4.1588,-4.1588,-4.1588,-4.1588,-4.1588,-4.1588,-4.2512,-4.4034,-4.4034,-4.4931,-4.6262,-4.6262,-4.6262,-4.6333,-4.6528,-4.6582,-4.6765,-3.4058,-3.407,-3.4261,-3.4335,-3.4433,-3.4628,-3.4726,-3.4835,-3.4932,-3.4932,-3.4799,-3.4759,-3.4759,-3.4551,-3.4403,-3.4403,-3.409,-3.3795,-3.3596,-3.3571,-3.3571,-3.3658,-3.4035,-3.406,-3.3751,-3.3824,-3.382,-3.381,-3.4076,-3.416,-3.416,-3.4314,-3.4397,-3.4397,-3.4397,-3.4397,-3.4397,-3.4494,-3.4494,-3.4577,-3.4756,-3.4921,-3.5003,-3.5318,-3.548,-3.548,-3.5642,-3.571,-3.571,-3.571,-3.571,-3.5723,-3.5992,-3.6166,-3.6325,-3.6642,-3.6707,-3.6892,-3.7217,-3.7662,-3.8277,-3.942,-4.0416,-4.1122,-4.1136,-4.1676,-4.2034,-4.1927,-4.1062,-4.0373,-4.0338,-3.9638,-3.9104,-3.9177,-3.9337,-3.9553,-3.9696,-3.9571,-3.9662,-3.9956,-3.9412,-3.9066,-3.9216,-3.88,-3.8789,-3.9267,-4.0117,-4.0733,-4.1102,-4.1169,-4.1169,-4.1169,-4.1236,-4.1272,-4.139,-4.1522,-4.1588,-4.1588,-4.1588,-4.1588,-4.1588,-4.1588,-4.1588,-4.1588,-4.1588,-4.2461,-4.3775,-4.3775,-4.4754,-4.6168,-4.6168,-4.6223,-4.6333,-4.6404,-4.6795,-4.7403,-3.3638,-3.3779,-3.3977,-3.4052,-3.4249,-3.4347,-3.4628,-3.4628,-3.4557,-3.4547,-3.4342,-3.4159,-3.3953,-3.371,-3.3563,-3.3563,-3.3251,-3.2996,-3.2921,-3.2896,-3.2982,-3.3081,-3.3395,-3.3507,-3.3326,-3.3398,-3.3484,-3.3556,-3.381,-3.3992,-3.4076,-3.4243,-3.4314,-3.4397,-3.4397,-3.4397,-3.4397,-3.4397,-3.4397,-3.4397,-3.4577,-3.4673,-3.4839,-3.5086,-3.5236,-3.5318,-3.548,-3.5562,-3.5562,-3.5629,-3.571,-3.5723,-3.5898,-3.5992,-3.6166,-3.6405,-3.6563,-3.6707,-3.685,-3.7195,-3.7625,-3.8192,-3.9264,-4.023,-4.0392,-4.0775,-4.1242,-4.1308,-4.056,-3.9989,-4.0051,-3.9369,-3.8885,-3.9104,-3.9177,-3.9337,-3.9553,-3.9625,-3.9753,-4.0051,-3.9825,-3.9703,-3.9787,-3.9487,-3.9477,-3.9893,-4.0362,-4.073,-4.0898,-4.0966,-4.0966,-4.0966,-4.1034,-4.1169,-4.1205,-4.1339,-4.1472,-4.1588,-4.1588,-4.1588,-4.1588,-4.1588,-4.1588,-4.1588,-4.1588,-4.2394,-4.3722,-4.3706,-4.4614,-4.5968,-4.5968,-4.6024,-4.6136,-4.6223,-4.6726,-4.7525,-3.3281,-3.3481,-3.3679,-3.3679,-3.3878,-3.415,-3.4276,-3.4362,-3.4268,-3.3947,-3.3839,-3.3729,-3.3272,-3.2901,-3.2665,-3.2665,-3.2494,-3.2475,-3.2636,-3.2711,-3.281,-3.3068,-3.3081,-3.3081,-3.3081,-3.3326,-3.3398,-3.3398,-3.3556,-3.381,-3.4076,-3.4076,-3.416,-3.4397,-3.4397,-3.4397,-3.4397,-3.4397,-3.4397,-3.4397,-3.4397,-3.4577,-3.4756,-3.4756,-3.4921,-3.5086,-3.5318,-3.5399,-3.5399,-3.5642,-3.571,-3.571,-3.571,-3.5898,-3.6072,-3.6086,-3.6405,-3.6721,-3.6721,-3.685,-3.6978,-3.6978,-3.8009,-3.9126,-3.9556,-3.9773,-3.9881,-4.0025,-3.9625,-3.9281,-3.9405,-3.8954,-3.8664,-3.9031,-3.9104,-3.9177,-3.9337,-3.9553,-3.9696,-3.9681,-4.0051,-4.0277,-4.0277,-4.0401,-4.0455,-4.0524,-4.0524,-4.0524,-4.0524,-4.0662,-4.0799,-4.0799,-4.0966,-4.1049,-4.1034,-4.1034,-4.1221,-4.1522,-4.1588,-4.1588,-4.1588,-4.1588,-4.1588,-4.1588,-4.1588,-4.2394,-4.3722,-4.369,-4.4512,-4.5807,-4.5807,-4.5807,-4.5807,-4.604,-4.6573,-4.7304,-3.3281,-3.3381,-3.3481,-3.3679,-3.3779,-3.3726,-3.3585,-3.3742,-3.366,-3.3195,-3.2975,-3.2791,-3.2683,-3.2256,-3.193,-3.193,-3.201,-3.2213,-3.2475,-3.2636,-3.2723,-3.281,-3.2982,-3.3081,-3.3081,-3.3154,-3.3154,-3.3154,-3.3398,-3.3471,-3.3569,-3.3725,-3.3894,-3.416,-3.416,-3.4243,-3.4397,-3.4397,-3.4397,-3.4397,-3.4397,-3.4397,-3.4494,-3.4756,-3.4839,-3.4921,-3.5086,-3.5236,-3.5399,-3.5642,-3.571,-3.571,-3.571,-3.5723,-3.5804,-3.6072,-3.6246,-3.6484,-3.6642,-3.685,-3.6978,-3.6978,-3.7267,-3.7684,-3.8431,-3.9233,-3.9816,-3.9895,-3.9483,-3.9204,-3.9266,-3.8818,-3.859,-3.8797,-3.9017,-3.9177,-3.9337,-3.9424,-3.9553,-3.9681,-3.9768,-3.991,-4.0066,-4.0191,-4.0401,-4.0455,-4.0524,-4.0524,-4.0524,-4.0524,-4.0593,-4.0593,-4.0608,-4.0746,-4.0867,-4.0882,-4.095,-4.1236,-4.1323,-4.139,-4.139,-4.1522,-4.1588,-4.1588,-4.1588,-4.2394,-4.3722,-4.369,-4.4512,-4.5807,-4.5807,-4.5807,-4.5807,-4.588,-4.6729,-4.819,-3.3081,-3.3181,-3.3381,-3.3481,-3.3273,-3.3094,-3.3106,-3.2969,-3.2818,-3.2369,-3.2361,-3.2201,-3.195,-3.1752,-3.1661,-3.1661,-3.1761,-3.1937,-3.2213,-3.2288,-3.2463,-3.255,-3.281,-3.2896,-3.2896,-3.3068,-3.3081,-3.3081,-3.324,-3.3313,-3.3398,-3.3471,-3.3641,-3.3894,-3.4076,-3.416,-3.4243,-3.4397,-3.4397,-3.4397,-3.4397,-3.4397,-3.4397,-3.4577,-3.4577,-3.466,-3.4839,-3.5154,-3.5399,-3.5562,-3.5642,-3.571,-3.571,-3.571,-3.5723,-3.5898,-3.6072,-3.6325,-3.6484,-3.6707,-3.685,-3.6993,-3.6978,-3.7155,-3.7728,-3.8211,-3.8674,-3.8831,-3.8741,-3.8587,-3.8725,-3.8524,-3.8441,-3.8649,-3.8738,-3.8885,-3.9192,-3.9265,-3.9337,-3.9553,-3.9625,-3.9768,-3.9996,-4.0066,-4.0207,-4.0401,-4.0401,-4.047,-4.0539,-4.0524,-4.0524,-4.0524,-4.0524,-4.0524,-4.0662,-4.0662,-4.0746,-4.083,-4.1086,-4.1205,-4.1221,-4.139,-4.1456,-4.1456,-4.1588,-4.2394,-4.3722,-4.369,-4.4512,-4.5807,-4.5807,-4.5807,-4.5855,-4.6171,-4.7225,-4.8739,-3.288,-3.3012,-3.3143,-3.3155,-3.2707,-3.2425,-3.2538,-3.2262,-3.1891,-3.1551,-3.1778,-3.1793,-3.1354,-3.1572,-3.1661,-3.1661,-3.1661,-3.1749,-3.1937,-3.1937,-3.2125,-3.23,-3.2562,-3.2636,-3.2711,-3.2896,-3.3068,-3.3081,-3.3081,-3.3154,-3.3313,-3.3313,-3.3484,-3.3628,-3.3907,-3.3992,-3.4076,-3.4314,-3.4397,-3.4397,-3.4397,-3.4397,-3.4397,-3.4397,-3.4397,-3.4397,-3.466,-3.5003,-3.5318,-3.5399,-3.548,-3.5642,-3.571,-3.571,-3.571,-3.571,-3.5898,-3.6166,-3.6325,-3.6563,-3.6707,-3.6915,-3.6978,-3.7056,-3.7226,-3.7303,-3.738,-3.7701,-3.7853,-3.7929,-3.8142,-3.8202,-3.8277,-3.8441,-3.8516,-3.8664,-3.9031,-3.9104,-3.9177,-3.9337,-3.9553,-3.9696,-3.9925,-3.9925,-4.0066,-4.0207,-4.0277,-4.0331,-4.047,-4.047,-4.047,-4.0524,-4.0524,-4.0524,-4.0524,-4.0524,-4.0524,-4.0524,-4.083,-4.1049,-4.1034,-4.1205,-4.1272,-4.1256,-4.1456,-4.2327,-4.3636,-4.369,-4.4527,-4.5807,-4.5807,-4.5807,-4.5918,-4.6692,-4.7798,-4.9061,-3.288,-3.2517,-3.2298,-3.2592,-3.219,-3.172,-3.1283,-3.1437,-3.1286,-3.0842,-3.0976,-3.1222,-3.1318,-3.1572,-3.1661,-3.1661,-3.1661,-3.1749,-3.1749,-3.1937,-3.2038,-3.2038,-3.23,-3.2562,-3.2711,-3.2723,-3.2896,-3.3081,-3.3081,-3.3081,-3.3154,-3.3154,-3.324,-3.3484,-3.3484,-3.3738,-3.4076,-3.416,-3.4243,-3.4397,-3.4397,-3.4397,-3.4397,-3.4397,-3.4397,-3.4397,-3.4397,-3.466,-3.4921,-3.5318,-3.5399,-3.548,-3.5642,-3.571,-3.571,-3.571,-3.5898,-3.6086,-3.6166,-3.6405,-3.6721,-3.6707,-3.685,-3.6978,-3.7056,-3.7148,-3.7303,-3.738,-3.7701,-3.7929,-3.7929,-3.8066,-3.8277,-3.8441,-3.8516,-3.859,-3.8797,-3.9017,-3.9104,-3.9104,-3.9337,-3.9553,-3.9696,-3.9768,-3.9839,-3.9996,-4.0081,-4.0137,-4.0347,-4.0347,-4.0401,-4.0539,-4.0524,-4.0524,-4.0524,-4.0524,-4.0524,-4.0524,-4.0539,-4.0662,-4.0867,-4.1034,-4.1102,-4.1169,-4.1272,-4.2108,-4.3466,-4.3636,-4.4543,-4.5807,-4.5807,-4.5807,-4.5965,-4.7277,-4.8225,-4.8983,-3.2007,-3.1971,-3.192,-3.1843,-3.1472,-3.1061,-3.1042,-3.0848,-3.0663,-3.0432,-3.0589,-3.0769,-3.0937,-3.1217,-3.1484,-3.1484,-3.1572,-3.1661,-3.1661,-3.1749,-3.1849,-3.1849,-3.2025,-3.2213,-3.2288,-3.255,-3.2723,-3.2896,-3.2995,-3.3081,-3.3081,-3.3081,-3.3154,-3.324,-3.3313,-3.3484,-3.3738,-3.3992,-3.416,-3.4243,-3.4314,-3.4397,-3.4397,-3.4397,-3.4397,-3.4397,-3.4397,-3.4577,-3.4839,-3.5003,-3.5236,-3.5399,-3.548,-3.5642,-3.571,-3.571,-3.5804,-3.5898,-3.6072,-3.6246,-3.6405,-3.6642,-3.6786,-3.685,-3.6978,-3.707,-3.7148,-3.7303,-3.7457,-3.7625,-3.7853,-3.8005,-3.8066,-3.8292,-3.8366,-3.8427,-3.8575,-3.8738,-3.8885,-3.9104,-3.9265,-3.9409,-3.9553,-3.9553,-3.9625,-3.9854,-3.9839,-3.9925,-4.0137,-4.0137,-4.0024,-3.9749,-4.0186,-4.0217,-3.997,-4.0339,-4.0524,-4.0524,-4.0524,-4.0524,-4.0662,-4.0814,-4.095,-4.095,-4.1086,-4.2056,-4.3396,-4.3481,-4.4457,-4.5807,-4.5807,-4.6281,-4.7056,-4.7672,-4.8557,-4.9505]}]]